[[{"header":{"parameterUnit":"m.s-1","parameterCategory":1,"la1":31.0,"la2":29.5877,"lo1":-88.7671,"lo2":-86.6584,"dy":0.0162,"dx":0.0185,"nx":115,"ny":88,"refTime":"2024-02-26T06:00:00:Z","depth":0,"parameterNumber":2,"parameterNumberName":"U-component_of_WINDS"},"data":[0.0,0.0,0.0,0.0,0.0,0.0,0.0,0.0,0.0,0.0,0.0,0.0,0.0,0.0,0.0,0.0,0.0,0.0,0.0,0.0,0.0,0.0,0.0,0.0,0.0,0.0,0.0,0.0,0.0,0.0,0.0,0.0,0.0,0.0,0.0,0.0,0.0,0.0,0.0,0.0,0.0,0.0,0.0,0.0,0.0,0.0,0.0,0.0,0.0,0.0,0.0,0.0,0.0,0.0,0.0,0.0,0.0,0.0,0.0,0.0,0.0,0.0,0.0,0.0,0.0,0.0,0.0,0.0,0.0,0.0,0.0,0.0,0.0,0.0,0.0,0.0,0.0,0.0,0.0,0.0,0.0,0.0,0.0,0.0,0.0,0.0,0.0,0.0,0.0,0.0,0.0,0.0,0.0,0.0,0.0,0.0,0.0,0.0,0.0,0.0,0.0,0.0,0.0,0.0,0.0,0.0,0.0,0.0,0.0,0.0,0.0,0.0,0.0,0.0,0.0,0.0,0.0,0.0,0.0,0.0,0.0,0.0,0.0,0.0,0.0,0.0,0.0,0.0,0.0,0.0,0.0,0.0,0.0,0.0,0.0,0.0,0.0,0.0,0.0,0.0,0.0,0.0,0.0,0.0,0.0,0.0,0.0,0.0,0.0,0.0,0.0,0.0,0.0,0.0,0.0,0.0,0.0,0.0,0.0,0.0,0.0,0.0,0.0,0.0,0.0,0.0,0.0,0.0,0.0,0.0,0.0,0.0,0.0,0.0,0.0,0.0,0.0,0.0,0.0,0.0,0.0,0.0,0.0,0.0,0.0,0.0,0.0,0.0,0.0,0.0,0.0,0.0,0.0,0.0,0.0,0.0,0.0,0.0,0.0,0.0,0.0,0.0,0.0,0.0,0.0,0.0,0.0,0.0,0.0,0.0,0.0,0.0,0.0,0.0,0.0,0.0,0.0,0.0,0.0,0.0,0.0,0.0,0.0,0.0,0.0,0.0,0.0,0.0,0.0,0.0,0.0,0.0,0.0,0.0,0.0,0.0,0.0,0.0,0.0,0.0,0.0,0.0,0.0,0.0,0.0,0.0,0.0,0.0,0.0,0.0,0.0,0.0,0.0,0.0,0.0,0.0,0.0,0.0,0.0,0.0,0.0,0.0,0.0,0.0,0.0,0.0,0.0,0.0,0.0,0.0,0.0,0.0,0.0,0.0,0.0,0.0,0.0,0.0,0.0,0.0,0.0,0.0,0.0,0.0,0.0,0.0,0.0,0.0,0.0,0.0,0.0,0.0,0.0,0.0,0.0,0.0,0.0,0.0,0.0,0.0,0.0,0.0,0.0,0.0,0.0,0.0,0.0,0.0,0.0,0.0,0.0,0.0,0.0,0.0,0.0,0.0,0.0,0.0,0.0,0.0,0.0,0.0,0.0,0.0,0.0,0.0,0.0,0.0,0.0,0.0,0.0,0.0,0.0,0.0,0.0,0.0,0.0,0.0,0.0,0.0,0.0,0.0,0.0,0.0,0.0,0.0,0.0,0.0,0.0,0.0,0.0,0.0,0.0,0.0,0.0,0.0,0.0,0.0,0.0,0.0,0.0,0.0,0.0,0.0,0.0,0.0,0.0,0.0,0.0,0.0,0.0,0.0,0.0,0.0,0.0,0.0,0.0,0.0,0.0,0.0,0.0,0.0,0.0,0.0,0.0,0.0,0.0,0.0,0.0,0.0,0.0,0.0,0.0,0.0,0.0,0.0,0.0,0.0,0.0,0.0,0.0,0.0,0.0,0.0,0.0,0.0,0.0,0.0,0.0,0.0,0.0,0.0,0.0,0.0,0.0,0.0,0.0,0.0,0.0,0.0,0.0,0.0,0.0,0.0,0.0,0.0,0.0,0.0,0.0,0.0,0.0,0.0,0.0,0.0,0.0,0.0,0.0,0.0,0.0,0.0,0.0,0.0,0.0,0.0,0.0,0.0,0.0,0.0,0.0,0.0,0.0,0.0,0.0,0.0,0.0,0.0,0.0,0.0,0.0,0.0,0.0,0.0,0.0,0.0,0.0,0.0,0.0,0.0,0.0,0.0,0.0,0.0,0.0,0.0,0.0,0.0,0.0,0.0,0.0,0.0,0.0,0.0,0.0,0.0,0.0,0.0,0.0,0.0,0.0,0.0,0.0,0.0,0.0,0.0,0.0,0.0,0.0,0.0,0.0,0.0,0.0,0.0,0.0,0.0,0.0,0.0,0.0,0.0,0.0,0.0,0.0,0.0,0.0,0.0,0.0,0.0,0.0,0.0,0.0,0.0,0.0,0.0,0.0,0.0,0.0,0.0,0.0,0.0,0.0,0.0,0.0,0.0,0.0,0.0,0.0,0.0,0.0,0.0,0.0,0.0,0.0,0.0,0.0,0.0,0.0,0.0,0.0,0.0,0.0,0.0,0.0,0.0,0.0,0.0,0.0,0.0,0.0,0.0,0.0,0.0,0.0,0.0,0.0,0.0,0.0,0.0,0.0,0.0,0.0,0.0,0.0,0.0,0.0,0.0,0.0,0.0,0.0,0.0,0.0,0.0,0.0,0.0,0.0,0.0,0.0,0.0,0.0,0.0,0.0,0.0,0.0,0.0,0.0,0.0,0.0,0.0,0.0,0.0,0.0,0.0,0.0,0.0,0.0,0.0,0.0,0.0,0.0,0.0,0.0,0.0,0.0,0.0,0.0,0.0,0.0,0.0,0.0,0.0,0.0,0.0,0.0,0.0,0.0,0.0,0.0,0.0,0.0,0.0,0.0,0.0,0.0,0.0,0.0,0.0,0.0,0.0,0.0,0.0,0.0,0.0,0.0,0.0,0.0,0.0,0.0,0.0,0.0,0.0,0.0,0.0,0.0,0.0,0.0,0.0,0.0,0.0,0.0,0.0,0.0,0.0,0.0,0.0,0.0,0.0,0.0,0.0,0.0,0.0,0.0,0.0,0.0,0.0,0.0,0.0,0.0,0.0,0.0,0.0,0.0,0.0,0.0,0.0,0.0,0.0,0.0,0.0,0.0,0.0,0.0,0.0,0.0,0.0,0.0,0.0,0.0,0.0,0.0,0.0,0.0,0.0,0.0,0.0,0.0,0.0,0.0,0.0,0.0,0.0,0.0,0.0,0.0,0.0,0.0,0.0,0.0,0.0,0.0,0.0,0.0,0.0,0.0,0.0,0.0,0.0,0.0,0.0,0.0,0.0,0.0,0.0,0.0,0.0,0.0,0.0,0.0,0.0,0.0,0.0,0.0,0.0,0.0,0.0,0.0,0.0,0.0,0.0,0.0,0.0,0.0,0.0,0.0,0.0,0.0,0.0,0.0,0.0,0.0,0.0,0.0,0.0,0.0,0.0,0.0,0.0,0.0,0.0,0.0,0.0,0.0,0.0,0.0,0.0,0.0,0.0,0.0,0.0,0.0,0.0,0.0,0.0,0.0,0.0,0.0,0.0,0.0,0.0,0.0,0.0,0.0,0.0,0.0,0.0,0.0,0.0,0.0,0.0,0.0,0.0,0.0,0.0,0.0,0.0,0.0,0.0,0.0,0.0,0.0,0.0,0.0,0.0,0.0,0.0,0.0,0.0,0.0,0.0,0.0,0.0,0.0,0.0,0.0,0.0,0.0,0.0,0.0,0.0,0.0,0.0,0.0,0.0,0.0,0.0,0.0,0.0,0.0,0.0,0.0,0.0,0.0,0.0,0.0,0.0,0.0,0.0,0.0,0.0,0.0,0.0,0.0,0.0,0.0,0.0,0.0,0.0,0.0,0.0,0.0,0.0,0.0,0.0,0.0,0.0,0.0,0.0,0.0,0.0,0.0,0.0,0.0,0.0,0.0,0.0,0.0,0.0,0.0,0.0,0.0,0.0,0.0,0.0,0.0,0.0,0.0,0.0,0.0,0.0,0.0,0.0,0.0,0.0,0.0,0.0,0.0,0.0,0.0,0.0,0.0,0.0,0.0,0.0,0.0,0.0,0.0,0.0,0.0,0.0,0.0,0.0,0.0,0.0,0.0,0.0,0.0,0.0,0.0,0.0,0.0,0.0,0.0,0.0,0.0,0.0,0.0,0.0,0.0,0.0,0.0,0.0,0.0,0.0,0.0,0.0,0.0,0.0,0.0,0.0,0.0,0.0,0.0,0.0,0.0,0.0,0.0,0.0,0.0,0.0,0.0,0.0,0.0,0.0,0.0,0.0,0.0,0.0,0.0,0.0,0.0,0.0,0.0,0.0,0.0,0.0,0.0,0.0,0.0,0.0,-6.921,0.0,0.0,0.0,0.0,0.0,0.0,0.0,0.0,0.0,0.0,0.0,0.0,0.0,0.0,0.0,0.0,0.0,0.0,0.0,0.0,0.0,0.0,0.0,0.0,0.0,0.0,0.0,0.0,0.0,0.0,0.0,0.0,0.0,0.0,0.0,0.0,0.0,0.0,0.0,0.0,0.0,0.0,0.0,0.0,0.0,0.0,0.0,0.0,0.0,0.0,0.0,0.0,0.0,0.0,0.0,0.0,0.0,0.0,0.0,0.0,0.0,0.0,0.0,0.0,0.0,0.0,0.0,0.0,0.0,0.0,0.0,0.0,0.0,0.0,0.0,0.0,0.0,0.0,0.0,0.0,0.0,0.0,0.0,0.0,0.0,0.0,0.0,0.0,0.0,0.0,0.0,0.0,0.0,0.0,0.0,0.0,0.0,0.0,0.0,0.0,0.0,0.0,0.0,0.0,0.0,0.0,0.0,0.0,0.0,0.0,-6.9543,-6.9442,-6.9787,-6.9544,-6.8611,0.0,0.0,0.0,0.0,0.0,0.0,0.0,0.0,0.0,0.0,0.0,0.0,0.0,0.0,0.0,0.0,0.0,0.0,0.0,0.0,0.0,0.0,0.0,0.0,0.0,0.0,0.0,0.0,0.0,0.0,0.0,0.0,0.0,0.0,0.0,0.0,0.0,0.0,0.0,0.0,0.0,0.0,0.0,0.0,0.0,0.0,0.0,0.0,0.0,0.0,0.0,0.0,0.0,0.0,0.0,0.0,0.0,0.0,0.0,0.0,0.0,0.0,0.0,0.0,0.0,0.0,0.0,0.0,0.0,0.0,0.0,0.0,0.0,0.0,0.0,0.0,0.0,0.0,0.0,0.0,0.0,0.0,0.0,0.0,0.0,0.0,0.0,0.0,0.0,0.0,0.0,0.0,0.0,0.0,0.0,0.0,0.0,0.0,0.0,0.0,0.0,0.0,0.0,0.0,0.0,0.0,0.0,0.0,0.0,0.0,0.0,0.0,-6.9787,-6.9641,-6.8289,0.0,0.0,0.0,0.0,0.0,0.0,0.0,0.0,0.0,0.0,0.0,0.0,0.0,0.0,0.0,0.0,0.0,0.0,0.0,0.0,0.0,0.0,0.0,0.0,0.0,0.0,0.0,0.0,0.0,0.0,0.0,0.0,0.0,0.0,0.0,0.0,0.0,0.0,0.0,0.0,0.0,0.0,0.0,0.0,0.0,0.0,0.0,0.0,0.0,0.0,0.0,0.0,0.0,0.0,0.0,0.0,0.0,0.0,0.0,0.0,0.0,0.0,0.0,0.0,0.0,0.0,0.0,0.0,0.0,0.0,0.0,0.0,0.0,0.0,0.0,0.0,0.0,0.0,0.0,0.0,0.0,0.0,0.0,0.0,0.0,0.0,0.0,0.0,0.0,0.0,0.0,0.0,0.0,0.0,0.0,0.0,0.0,0.0,0.0,0.0,0.0,0.0,0.0,0.0,0.0,0.0,0.0,0.0,0.0,0.0,-6.9083,-7.0532,-6.9855,0.0,-6.8929,0.0,0.0,0.0,0.0,0.0,0.0,0.0,0.0,0.0,0.0,0.0,0.0,0.0,0.0,0.0,0.0,0.0,0.0,0.0,0.0,0.0,0.0,0.0,0.0,0.0,0.0,0.0,0.0,0.0,0.0,0.0,0.0,0.0,0.0,0.0,0.0,0.0,0.0,0.0,0.0,0.0,0.0,0.0,0.0,0.0,0.0,0.0,0.0,0.0,0.0,0.0,0.0,0.0,0.0,0.0,0.0,0.0,0.0,0.0,0.0,0.0,0.0,0.0,0.0,0.0,0.0,0.0,0.0,0.0,0.0,0.0,0.0,0.0,0.0,0.0,0.0,0.0,0.0,0.0,0.0,0.0,0.0,0.0,0.0,0.0,0.0,0.0,0.0,0.0,0.0,0.0,0.0,0.0,0.0,0.0,0.0,0.0,0.0,0.0,0.0,0.0,0.0,0.0,0.0,0.0,0.0,0.0,0.0,0.0,0.0,-6.8098,-6.9289,-6.882,-6.847,0.0,0.0,0.0,0.0,0.0,0.0,0.0,0.0,0.0,0.0,0.0,0.0,0.0,0.0,0.0,0.0,0.0,0.0,0.0,0.0,0.0,0.0,0.0,0.0,0.0,0.0,0.0,0.0,0.0,0.0,0.0,0.0,0.0,0.0,0.0,0.0,0.0,0.0,0.0,0.0,0.0,0.0,0.0,0.0,0.0,0.0,0.0,0.0,0.0,0.0,0.0,0.0,0.0,0.0,0.0,0.0,0.0,0.0,0.0,0.0,0.0,0.0,0.0,0.0,0.0,0.0,0.0,0.0,0.0,0.0,0.0,0.0,0.0,0.0,0.0,0.0,0.0,0.0,0.0,0.0,0.0,0.0,0.0,0.0,0.0,0.0,0.0,0.0,0.0,0.0,0.0,0.0,0.0,0.0,0.0,0.0,0.0,0.0,0.0,0.0,0.0,0.0,0.0,0.0,0.0,0.0,0.0,0.0,0.0,0.0,-6.7022,-6.7407,-6.8153,-6.7825,-6.7518,-6.7289,0.0,0.0,0.0,0.0,0.0,0.0,0.0,0.0,0.0,0.0,0.0,0.0,0.0,0.0,0.0,0.0,0.0,0.0,0.0,0.0,0.0,0.0,0.0,0.0,0.0,0.0,0.0,0.0,0.0,0.0,0.0,0.0,0.0,0.0,0.0,0.0,0.0,0.0,0.0,0.0,0.0,0.0,0.0,0.0,0.0,0.0,0.0,0.0,0.0,0.0,0.0,0.0,0.0,0.0,0.0,0.0,0.0,0.0,0.0,0.0,0.0,0.0,0.0,0.0,0.0,0.0,0.0,0.0,0.0,0.0,0.0,0.0,0.0,0.0,0.0,0.0,0.0,0.0,0.0,0.0,0.0,0.0,0.0,0.0,0.0,0.0,0.0,0.0,0.0,0.0,0.0,0.0,0.0,0.0,0.0,0.0,0.0,0.0,0.0,0.0,0.0,0.0,0.0,0.0,0.0,0.0,0.0,0.0,-6.9,-6.7804,-6.7382,-6.7959,-6.7165,-6.6645,0.0,0.0,0.0,0.0,0.0,0.0,0.0,0.0,0.0,0.0,0.0,0.0,0.0,0.0,0.0,0.0,0.0,0.0,0.0,0.0,0.0,0.0,0.0,0.0,0.0,0.0,0.0,0.0,0.0,0.0,0.0,0.0,0.0,0.0,0.0,0.0,0.0,0.0,0.0,0.0,0.0,0.0,0.0,0.0,0.0,0.0,0.0,0.0,0.0,0.0,0.0,0.0,0.0,0.0,0.0,0.0,0.0,0.0,0.0,0.0,0.0,0.0,0.0,0.0,0.0,0.0,0.0,0.0,0.0,0.0,0.0,0.0,0.0,0.0,0.0,0.0,0.0,0.0,0.0,0.0,0.0,0.0,0.0,0.0,0.0,0.0,0.0,0.0,0.0,0.0,0.0,0.0,0.0,0.0,0.0,0.0,0.0,0.0,0.0,0.0,0.0,0.0,0.0,0.0,0.0,0.0,0.0,0.0,0.0,-6.6173,-6.6754,-6.711,-6.7276,-6.7063,-6.6551,0.0,0.0,0.0,0.0,0.0,0.0,0.0,0.0,0.0,0.0,0.0,0.0,0.0,0.0,0.0,0.0,0.0,0.0,0.0,0.0,0.0,0.0,0.0,0.0,0.0,0.0,0.0,0.0,0.0,0.0,0.0,0.0,0.0,0.0,0.0,0.0,0.0,0.0,0.0,0.0,0.0,0.0,0.0,0.0,0.0,0.0,0.0,0.0,0.0,0.0,0.0,0.0,0.0,0.0,0.0,0.0,0.0,0.0,0.0,0.0,0.0,0.0,0.0,0.0,0.0,0.0,0.0,0.0,0.0,0.0,0.0,0.0,0.0,0.0,0.0,0.0,0.0,0.0,0.0,0.0,0.0,0.0,0.0,0.0,0.0,0.0,0.0,0.0,0.0,0.0,0.0,0.0,0.0,0.0,0.0,0.0,0.0,0.0,0.0,0.0,0.0,0.0,0.0,0.0,0.0,0.0,0.0,0.0,0.0,-6.459,0.0,-6.6627,-6.6461,-6.6421,-6.5879,0.0,0.0,0.0,0.0,0.0,0.0,0.0,0.0,0.0,0.0,0.0,0.0,0.0,0.0,0.0,0.0,0.0,0.0,0.0,0.0,0.0,0.0,0.0,0.0,0.0,0.0,0.0,0.0,0.0,0.0,0.0,0.0,0.0,0.0,0.0,0.0,0.0,0.0,0.0,0.0,0.0,0.0,0.0,0.0,0.0,0.0,0.0,0.0,0.0,0.0,0.0,0.0,0.0,0.0,0.0,0.0,0.0,0.0,0.0,0.0,0.0,0.0,0.0,0.0,0.0,0.0,0.0,0.0,0.0,0.0,0.0,0.0,0.0,0.0,0.0,0.0,0.0,0.0,0.0,0.0,0.0,0.0,0.0,0.0,0.0,0.0,0.0,0.0,0.0,0.0,0.0,0.0,0.0,0.0,0.0,0.0,0.0,0.0,0.0,0.0,0.0,0.0,0.0,0.0,0.0,0.0,0.0,0.0,-6.3973,-6.4717,-6.5473,-6.5779,-6.5608,-6.5117,-6.4614,0.0,0.0,0.0,0.0,0.0,0.0,0.0,0.0,0.0,0.0,0.0,0.0,0.0,0.0,0.0,0.0,0.0,0.0,0.0,0.0,0.0,0.0,0.0,0.0,0.0,0.0,0.0,0.0,0.0,0.0,0.0,0.0,0.0,0.0,0.0,0.0,0.0,0.0,0.0,0.0,0.0,0.0,0.0,0.0,0.0,0.0,0.0,0.0,0.0,0.0,0.0,0.0,0.0,0.0,0.0,0.0,0.0,0.0,0.0,0.0,0.0,0.0,0.0,0.0,0.0,0.0,0.0,0.0,0.0,0.0,0.0,0.0,0.0,0.0,0.0,0.0,0.0,0.0,0.0,0.0,0.0,0.0,0.0,0.0,0.0,0.0,0.0,0.0,0.0,0.0,0.0,0.0,0.0,0.0,0.0,0.0,0.0,0.0,0.0,0.0,0.0,0.0,0.0,0.0,0.0,0.0,0.0,0.0,0.0,-6.2344,-6.3138,-6.4258,-6.5747,-6.4862,-6.4584,0.0,0.0,0.0,0.0,0.0,0.0,0.0,0.0,0.0,0.0,0.0,0.0,0.0,0.0,0.0,0.0,0.0,0.0,0.0,0.0,0.0,0.0,0.0,0.0,0.0,0.0,0.0,0.0,0.0,0.0,0.0,0.0,0.0,0.0,0.0,0.0,0.0,0.0,0.0,0.0,0.0,0.0,0.0,0.0,0.0,0.0,0.0,0.0,0.0,0.0,0.0,0.0,0.0,0.0,0.0,0.0,0.0,0.0,0.0,0.0,0.0,0.0,0.0,0.0,0.0,0.0,0.0,0.0,0.0,0.0,0.0,0.0,0.0,0.0,0.0,0.0,0.0,0.0,0.0,0.0,0.0,0.0,0.0,0.0,0.0,0.0,0.0,0.0,0.0,0.0,0.0,0.0,0.0,0.0,0.0,0.0,0.0,0.0,0.0,0.0,0.0,0.0,0.0,0.0,0.0,0.0,0.0,0.0,0.0,-6.09,-6.1972,-6.3169,-6.458,-6.4354,-6.4312,-6.4401,0.0,0.0,0.0,0.0,0.0,0.0,0.0,0.0,0.0,0.0,0.0,0.0,0.0,0.0,0.0,0.0,0.0,0.0,0.0,0.0,0.0,0.0,0.0,0.0,0.0,0.0,0.0,0.0,0.0,0.0,0.0,0.0,0.0,0.0,0.0,0.0,0.0,0.0,0.0,0.0,0.0,0.0,0.0,0.0,0.0,0.0,0.0,0.0,0.0,0.0,0.0,0.0,0.0,0.0,0.0,0.0,0.0,0.0,0.0,0.0,0.0,0.0,0.0,0.0,0.0,0.0,0.0,0.0,0.0,0.0,0.0,0.0,0.0,0.0,0.0,0.0,0.0,0.0,0.0,0.0,0.0,0.0,0.0,0.0,0.0,0.0,0.0,0.0,0.0,0.0,0.0,0.0,0.0,0.0,0.0,0.0,0.0,0.0,0.0,0.0,0.0,0.0,0.0,0.0,0.0,0.0,0.0,0.0,-6.0317,-6.1875,-6.2629,-6.2463,-6.3816,-6.3873,0.0,0.0,0.0,0.0,0.0,0.0,0.0,0.0,0.0,0.0,0.0,0.0,0.0,0.0,0.0,0.0,0.0,0.0,0.0,0.0,0.0,0.0,0.0,0.0,0.0,0.0,0.0,0.0,0.0,0.0,0.0,0.0,0.0,0.0,0.0,0.0,0.0,0.0,0.0,0.0,0.0,0.0,0.0,0.0,0.0,0.0,0.0,0.0,0.0,0.0,0.0,0.0,0.0,0.0,0.0,0.0,0.0,0.0,0.0,0.0,0.0,0.0,0.0,0.0,0.0,0.0,0.0,0.0,0.0,0.0,0.0,0.0,0.0,0.0,0.0,0.0,0.0,0.0,0.0,0.0,0.0,0.0,0.0,0.0,0.0,0.0,0.0,0.0,0.0,0.0,0.0,0.0,0.0,0.0,0.0,0.0,0.0,0.0,0.0,0.0,0.0,0.0,0.0,0.0,0.0,0.0,0.0,0.0,0.0,-6.0383,-6.2029,-6.3099,-6.3481,-6.4278,-6.4386,0.0,0.0,0.0,0.0,0.0,0.0,0.0,0.0,0.0,0.0,0.0,0.0,0.0,0.0,0.0,0.0,0.0,0.0,0.0,0.0,0.0,0.0,0.0,0.0,0.0,0.0,0.0,0.0,0.0,0.0,0.0,0.0,0.0,0.0,0.0,0.0,0.0,0.0,0.0,0.0,0.0,0.0,0.0,0.0,0.0,0.0,0.0,0.0,0.0,0.0,0.0,0.0,0.0,0.0,0.0,0.0,0.0,0.0,0.0,0.0,0.0,0.0,0.0,0.0,0.0,0.0,0.0,0.0,0.0,0.0,0.0,0.0,0.0,0.0,0.0,0.0,0.0,0.0,0.0,0.0,0.0,0.0,0.0,0.0,0.0,0.0,0.0,0.0,0.0,0.0,0.0,0.0,0.0,0.0,0.0,0.0,0.0,0.0,0.0,0.0,0.0,0.0,0.0,0.0,0.0,0.0,0.0,0.0,-5.9881,-5.9882,-6.2262,-6.3515,-6.3491,-6.4766,-6.49,0.0,0.0,0.0,0.0,0.0,0.0,0.0,0.0,0.0,0.0,0.0,0.0,0.0,0.0,0.0,0.0,0.0,0.0,0.0,0.0,0.0,0.0,0.0,0.0,0.0,0.0,0.0,0.0,0.0,0.0,0.0,0.0,0.0,0.0,0.0,0.0,0.0,0.0,0.0,0.0,0.0,0.0,0.0,0.0,0.0,0.0,0.0,0.0,0.0,0.0,0.0,0.0,0.0,0.0,0.0,0.0,0.0,0.0,0.0,0.0,0.0,0.0,0.0,0.0,0.0,0.0,0.0,0.0,0.0,0.0,0.0,0.0,0.0,0.0,0.0,0.0,0.0,0.0,0.0,0.0,0.0,0.0,0.0,0.0,0.0,0.0,0.0,0.0,0.0,0.0,0.0,0.0,0.0,0.0,0.0,0.0,0.0,0.0,0.0,0.0,0.0,0.0,0.0,0.0,0.0,0.0,0.0,0.0,-6.0716,-5.9453,-6.2495,-6.3827,-6.3155,-6.5085,-6.5211,0.0,0.0,0.0,0.0,0.0,0.0,0.0,0.0,0.0,0.0,0.0,0.0,0.0,0.0,0.0,0.0,0.0,0.0,0.0,0.0,0.0,0.0,0.0,0.0,0.0,0.0,0.0,0.0,0.0,0.0,0.0,0.0,0.0,0.0,0.0,0.0,0.0,0.0,0.0,0.0,0.0,0.0,0.0,0.0,0.0,0.0,0.0,0.0,0.0,0.0,0.0,0.0,0.0,0.0,0.0,0.0,0.0,0.0,0.0,0.0,0.0,0.0,0.0,0.0,0.0,0.0,0.0,0.0,0.0,0.0,0.0,0.0,0.0,0.0,0.0,0.0,0.0,0.0,0.0,0.0,0.0,0.0,0.0,0.0,0.0,0.0,0.0,0.0,0.0,0.0,0.0,0.0,0.0,0.0,0.0,0.0,0.0,0.0,0.0,0.0,0.0,0.0,0.0,0.0,0.0,0.0,0.0,0.0,-6.0687,-6.1171,-6.2534,-6.3512,-6.3984,-6.4887,-6.4418,0.0,0.0,0.0,0.0,0.0,0.0,0.0,0.0,0.0,0.0,0.0,0.0,0.0,0.0,0.0,0.0,0.0,0.0,0.0,0.0,0.0,0.0,0.0,0.0,0.0,0.0,0.0,0.0,0.0,0.0,0.0,0.0,0.0,0.0,0.0,0.0,0.0,0.0,0.0,0.0,0.0,0.0,0.0,0.0,0.0,0.0,0.0,0.0,-6.8619,0.0,0.0,0.0,0.0,0.0,0.0,0.0,0.0,0.0,0.0,0.0,0.0,0.0,0.0,0.0,0.0,0.0,0.0,0.0,0.0,0.0,0.0,0.0,0.0,0.0,0.0,0.0,0.0,0.0,0.0,0.0,0.0,0.0,0.0,0.0,0.0,0.0,0.0,0.0,0.0,0.0,0.0,0.0,0.0,0.0,0.0,0.0,0.0,0.0,0.0,0.0,0.0,0.0,0.0,0.0,0.0,0.0,0.0,0.0,-6.0535,-6.109,-6.2338,-6.324,-6.3671,-6.385,-6.3573,0.0,0.0,0.0,0.0,0.0,0.0,0.0,0.0,0.0,0.0,0.0,0.0,0.0,0.0,0.0,0.0,0.0,0.0,0.0,0.0,0.0,0.0,0.0,0.0,0.0,0.0,0.0,0.0,0.0,0.0,0.0,0.0,0.0,0.0,0.0,0.0,0.0,0.0,0.0,0.0,0.0,0.0,0.0,0.0,0.0,0.0,0.0,0.0,0.0,0.0,0.0,0.0,0.0,0.0,0.0,0.0,0.0,0.0,0.0,0.0,0.0,0.0,0.0,0.0,0.0,0.0,0.0,0.0,0.0,0.0,0.0,0.0,0.0,0.0,0.0,0.0,0.0,0.0,0.0,0.0,0.0,0.0,0.0,0.0,0.0,0.0,0.0,0.0,0.0,0.0,0.0,0.0,0.0,0.0,0.0,0.0,0.0,0.0,0.0,0.0,0.0,0.0,0.0,0.0,0.0,0.0,0.0,-6.0045,-6.0148,-6.0265,-6.1792,-6.2616,-6.2577,-6.235,-6.2513,-6.313,0.0,0.0,0.0,0.0,0.0,0.0,0.0,0.0,0.0,0.0,0.0,0.0,0.0,0.0,0.0,0.0,0.0,0.0,0.0,0.0,0.0,0.0,0.0,0.0,0.0,0.0,0.0,0.0,0.0,0.0,0.0,0.0,0.0,0.0,0.0,0.0,0.0,0.0,-6.169,-6.3346,0.0,0.0,0.0,0.0,0.0,0.0,0.0,0.0,-6.6154,0.0,0.0,0.0,0.0,0.0,0.0,0.0,0.0,0.0,0.0,0.0,0.0,0.0,0.0,0.0,0.0,0.0,0.0,0.0,0.0,0.0,0.0,0.0,0.0,0.0,0.0,0.0,0.0,0.0,0.0,0.0,0.0,0.0,0.0,0.0,0.0,0.0,0.0,0.0,0.0,0.0,0.0,0.0,0.0,0.0,0.0,0.0,0.0,0.0,0.0,0.0,0.0,0.0,0.0,0.0,0.0,-5.9952,-5.9519,-5.9294,-5.932,-6.0302,-6.0855,-6.0819,-6.0675,-6.0893,-6.157,0.0,0.0,0.0,0.0,0.0,0.0,0.0,0.0,0.0,0.0,0.0,0.0,0.0,0.0,0.0,0.0,0.0,0.0,0.0,0.0,0.0,0.0,0.0,0.0,0.0,0.0,0.0,0.0,0.0,0.0,0.0,0.0,0.0,0.0,0.0,0.0,0.0,0.0,0.0,-6.4682,-6.5412,0.0,0.0,0.0,0.0,0.0,0.0,0.0,0.0,-6.4644,0.0,0.0,0.0,0.0,0.0,0.0,0.0,0.0,0.0,0.0,0.0,0.0,0.0,0.0,0.0,0.0,0.0,0.0,0.0,0.0,0.0,0.0,0.0,0.0,0.0,0.0,0.0,0.0,0.0,0.0,0.0,0.0,0.0,0.0,0.0,0.0,0.0,0.0,0.0,0.0,0.0,0.0,0.0,0.0,0.0,0.0,0.0,0.0,0.0,0.0,0.0,0.0,0.0,0.0,0.0,-5.9903,-5.9388,-5.929,-5.9755,-6.0618,-6.0856,-6.0429,-6.0295,-6.0566,0.0,0.0,0.0,0.0,0.0,0.0,0.0,0.0,0.0,0.0,0.0,0.0,0.0,0.0,0.0,0.0,0.0,0.0,0.0,0.0,0.0,0.0,0.0,0.0,0.0,0.0,0.0,0.0,0.0,0.0,0.0,0.0,0.0,0.0,0.0,0.0,0.0,0.0,0.0,0.0,-6.4589,-6.5197,-6.6043,0.0,0.0,0.0,0.0,0.0,0.0,-6.4713,-6.4098,0.0,0.0,0.0,0.0,0.0,0.0,0.0,0.0,0.0,0.0,0.0,0.0,0.0,0.0,0.0,0.0,0.0,0.0,0.0,0.0,0.0,0.0,0.0,0.0,0.0,0.0,0.0,0.0,0.0,0.0,0.0,0.0,0.0,0.0,0.0,0.0,0.0,0.0,0.0,0.0,0.0,0.0,0.0,0.0,0.0,0.0,0.0,0.0,0.0,0.0,0.0,0.0,0.0,0.0,0.0,-5.9425,-5.917,-5.9361,-6.0109,-6.0815,-6.0857,-6.0156,-6.0071,-6.0288,0.0,0.0,0.0,0.0,0.0,0.0,0.0,0.0,0.0,0.0,0.0,0.0,0.0,0.0,0.0,0.0,0.0,0.0,0.0,0.0,0.0,0.0,0.0,0.0,0.0,0.0,0.0,0.0,0.0,0.0,0.0,0.0,0.0,0.0,0.0,0.0,0.0,0.0,0.0,0.0,0.0,-6.5295,-6.6159,-6.5227,0.0,0.0,0.0,0.0,-6.3713,-6.4173,0.0,0.0,0.0,0.0,0.0,0.0,0.0,0.0,0.0,0.0,0.0,0.0,0.0,0.0,0.0,0.0,0.0,0.0,0.0,0.0,0.0,0.0,0.0,0.0,0.0,0.0,0.0,0.0,0.0,0.0,0.0,0.0,0.0,0.0,0.0,0.0,0.0,0.0,0.0,0.0,0.0,0.0,0.0,0.0,0.0,0.0,0.0,0.0,0.0,0.0,0.0,0.0,0.0,0.0,0.0,0.0,-5.7751,-5.8588,-5.9089,-5.9244,-5.9326,-5.9366,-5.9244,-5.9255,-5.921,0.0,0.0,0.0,0.0,0.0,0.0,0.0,0.0,0.0,0.0,0.0,0.0,0.0,0.0,0.0,0.0,0.0,0.0,0.0,0.0,0.0,0.0,0.0,0.0,0.0,0.0,0.0,0.0,0.0,0.0,0.0,0.0,0.0,0.0,0.0,0.0,0.0,0.0,0.0,0.0,0.0,-6.6879,-6.4774,-6.4965,-6.5207,0.0,0.0,-6.3637,-6.642,-6.5747,0.0,0.0,0.0,0.0,0.0,0.0,0.0,0.0,0.0,0.0,0.0,0.0,0.0,0.0,0.0,0.0,0.0,0.0,0.0,0.0,0.0,0.0,0.0,0.0,0.0,0.0,0.0,0.0,0.0,0.0,0.0,0.0,0.0,0.0,0.0,0.0,0.0,0.0,0.0,0.0,0.0,0.0,0.0,0.0,0.0,0.0,0.0,0.0,0.0,0.0,0.0,0.0,0.0,0.0,0.0,-5.7898,-5.7458,-5.8453,-5.8809,-5.8466,-5.9362,-5.9358,-5.841,-5.8384,-5.8555,0.0,0.0,0.0,0.0,0.0,0.0,0.0,0.0,0.0,0.0,0.0,0.0,0.0,0.0,0.0,0.0,0.0,0.0,0.0,0.0,0.0,0.0,0.0,0.0,0.0,0.0,0.0,0.0,0.0,0.0,0.0,0.0,0.0,0.0,0.0,0.0,0.0,0.0,0.0,0.0,0.0,0.0,-6.5119,-6.5616,0.0,0.0,0.0,-6.4349,-6.5231,0.0,0.0,0.0,0.0,0.0,0.0,0.0,0.0,0.0,0.0,0.0,0.0,0.0,0.0,0.0,0.0,0.0,0.0,0.0,0.0,0.0,0.0,0.0,0.0,0.0,0.0,0.0,0.0,0.0,0.0,0.0,0.0,0.0,0.0,0.0,0.0,0.0,0.0,0.0,0.0,0.0,0.0,0.0,0.0,0.0,0.0,0.0,0.0,0.0,0.0,0.0,0.0,0.0,0.0,0.0,0.0,0.0,-5.7453,-5.8246,-5.8529,-5.8235,-5.9203,-5.9117,-5.7853,-5.7586,0.0,0.0,0.0,0.0,0.0,0.0,0.0,0.0,0.0,0.0,0.0,0.0,0.0,0.0,0.0,0.0,0.0,0.0,0.0,0.0,0.0,0.0,0.0,0.0,0.0,0.0,0.0,-5.7318,0.0,0.0,0.0,0.0,0.0,0.0,0.0,0.0,0.0,0.0,0.0,0.0,0.0,0.0,-6.5905,-6.5161,-6.5995,-6.6393,0.0,0.0,-6.4912,-6.4348,-6.5432,-6.5538,0.0,0.0,0.0,0.0,0.0,0.0,0.0,0.0,0.0,0.0,0.0,0.0,0.0,0.0,0.0,0.0,0.0,0.0,0.0,0.0,0.0,0.0,0.0,0.0,0.0,0.0,0.0,0.0,0.0,0.0,0.0,0.0,0.0,0.0,0.0,0.0,0.0,0.0,0.0,0.0,0.0,0.0,0.0,0.0,0.0,0.0,0.0,0.0,0.0,0.0,0.0,0.0,0.0,0.0,0.0,-5.7478,-5.7669,-5.8178,-5.8938,-5.8305,-5.7903,-5.7799,-5.6982,-5.6614,0.0,0.0,0.0,0.0,0.0,0.0,0.0,0.0,0.0,0.0,0.0,0.0,0.0,0.0,0.0,0.0,0.0,0.0,0.0,0.0,0.0,0.0,0.0,0.0,0.0,0.0,0.0,0.0,0.0,0.0,0.0,0.0,0.0,0.0,0.0,0.0,0.0,0.0,0.0,0.0,0.0,-6.4354,-6.4221,-6.5563,-6.647,0.0,0.0,-6.4982,-6.5409,-6.6252,-6.6037,-6.3634,0.0,0.0,0.0,0.0,0.0,0.0,0.0,0.0,0.0,0.0,0.0,0.0,0.0,0.0,0.0,0.0,0.0,0.0,0.0,0.0,0.0,0.0,0.0,0.0,0.0,0.0,0.0,0.0,0.0,0.0,0.0,0.0,0.0,0.0,0.0,0.0,0.0,0.0,0.0,0.0,0.0,0.0,0.0,0.0,0.0,0.0,0.0,0.0,0.0,0.0,0.0,0.0,0.0,-5.6466,-5.67,-5.6826,-5.7091,-5.7532,-5.7709,-5.7297,-5.6221,-5.5854,-5.5435,0.0,0.0,0.0,0.0,0.0,0.0,0.0,0.0,0.0,0.0,0.0,0.0,0.0,0.0,0.0,0.0,0.0,0.0,0.0,0.0,0.0,0.0,0.0,0.0,0.0,0.0,0.0,0.0,-5.7589,-5.7829,-5.847,0.0,0.0,0.0,0.0,0.0,0.0,0.0,0.0,0.0,0.0,-6.4135,-6.4076,-6.5411,0.0,0.0,-6.5845,-6.5627,-6.5705,-6.5589,-6.4923,-6.3373,-6.2566,0.0,0.0,0.0,0.0,0.0,0.0,0.0,0.0,0.0,0.0,0.0,0.0,0.0,0.0,0.0,0.0,0.0,0.0,0.0,0.0,0.0,0.0,0.0,0.0,0.0,0.0,0.0,0.0,0.0,0.0,0.0,0.0,0.0,0.0,0.0,0.0,0.0,0.0,0.0,0.0,0.0,0.0,0.0,0.0,0.0,0.0,0.0,0.0,0.0,0.0,0.0,0.0,-5.5784,-5.6256,-5.6098,-5.6197,-5.6594,-5.7153,-5.6698,-5.5276,-5.4925,-5.4371,0.0,0.0,0.0,0.0,0.0,0.0,0.0,0.0,0.0,0.0,0.0,0.0,0.0,0.0,0.0,0.0,0.0,0.0,0.0,0.0,0.0,0.0,0.0,0.0,0.0,0.0,0.0,0.0,-5.7598,-5.7828,-5.9062,0.0,0.0,0.0,0.0,0.0,0.0,0.0,0.0,0.0,0.0,-6.3097,-6.3591,-6.4683,-6.5469,-6.5393,-6.5258,-6.5098,-6.4962,-6.4653,-6.4011,-6.272,0.0,0.0,0.0,0.0,0.0,0.0,0.0,0.0,0.0,0.0,0.0,0.0,0.0,0.0,0.0,0.0,0.0,0.0,0.0,0.0,0.0,0.0,0.0,0.0,0.0,0.0,0.0,-6.525,0.0,0.0,-6.6761,0.0,0.0,0.0,0.0,0.0,0.0,0.0,0.0,0.0,0.0,0.0,0.0,0.0,0.0,0.0,0.0,0.0,0.0,0.0,0.0,0.0,0.0,-5.5267,-5.634,-5.5564,-5.5573,-5.6555,-5.6528,-5.6071,-5.5159,-5.4324,-5.3442,-5.2614,0.0,0.0,0.0,0.0,0.0,0.0,0.0,0.0,0.0,0.0,0.0,0.0,0.0,0.0,0.0,0.0,0.0,0.0,0.0,0.0,0.0,0.0,0.0,0.0,0.0,0.0,-5.9079,-5.7558,-5.7294,0.0,0.0,0.0,0.0,0.0,0.0,0.0,0.0,0.0,0.0,-6.0291,-6.0928,-6.2573,-6.3277,-6.3651,-6.3527,-6.3281,-6.3064,-6.3012,-6.3573,-6.3406,0.0,0.0,0.0,0.0,0.0,0.0,0.0,0.0,0.0,0.0,0.0,0.0,0.0,0.0,0.0,0.0,0.0,0.0,0.0,0.0,0.0,0.0,0.0,0.0,0.0,0.0,0.0,-6.3482,-6.3107,0.0,0.0,0.0,0.0,0.0,0.0,0.0,0.0,0.0,0.0,0.0,-5.3745,-5.3952,0.0,0.0,0.0,0.0,0.0,0.0,0.0,0.0,0.0,0.0,0.0,0.0,-5.4469,-5.5464,-5.4745,-5.4765,-5.569,-5.5658,-5.497,-5.3562,-5.3194,-5.2347,-5.0914,0.0,0.0,0.0,0.0,0.0,0.0,0.0,0.0,0.0,0.0,0.0,0.0,0.0,0.0,0.0,0.0,0.0,0.0,0.0,0.0,0.0,0.0,0.0,0.0,0.0,-5.9367,0.0,0.0,0.0,0.0,0.0,0.0,0.0,0.0,0.0,0.0,0.0,-5.7295,-5.8416,-5.9021,-5.9918,-6.1514,-6.2191,-6.2667,0.0,0.0,0.0,0.0,0.0,0.0,0.0,0.0,0.0,0.0,0.0,0.0,0.0,0.0,-6.6281,-6.2868,-6.2462,-6.2722,-6.2823,0.0,0.0,0.0,0.0,0.0,0.0,0.0,0.0,0.0,0.0,0.0,0.0,0.0,0.0,-6.0493,0.0,-6.1326,0.0,0.0,0.0,0.0,0.0,0.0,0.0,0.0,-5.5463,-5.3841,-5.2108,-5.2615,-5.2578,0.0,-5.2868,-5.3891,0.0,0.0,0.0,0.0,0.0,0.0,0.0,0.0,-5.3557,-5.4186,-5.3709,-5.39,-5.4779,-5.4783,-5.4099,-5.2743,-5.2033,-5.1287,-5.0446,-4.9608,-4.957,0.0,0.0,0.0,0.0,0.0,0.0,0.0,0.0,0.0,0.0,0.0,0.0,0.0,0.0,0.0,0.0,0.0,0.0,0.0,0.0,0.0,0.0,0.0,-5.8945,0.0,0.0,0.0,0.0,0.0,0.0,0.0,0.0,0.0,-5.658,-5.6398,-5.6801,-5.7959,-5.8234,-5.8923,-6.0483,0.0,0.0,0.0,0.0,0.0,0.0,0.0,-6.1701,-6.1805,-6.2324,-6.3045,-6.4177,-6.5419,-6.5901,-6.4949,0.0,0.0,-6.3409,-6.3403,-6.3796,-6.3973,-6.4679,-6.5241,-6.5332,-6.5595,-6.5896,0.0,0.0,0.0,0.0,0.0,0.0,0.0,0.0,-5.6975,-5.7351,0.0,-5.8528,0.0,0.0,0.0,0.0,0.0,-5.7862,0.0,0.0,-5.2862,-5.203,-5.1288,-5.127,-5.1256,-5.128,-5.207,-5.2068,-5.1322,-5.2684,0.0,0.0,0.0,0.0,0.0,0.0,-5.2494,-5.2578,-5.2614,-5.3029,-5.3857,-5.3865,-5.3465,-5.2623,-5.0952,-5.0395,-5.1069,-5.033,-5.0317,-5.1096,-5.2046,0.0,0.0,0.0,0.0,0.0,0.0,0.0,0.0,0.0,0.0,0.0,0.0,0.0,0.0,0.0,0.0,0.0,0.0,0.0,0.0,-5.835,0.0,0.0,0.0,0.0,0.0,0.0,0.0,0.0,0.0,0.0,-5.6308,-5.6342,-5.6998,-5.8602,0.0,0.0,0.0,0.0,-5.8091,-5.8904,-5.8851,-5.9051,-5.9847,-6.1203,-6.1911,-6.1143,0.0,0.0,-6.5955,-6.6047,-6.5644,-6.4153,-6.4101,-6.4572,-6.6368,-6.66,-6.6786,-6.6946,-6.7612,-6.8317,-6.8448,-6.8822,-6.9194,-5.6126,0.0,0.0,0.0,0.0,-5.7467,-5.6059,-5.4512,-5.4606,-5.4699,-5.487,-5.5611,0.0,0.0,0.0,0.0,0.0,0.0,-5.3942,-5.2723,-5.1348,-5.0585,-5.0349,-5.0397,-5.0034,-4.9478,-5.0327,-4.9991,-4.8677,-4.9648,-5.1031,-5.2749,0.0,0.0,0.0,0.0,-5.164,-5.1715,-5.2317,-5.2801,-5.3022,-5.3,-5.2561,-5.171,-5.0608,-5.0119,-5.0322,-4.9538,-4.9443,-5.0267,-5.1191,0.0,0.0,0.0,0.0,0.0,0.0,0.0,0.0,0.0,0.0,0.0,0.0,0.0,0.0,0.0,0.0,0.0,0.0,0.0,-5.811,-5.7947,-5.8061,0.0,0.0,0.0,0.0,0.0,0.0,0.0,0.0,0.0,-5.6298,-5.6246,-5.6667,0.0,0.0,-5.6878,-5.8431,-5.763,-5.7309,-5.8555,-5.9143,0.0,-6.0353,-6.1373,-6.2183,-6.2504,-6.4464,-6.5974,-6.6047,-6.6175,-6.5956,-6.5025,-6.5356,-6.5992,-6.6522,-6.6674,-6.6965,-6.7702,-6.9026,-7.0014,-7.0179,-6.9975,-7.0014,-5.3546,-5.5341,-5.6656,-5.6608,-5.5671,-5.5427,-5.4312,-5.2615,-5.264,-5.2852,-5.3183,-5.3631,-5.4544,-5.5777,-5.5728,0.0,0.0,0.0,-5.2752,-5.1966,-5.0998,-5.0546,-5.0496,-5.0199,-4.975,-4.9262,-4.9399,-4.8833,-4.7518,-4.8028,-4.9202,-5.0976,0.0,0.0,-5.1241,-5.1287,-5.1114,-5.0861,-5.1684,-5.2122,-5.2115,-5.2087,-5.1817,-5.1314,-5.1132,-5.1083,-5.1047,-5.0533,-5.0464,-5.0918,-5.1133,-5.1607,0.0,0.0,0.0,0.0,0.0,0.0,0.0,0.0,0.0,0.0,0.0,-5.707,-5.6599,0.0,0.0,0.0,-5.6263,-5.6764,-5.726,-5.7289,0.0,0.0,0.0,0.0,0.0,0.0,0.0,-5.6375,-5.6759,-5.6891,-5.6311,-5.6156,-5.642,-5.7265,-5.6723,-5.668,-5.7896,0.0,-5.6797,-5.7946,-5.8549,-5.9223,-6.0217,-6.1333,-6.256,-6.4068,-6.5219,-6.6047,-6.6228,-6.656,-6.6624,-6.6145,-6.652,-6.72,-6.7614,-6.7958,-6.8349,-6.9068,-7.0262,-7.1304,-7.1794,-7.1552,-7.1437,-5.2469,-5.2627,-5.4955,-5.5006,-5.363,-5.4351,-5.3377,-5.1241,-5.1302,-5.1701,-5.238,-5.2352,-5.2705,-5.3411,-5.3404,0.0,-5.2225,-5.2276,-5.1939,-5.1297,-5.1229,-5.125,-5.1273,-5.0471,-5.004,-4.9885,-4.9165,-4.8319,-4.7501,-4.7501,-4.7979,-4.8893,-4.9635,-5.0389,-5.1164,-5.1224,-5.0801,-5.0034,-5.0871,-5.1278,-5.1211,-5.1281,-5.131,-5.1314,-5.2125,-5.2548,-5.2497,-5.2575,-5.2555,-5.2378,-5.1613,-5.1609,-5.243,0.0,0.0,0.0,0.0,0.0,0.0,0.0,0.0,0.0,0.0,0.0,0.0,0.0,0.0,0.0,-5.6332,0.0,-5.6492,-5.641,0.0,0.0,0.0,-5.6295,-5.6314,-5.6342,-5.6364,-5.6302,0.0,0.0,-5.6298,-5.6086,-5.6173,-5.6975,-5.689,-5.7019,-5.7684,-5.6887,-5.6474,-5.7308,-5.746,-5.8142,-5.989,-6.1451,-6.329,-6.5407,-6.6029,-6.6059,-6.6366,-6.6886,-6.7251,-6.6758,-6.7362,-6.8218,-6.9136,-6.9964,-7.0769,-7.0976,-7.1681,-7.2494,-7.3318,-7.3399,-7.3091,-5.2457,-5.2557,-5.4389,-5.4575,-5.3674,-5.3843,-5.321,-5.2096,-5.2152,-5.1964,-5.1607,-5.1564,-5.1662,-5.1833,-5.1808,-5.1312,-5.0572,-5.0559,-5.0509,-5.0345,-4.9741,-5.0078,-5.124,-5.0475,-4.9718,-4.9045,-4.8846,-4.8312,-4.7443,-4.7497,-4.8245,-4.9652,-4.9916,-5.0126,-5.0366,-5.0345,-5.0201,-4.9971,-5.0863,-5.1278,-5.1211,-5.1281,-5.131,-5.1314,-5.155,-5.1708,-5.1713,-5.2298,-5.2263,-5.1579,-5.1935,-5.1974,-5.1491,-5.2728,0.0,0.0,0.0,0.0,0.0,0.0,0.0,0.0,0.0,-5.6241,-5.5569,0.0,-5.5677,0.0,-5.5061,-5.571,-5.6368,-5.5809,0.0,0.0,-5.5775,-5.559,-5.6245,-5.6272,-5.6245,-5.6226,-5.6226,-5.6233,-5.6291,-5.6086,-5.5923,-5.6068,-5.6314,-5.679,-5.7551,-5.6844,-5.6474,-5.727,-5.7952,-5.896,-6.0522,-6.2645,-6.448,-6.5804,-6.5609,-6.5521,-6.6269,-6.6102,-6.6084,-6.6582,-6.7462,-6.8564,-6.9995,-7.1015,-7.2126,-7.3315,-7.3844,-7.4051,-7.4332,-7.3937,-7.3423,-5.3228,-5.3657,-5.4936,-5.5201,-5.4774,-5.4326,-5.3681,-5.2906,-5.2619,-5.2212,-5.1797,-5.1456,-5.13,-5.1304,-5.1281,-5.1008,-5.0603,-5.0576,-5.0591,-5.0612,-5.0145,-5.042,-5.1245,-5.0455,-4.983,-4.9257,-4.8919,-4.8495,-4.8015,-4.8015,-4.8725,-4.9983,-4.9983,-5.0225,-5.0594,-5.0583,-5.0564,-5.0533,-5.1016,-5.104,-5.0651,-5.0672,-5.0711,-5.0729,-5.1152,-5.1547,-5.1921,-5.2341,-5.2348,-5.1852,-5.2246,-5.2053,-5.1202,-5.2374,-5.2735,0.0,0.0,0.0,0.0,0.0,0.0,0.0,0.0,0.0,0.0,0.0,-5.5385,-5.4484,-5.5146,-5.5841,-5.6297,-5.593,-5.5674,-5.5728,-5.5612,-5.5539,-5.5641,-5.5962,-5.6233,-5.6231,-5.6199,-5.6213,-5.6285,-5.6015,-5.5779,-5.572,-5.6102,-5.6692,-5.7373,-5.7074,-5.7043,-5.7854,-5.8385,-5.9414,-6.1296,-6.3058,-6.4514,-6.5325,-6.5297,-6.5318,-6.5841,-6.6243,-6.6681,-6.7256,-6.8334,-6.9643,-7.0954,-7.1628,-7.2586,-7.4036,-7.4619,-7.4533,-7.4231,-7.3514,-7.2937,-5.431,-5.5081,-5.5863,-5.6216,-5.6148,-5.532,-5.4475,-5.3543,-5.2868,-5.2469,-5.231,-5.16,-5.13,-5.1296,-5.1308,-5.1305,-5.1292,-5.1292,-5.13,-5.1307,-5.131,-5.1291,-5.125,-5.0585,-5.0175,-4.9967,-4.9235,-4.8868,-4.8864,-4.8841,-4.9313,-5.0114,-5.0157,-5.0559,-5.1277,-5.132,-5.1217,-5.1055,-5.1036,-5.067,-4.992,-4.9975,-5.0057,-5.0173,-5.0855,-5.1603,-5.2376,-5.2519,-5.2543,-5.2438,-5.2425,-5.1961,-5.1139,-5.1805,-5.1911,0.0,-5.1894,0.0,0.0,0.0,0.0,0.0,0.0,0.0,0.0,-5.5359,-5.5029,-5.5158,-5.5844,-5.6284,-5.6298,-5.6214,-5.5838,-5.5193,-5.5644,-5.5738,-5.5087,-5.5692,-5.6187,-5.6192,-5.6199,-5.6213,-5.6278,-5.5935,-5.571,-5.5738,-5.5963,-5.6421,-5.7209,-5.7362,-5.7627,-5.8461,-5.8726,-5.9696,-6.165,-6.2938,-6.392,-6.4668,-6.5209,-6.5384,-6.5503,-6.6819,-6.7982,-6.8311,-6.9506,-7.0877,-7.1973,-7.2332,-7.299,-7.4542,-7.4779,-7.45,-7.3899,-7.3283,-7.2514,-5.4854,-5.5081,-5.5863,-5.6199,-5.6185,-5.6032,-5.5048,-5.3582,-5.3441,-5.266,-5.1449,-5.1366,-5.1316,-5.1311,-5.1343,-5.138,-5.1308,-5.1308,-5.1288,-5.1289,-5.1303,-5.1308,-5.1271,-5.1132,-5.0691,-5.0023,-4.9808,-4.9759,-4.978,-4.9771,-5.0199,-5.0943,-5.1005,-5.1135,-5.1295,0.0,0.0,0.0,-5.0187,-5.0042,-4.9932,-4.9912,-5.0252,-5.0918,-5.0494,0.0,-5.1503,-5.2161,-5.2187,-5.1532,-5.2018,0.0,0.0,0.0,0.0,0.0,0.0,0.0,0.0,0.0,0.0,0.0,-5.4062,-5.4514,-5.4095,-5.4536,-5.5133,-5.5895,-5.6096,-5.6233,-5.6291,-5.567,-5.5456,-5.5881,-5.5458,-5.5358,-5.5862,-5.6064,-5.6157,-5.6192,-5.6199,-5.6213,-5.6265,-5.5973,-5.574,-5.574,-5.554,-5.5725,-5.6577,-5.7148,-5.7499,-5.7703,-5.8786,-5.9999,-6.1174,-6.2614,-6.3634,-6.4137,-6.5301,-6.6069,-6.6319,-6.7225,-6.8311,-6.8916,-7.0003,-7.1281,-7.2716,-7.3673,-7.4293,-7.5524,-7.5154,-7.4668,-7.4476,-7.4361,-7.4053,-5.5242,0.0,-5.6078,-5.6219,0.0,-5.6216,-5.5239,-5.3649,-5.3649,-5.2744,-5.1215,-5.1288,-5.1321,-5.1284,-5.1351,-5.1393,-5.1343,-5.1343,-5.1325,-5.1288,-5.1316,-5.134,-5.1317,-5.1288,-5.1073,-5.0636,-5.0657,-5.0616,-5.0593,-5.0617,-5.0801,-5.119,-5.1259,-5.1278,-5.1291,-5.0443,-5.0006,-4.997,-4.9503,-4.9227,-4.9198,-4.8816,-4.9031,-4.9847,-4.91,0.0,0.0,0.0,0.0,0.0,0.0,0.0,0.0,-5.1298,0.0,-5.0306,-5.1074,-5.1234,-5.0495,-5.1507,-5.2257,-5.2346,-5.3607,-5.4436,-5.468,-5.5122,-5.5573,-5.6064,-5.6148,-5.6216,-5.6238,-5.5824,-5.5747,-5.6139,-5.5784,-5.5684,-5.6071,-5.6125,-5.611,-5.6185,-5.6199,-5.6192,-5.617,-5.5917,-5.574,-5.5707,-5.5401,-5.5486,-5.6376,-5.7077,-5.7704,-5.8461,-5.9241,-6.0151,-6.1001,-6.2172,-6.3285,-6.3878,-6.5291,-6.6363,-6.6596,-6.7753,-6.8839,-6.9344,-7.0138,-7.1262,-7.2419,-7.314,-7.3745,-7.4553,-7.4745,-7.4707,-7.4707,-7.4399,-7.4168,-5.5625,-5.6291,-5.6291,-5.6278,-5.6181,-5.6064,-5.5022,-5.3469,0.0,0.0,0.0,-5.1284,-5.1321,-5.1284,-5.1355,-5.1401,-5.1398,-5.1401,-5.1355,-5.1332,-5.1391,-5.1362,-5.1326,-5.1324,-5.1297,-5.1291,-5.132,-5.1282,-5.1215,-5.1224,-5.1208,-5.1214,-5.119,-5.122,-5.117,-4.9582,-4.9063,-4.9698,-4.8852,-4.8344,-4.8248,-4.7645,-4.7734,-4.8555,-4.7739,-4.7706,-4.8549,-4.9259,-4.9618,-4.9657,-5.0941,-5.1289,-5.0418,-5.0955,-5.0635,-4.9188,-4.9828,-5.0106,-4.963,-5.0845,-5.1798,-5.2143,-5.3673,-5.5011,-5.5895,-5.5952,-5.5989,-5.6003,-5.6125,-5.6218,-5.6226,-5.6185,-5.6231,-5.6194,-5.6157,-5.6102,-5.6102,-5.6102,-5.6133,-5.6192,-5.6251,-5.6178,-5.6017,-5.59,-5.5788,-5.5588,-5.5376,-5.563,-5.6529,-5.7329,-5.8273,-5.9501,-5.9864,-6.0205,-6.1017,-6.1901,-6.2835,-6.3807,-6.5525,-6.6733,-6.7133,-6.8373,-6.9444,-6.9687,-7.0412,-7.129,-7.2038,-7.2476,-7.2706,-7.3538,-7.4216,-7.4716,-7.4817,-7.4509,-7.4456,-5.6149,-5.6291,-5.6291,-5.631,-5.6251,-5.5474,-5.4241,-5.263,-5.1891,-5.1434,-5.1215,-5.1288,-5.1321,-5.1284,-5.1365,-5.1406,-5.1399,-5.1406,-5.1405,-5.1395,-5.1397,-5.1398,-5.14,-5.1405,-5.1354,-5.1301,-5.132,-5.1304,-5.1282,-5.1234,-5.1208,-5.1214,-5.1214,-5.1245,-5.117,-4.9633,-4.8803,-4.8841,-4.8035,-4.7538,-4.7462,-4.7367,-4.7705,-4.852,-4.772,-4.763,-4.849,-4.9258,-4.9709,-4.9769,-5.0518,-5.0798,-5.0423,-5.0394,-5.0189,-4.9781,-4.9884,-5.0253,-5.0939,-5.1192,-5.2005,-5.3656,-5.4806,-5.5555,-5.5807,-5.5885,-5.5952,-5.5995,-5.6117,-5.6233,-5.6231,-5.6258,-5.6265,-5.6231,-5.6185,-5.6185,-5.6178,-5.6178,-5.6192,-5.6278,-5.6285,-5.6199,-5.6017,-5.5973,-5.5818,-5.5566,-5.5568,-5.5938,-5.7211,-5.8098,-5.8919,-5.969,-5.9902,-6.0259,-6.1121,-6.195,-6.2905,-6.3832,-6.5976,-6.7506,-6.7745,-6.91,-7.0224,-7.0566,-7.1175,-7.1808,-7.2129,-7.2822,-7.337,-7.4057,-7.4388,-7.4781,-7.5334,-7.597,-7.6546,-5.6219,-5.6291,-5.631,-5.629,-5.6191,-5.488,-5.3652,-5.2456,-5.1614,-5.1234,-5.1278,-5.1261,-5.1297,-5.1284,-5.1359,-5.1405,-5.1406,-5.1401,-5.1402,-5.1406,-5.1405,-5.1405,-5.1406,-5.1395,-5.1375,-5.1323,-5.1284,-5.132,-5.1287,-5.1249,-5.1224,-5.1214,-5.1224,-5.1249,-5.1209,-5.0065,-4.9438,-4.9365,-4.763,-4.7077,-4.7911,-4.7493,-4.7863,-4.9123,-4.7888,-4.7326,-4.7713,-4.8446,-4.8871,-4.8887,-4.9978,-5.0517,-5.0353,-5.0302,-5.0186,-5.0038,-5.0113,-5.0567,-5.1393,-5.2396,-5.3477,-5.475,-5.5222,-5.5473,-5.5638,-5.5703,-5.5756,-5.5768,-5.5893,-5.5982,-5.6024,-5.6163,-5.6213,-5.6209,-5.6223,-5.6199,-5.6199,-5.6199,-5.6213,-5.6278,-5.6199,-5.6094,-5.6015,-5.5875,-5.5707,-5.5538,-5.6002,-5.7,-5.8075,-5.8935,-5.9604,-5.9991,-6.0409,-6.0843,-6.1368,-6.2481,-6.342,-6.3955,-6.5788,-6.7317,-6.7944,-6.8938,-6.9663,-7.0542,-7.0853,-7.0972,-7.1385,-7.2164,-7.2813,-7.3183,-7.4044,-7.4727,-7.5616,-7.733,-7.8863,-5.6251,-5.6298,-5.629,-5.6197,-5.5897,-5.464,-5.3526,-5.2514,-5.1871,-5.149,-5.13,-5.1312,-5.1307,-5.1305,-5.1341,-5.1401,-5.1406,-5.1395,-5.1393,-5.1399,-5.1385,-5.1387,-5.1399,-5.1379,-5.1394,-5.138,-5.1366,-5.13,-5.1304,-5.1234,-5.1206,-5.1219,-5.119,-5.1215,-5.1278,-5.0447,-4.9979,-4.985,-4.7808,-4.7296,-4.8454,-4.7875,-4.8076,-4.8928,-4.8041,-4.7323,-4.7154,-4.7973,-4.8463,-4.8502,-4.9779,-5.0486,-5.0385,-5.0385,-5.0331,-5.0252,-5.0522,-5.1152,-5.2192,-5.3728,-5.4902,-5.5411,-5.539,-5.5314,-5.5351,-5.5413,-5.5485,-5.5566,-5.5748,-5.5875,-5.5921,-5.6064,-5.6223,-5.6202,-5.6216,-5.6199,-5.6213,-5.6213,-5.6219,-5.6278,-5.6132,-5.6048,-5.5938,-5.5778,-5.5714,-5.586,-5.6938,-5.8075,-5.8768,-5.9574,-6.0114,-6.0525,-6.1005,-6.1583,-6.1903,-6.3032,-6.3993,-6.4268,-6.5711,-6.7063,-6.7889,-6.833,-6.9078,-7.0417,-7.0354,-7.0483,-7.1088,-7.1675,-7.2308,-7.2839,-7.3775,-7.4878,-7.653,-7.8585,-8.0673,-5.6231,-5.6291,-5.629,-5.5869,-5.5254,-5.5082,-5.4078,-5.2676,-5.2485,-5.2017,-5.1316,-5.132,-5.1312,-5.1316,-5.1302,-5.1343,-5.1401,-5.1406,-5.1397,-5.1382,-5.1377,-5.1377,-5.138,-5.1375,-5.1408,-5.1394,-5.138,-5.1362,-5.1303,-5.1304,-5.1264,-5.1219,-5.1214,-5.1229,-5.1138,-5.0426,-5.0006,-5.0006,-4.8989,-4.8496,-4.8554,-4.8505,-4.8147,-4.7456,-4.8075,-4.7963,-4.727,-4.8616,-4.9497,-4.9606,-5.037,-5.0803,-5.0682,-5.0673,-5.0606,-5.0596,-5.1247,-5.2378,-5.3991,-5.5045,-5.5489,-5.5339,-5.5339,-5.5236,-5.5,-5.499,-5.517,-5.5411,-5.571,-5.5836,-5.5912,-5.6064,-5.6192,-5.6107,-5.6192,-5.6213,-5.6278,-5.6291,-5.6291,-5.6291,-5.6199,-5.6087,-5.5902,-5.5856,-5.6032,-5.6371,-5.763,-5.8654,-5.9018,-5.9801,-6.0675,-6.1215,-6.1499,-6.2163,-6.3238,-6.3825,-6.4398,-6.5206,-6.6092,-6.7084,-6.7937,-6.8761,-6.9725,-7.0459,-7.0679,-7.0819,-7.1583,-7.2116,-7.2609,-7.3575,-7.4391,-7.5353,-7.8038,-7.9855,-8.1078,-5.6636,-5.6272,-5.6341,-5.5896,-5.516,-5.4667,-5.3732,-5.2606,-5.206,-5.1624,-5.1343,-5.1316,-5.1316,-5.1312,-5.1297,-5.1327,-5.1343,-5.1367,-5.1402,-5.1396,-5.1384,-5.1375,-5.1375,-5.1375,-5.1408,-5.1399,-5.1383,-5.1366,-5.1307,-5.1256,-5.1249,-5.1214,-5.1208,-5.1224,-5.1172,-5.0927,-5.0741,-5.0746,-5.0378,-5.016,-5.0081,-4.9615,-4.9413,-4.9472,-4.9322,-4.9054,-4.8747,-4.9343,-4.9691,-4.9738,-5.0457,-5.0858,-5.0825,-5.0825,-5.0808,-5.0833,-5.1992,-5.3192,-5.4309,-5.5176,-5.552,-5.5301,-5.5197,-5.5099,-5.4897,-5.4383,-5.4153,-5.4444,-5.5163,-5.5486,-5.5132,-5.5711,-5.6015,-5.5627,-5.5874,-5.6213,-5.6291,-5.6291,-5.6291,-5.6285,-5.6126,-5.5926,-5.5895,-5.6049,-5.6447,-5.7049,-5.8121,-5.8958,-5.9513,-6.0387,-6.1315,-6.2175,-6.2718,-6.3276,-6.4069,-6.4566,-6.4993,-6.5427,-6.5805,-6.649,-6.7917,-6.7983,-6.8586,-7.05,-7.0511,-7.0829,-7.1862,-7.2532,-7.3123,-7.4276,-7.5914,-7.7141,-7.8996,-8.0754,-8.2264,-5.6939,-5.629,-5.6353,-5.6067,-5.5489,-5.4866,-5.397,-5.2957,-5.2294,-5.174,-5.1338,-5.1546,-5.1671,-5.1636,-5.1444,-5.1308,-5.1327,-5.1363,-5.1406,-5.1404,-5.1389,-5.1375,-5.1375,-5.1375,-5.141,-5.1401,-5.1389,-5.1372,-5.131,-5.1256,-5.1211,-5.1224,-5.1214,-5.1219,-5.1201,-5.1259,-5.1273,-5.1278,-5.122,-5.1196,-5.1097,-5.057,-5.0414,-5.0694,-5.0343,-4.9959,-4.9722,-5.014,-5.0287,-5.0055,-5.0821,-5.1138,-5.0898,-5.0898,-5.1106,-5.1636,-5.2868,-5.3974,-5.4688,-5.5292,-5.5497,-5.5249,-5.5113,-5.4956,-5.47,-5.4154,-5.386,-5.4069,-5.4867,-5.5116,-5.4265,-5.5302,-5.5746,-5.5063,-5.5666,-5.6199,-5.6285,-5.6291,-5.6291,-5.6265,-5.6032,-5.5798,-5.5864,-5.6292,-5.6958,-5.7467,-5.8479,-5.9368,-6.0053,-6.0737,-6.1535,-6.2686,-6.3441,-6.3991,-6.4435,-6.4947,-6.5397,-6.5585,-6.5771,-6.6661,-6.8035,-6.7779,-6.8139,-7.0538,-7.0214,-7.0758,-7.2225,-7.3047,-7.3904,-7.497,-7.6415,-7.8137,-7.9474,-8.1347,-8.2837,-5.6939,-5.6251,-5.6353,-5.6422,-5.639,-5.6273,-5.5372,-5.3736,-5.3693,-5.2797,-5.1511,-5.2138,-5.2528,-5.245,-5.1756,-5.1356,-5.1321,-5.143,-5.1444,-5.1405,-5.1428,-5.1414,-5.1375,-5.1375,-5.1451,-5.1525,-5.1516,-5.1419,-5.131,-5.1351,-5.1273,-5.1211,-5.1224,-5.1214,-5.1219,-5.1219,-5.1229,-5.1211,-5.1206,-5.1196,-5.1214,-5.1131,-5.0714,-5.0228,-5.0617,-5.0576,-5.0037,-5.1239,-5.1679,-5.0859,-5.1641,-5.1757,-5.1053,-5.0975,-5.1631,-5.3011,-5.3957,-5.4755,-5.5434,-5.5654,-5.5508,-5.517,-5.5113,-5.4927,-5.4522,-5.442,-5.4481,-5.4781,-5.5071,-5.4809,-5.3689,-5.507,-5.5784,-5.5055,-5.5683,-5.6178,-5.6285,-5.6291,-5.6278,-5.6199,-5.6024,-5.5808,-5.555,-5.6673,-5.7273,-5.7853,-5.9077,-6.015,-6.0241,-6.0428,-6.1273,-6.2448,-6.3165,-6.359,-6.4947,-6.5374,-6.5485,-6.5681,-6.6211,-6.719,-6.8166,-6.9052,-6.9898,-7.0692,-7.1161,-7.1909,-7.2893,-7.3926,-7.4932,-7.5859,-7.6606,-7.8022,-8.0086,-8.1117,-8.2607,-5.748,-5.6341,-5.6375,-5.6461,-5.6425,-5.5918,-5.4983,-5.3892,-5.3303,-5.2411,-5.1593,-5.2216,-5.2606,-5.2606,-5.2879,-5.2657,-5.2178,-5.2161,-5.1909,-5.1523,-5.1981,-5.223,-5.2301,-5.2767,-5.2723,-5.2208,-5.2166,-5.184,-5.1427,-5.1857,-5.1832,-5.1307,-5.1229,-5.1219,-5.119,-5.1219,-5.1214,-5.1224,-5.1224,-5.1214,-5.122,-5.122,-5.1247,-5.1423,-5.1192,-5.0913,-5.0548,-5.1678,-5.185,-5.0945,-5.1749,-5.2098,-5.1834,-5.2227,-5.2996,-5.4014,-5.4381,-5.487,-5.556,-5.5671,-5.5473,-5.513,-5.5071,-5.4897,-5.4495,-5.4118,-5.3905,-5.4078,-5.4473,-5.4172,-5.3766,-5.4909,-5.5792,-5.5134,-5.5622,-5.6202,-5.6251,-5.6278,-5.6278,-5.6178,-5.5938,-5.5572,-5.5543,-5.614,-5.6914,-5.7572,-5.8644,-5.9587,-6.0294,-6.0771,-6.1516,-6.2639,-6.3447,-6.4217,-6.5235,-6.5523,-6.5618,-6.5838,-6.6354,-6.7278,-6.8216,-6.9321,-7.0167,-7.0923,-7.1713,-7.2701,-7.353,-7.4566,-7.5629,-7.7009,-7.7717,-7.8901,-8.0926,-8.2034,-8.341,-5.73,-5.643,-5.6381,-5.6417,-5.6416,-5.5875,-5.5139,-5.4238,-5.3385,-5.2684,-5.2333,-5.2762,-5.3151,-5.3537,-5.4359,-5.4281,-5.3436,-5.3169,-5.2725,-5.2341,-5.2842,-5.3132,-5.3199,-5.3738,-5.3654,-5.3058,-5.274,-5.2266,-5.1866,-5.2341,-5.2278,-5.1754,-5.1673,-5.1618,-5.1579,-5.1325,-5.1197,-5.1197,-5.1192,-5.1303,-5.1552,-5.1591,-5.1979,-5.2601,-5.2233,-5.1923,-5.1862,-5.2443,-5.246,-5.1943,-5.2376,-5.2686,-5.2693,-5.3361,-5.4003,-5.4545,-5.4785,-5.5119,-5.5588,-5.5615,-5.5401,-5.5116,-5.4947,-5.4769,-5.4479,-5.4097,-5.3905,-5.4069,-5.4397,-5.4391,-5.4336,-5.5248,-5.5714,-5.5126,-5.566,-5.6202,-5.6213,-5.6278,-5.6245,-5.6048,-5.5789,-5.5493,-5.5364,-5.5912,-5.6668,-5.7539,-5.8406,-5.9326,-6.0208,-6.0786,-6.1669,-6.2701,-6.3413,-6.4259,-6.5322,-6.5929,-6.6225,-6.6444,-6.7009,-6.7766,-6.8562,-6.9577,-7.0489,-7.1231,-7.2174,-7.3185,-7.4172,-7.5204,-7.6568,-7.8099,-7.9016,-7.9933,-8.1614,-8.3066,-8.4059,-5.6301,-5.6304,-5.6364,-5.6407,-5.6402,-5.6377,-5.5957,-5.5026,-5.4242,-5.3771,-5.3615,-5.3849,-5.4281,-5.51,-5.5801,-5.5883,-5.5089,-5.4374,-5.3936,-5.3789,-5.3937,-5.3998,-5.4025,-5.4209,-5.4203,-5.3967,-5.3136,-5.2701,-5.2704,-5.2721,-5.2653,-5.2542,-5.2315,-5.2173,-5.2425,-5.1581,-5.1208,-5.1202,-5.1208,-5.1552,-5.2251,-5.229,-5.2756,-5.3578,-5.365,-5.3631,-5.3715,-5.3659,-5.3545,-5.3453,-5.3491,-5.3506,-5.3605,-5.4223,-5.4631,-5.4805,-5.5304,-5.5637,-5.5654,-5.5497,-5.5314,-5.5088,-5.4859,-5.4661,-5.4549,-5.4565,-5.4663,-5.4933,-5.5212,-5.5439,-5.5574,-5.5845,-5.5775,-5.5157,-5.5746,-5.6209,-5.6265,-5.6285,-5.617,-5.5873,-5.5679,-5.5504,-5.5492,-5.5957,-5.682,-5.7815,-5.8582,-5.9373,-6.0203,-6.0637,-6.1249,-6.2462,-6.3542,-6.4507,-6.5496,-6.637,-6.6806,-6.7203,-6.7922,-6.8641,-6.9333,-7.0244,-7.1066,-7.1898,-7.3375,-7.442,-7.5697,-7.6703,-7.7658,-7.8978,-7.9895,-8.0964,-8.234,-8.3639,-8.4174,-5.6728,-5.6337,-5.6302,-5.6368,-5.639,-5.6416,-5.5961,-5.5213,-5.4878,-5.4472,-5.4082,-5.4511,-5.494,-5.5333,-5.6113,-5.634,-5.6074,-5.5784,-5.5061,-5.4217,-5.4604,-5.4857,-5.4957,-5.5416,-5.5416,-5.4864,-5.4528,-5.4102,-5.3646,-5.355,-5.3214,-5.2614,-5.2035,-5.1653,-5.1701,-5.1325,-5.1225,-5.1202,-5.1202,-5.1591,-5.2329,-5.2407,-5.3106,-5.4427,-5.4582,-5.4848,-5.5424,-5.4899,-5.4245,-5.3691,-5.4141,-5.4452,-5.4542,-5.5064,-5.5471,-5.5499,-5.5612,-5.5703,-5.5682,-5.5497,-5.5288,-5.5088,-5.4859,-5.473,-5.4619,-5.4673,-5.4822,-5.5116,-5.5364,-5.5593,-5.5776,-5.5923,-5.5866,-5.5667,-5.5994,-5.6226,-5.6216,-5.6172,-5.5999,-5.5808,-5.5594,-5.5655,-5.6052,-5.6456,-5.7076,-5.8353,-5.8901,-5.9373,-6.0217,-6.0828,-6.1593,-6.2677,-6.3761,-6.497,-6.6033,-6.7138,-6.7883,-6.8166,-6.8717,-6.9231,-6.9923,-7.095,-7.1772,-7.3,-7.4435,-7.5715,-7.7041,-7.8022,-7.8863,-8.0009,-8.1098,-8.2206,-8.3295,-8.4059,-8.4651,-5.6939,-5.6297,-5.6284,-5.6352,-5.6377,-5.6398,-5.6147,-5.5638,-5.5346,-5.5061,-5.4983,-5.5061,-5.5407,-5.5727,-5.6293,-5.6485,-5.6482,-5.6501,-5.593,-5.5077,-5.5465,-5.576,-5.5743,-5.6238,-5.6274,-5.5725,-5.5357,-5.497,-5.4479,-5.4378,-5.4086,-5.3529,-5.2987,-5.2563,-5.2222,-5.2158,-5.2047,-5.1752,-5.1979,-5.2523,-5.3222,-5.3378,-5.4038,-5.5242,-5.5476,-5.5747,-5.6214,-5.5747,-5.5217,-5.4781,-5.5094,-5.532,-5.5332,-5.5718,-5.5914,-5.5885,-5.5825,-5.5735,-5.5692,-5.5425,-5.5223,-5.5061,-5.4784,-5.4635,-5.4689,-5.4752,-5.4903,-5.5157,-5.5449,-5.5671,-5.5797,-5.5923,-5.6003,-5.6037,-5.6102,-5.6226,-5.6241,-5.6094,-5.5956,-5.5866,-5.5901,-5.6165,-5.6447,-5.6954,-5.7472,-5.8776,-5.9068,-5.9359,-6.0255,-6.1058,-6.1936,-6.2997,-6.4298,-6.5479,-6.6696,-6.7815,-6.8948,-6.9231,-6.9475,-6.9808,-7.0256,-7.1657,-7.2737,-7.4385,-7.5895,-7.6804,-7.8053,-7.8823,-7.9665,-8.0984,-8.2206,-8.3103,-8.4019,-8.4668,-8.5202,-5.7033,-5.6388,-5.6375,-5.6481,-5.6519,-5.6456,-5.6407,-5.6316,-5.5684,-5.5723,-5.6113,-5.5645,-5.5723,-5.6324,-5.6482,-5.6506,-5.6482,-5.6478,-5.6445,-5.6326,-5.6477,-5.6468,-5.6458,-5.6477,-5.643,-5.6313,-5.5686,-5.5338,-5.5301,-5.5129,-5.5188,-5.4975,-5.4671,-5.4514,-5.3672,-5.3713,-5.3219,-5.269,-5.3228,-5.3922,-5.4731,-5.4848,-5.5275,-5.6168,-5.6168,-5.6207,-5.6253,-5.6214,-5.6201,-5.616,-5.6017,-5.5978,-5.6062,-5.6033,-5.5961,-5.5914,-5.5855,-5.5766,-5.5621,-5.5339,-5.5102,-5.5061,-5.4714,-5.4493,-5.4673,-5.4799,-5.5004,-5.5236,-5.5554,-5.5797,-5.5847,-5.5941,-5.6029,-5.6117,-5.6164,-5.6216,-5.6272,-5.6102,-5.5917,-5.5953,-5.6329,-5.6789,-5.6804,-5.7453,-5.8293,-5.8981,-5.9324,-5.9759,-6.0485,-6.1363,-6.2089,-6.3423,-6.5116,-6.6451,-6.7759,-6.8803,-6.9846,-7.0,-7.0294,-7.0689,-7.1175,-7.2538,-7.3952,-7.5633,-7.7284,-7.8168,-7.9062,-8.0044,-8.0889,-8.1976,-8.3005,-8.3824,-8.451,-8.5103,-8.5411,-5.8234,-5.801,-5.7482,-5.7298,-5.725,-5.669,-5.645,-5.6461,-5.6281,-5.6234,-5.6429,-5.6269,-5.6234,-5.6476,-5.6488,-5.6477,-5.6502,-5.6521,-5.6522,-5.6556,-5.6588,-5.6619,-5.661,-5.6516,-5.6514,-5.6519,-5.6241,-5.6163,-5.617,-5.5572,-5.5285,-5.5152,-5.4695,-5.4199,-5.3813,-5.3862,-5.3675,-5.3452,-5.3584,-5.4142,-5.4854,-5.497,-5.5359,-5.6135,-5.6213,-5.6265,-5.6291,-5.6291,-5.6278,-5.6199,-5.6185,-5.6141,-5.6086,-5.6059,-5.6007,-5.5952,-5.5875,-5.5787,-5.5703,-5.5351,-5.5102,-5.5047,-5.4683,-5.4455,-5.4673,-5.4829,-5.5064,-5.5364,-5.5671,-5.5856,-5.5977,-5.6037,-5.6094,-5.6156,-5.6216,-5.6238,-5.6206,-5.604,-5.5827,-5.5885,-5.6372,-5.6945,-5.7569,-5.8268,-5.9109,-5.9797,-6.0102,-6.0332,-6.1172,-6.218,-6.315,-6.4791,-6.6356,-6.7616,-6.8838,-6.9882,-7.0577,-7.0731,-7.1151,-7.1785,-7.2577,-7.3791,-7.5173,-7.6661,-7.8645,-7.9807,-8.0826,-8.1804,-8.2569,-8.3023,-8.3613,-8.4317,-8.4833,-8.5408,-8.5411,-5.9049,-5.863,-5.7896,-5.7653,-5.758,-5.6787,-5.6429,-5.6471,-5.6503,-5.648,-5.6472,-5.6507,-5.648,-5.651,-5.6477,-5.6506,-5.6481,-5.6522,-5.6553,-5.6585,-5.6621,-5.6616,-5.6606,-5.6558,-5.656,-5.6604,-5.6558,-5.656,-5.6484,-5.6006,-5.5798,-5.5701,-5.5255,-5.4796,-5.4446,-5.4743,-5.463,-5.4441,-5.4574,-5.5054,-5.545,-5.5468,-5.5655,-5.6153,-5.6231,-5.6231,-5.6265,-5.6285,-5.6285,-5.6265,-5.6206,-5.617,-5.6149,-5.6062,-5.6051,-5.6018,-5.5905,-5.5855,-5.5724,-5.5364,-5.5102,-5.5004,-5.4698,-5.4554,-5.4698,-5.4933,-5.5199,-5.5461,-5.5745,-5.5932,-5.6046,-5.611,-5.6148,-5.6192,-5.6213,-5.6213,-5.6192,-5.6313,-5.6281,-5.6456,-5.7031,-5.781,-5.8383,-5.9109,-5.995,-6.0637,-6.0867,-6.1363,-6.2051,-6.3188,-6.4288,-6.5738,-6.7242,-6.8541,-6.9289,-7.0165,-7.0997,-7.1175,-7.2863,-7.3353,-7.4335,-7.5469,-7.6958,-7.8497,-8.0113,-8.1438,-8.2338,-8.3066,-8.339,-8.3824,-8.4279,-8.4597,-8.5055,-8.5325,-8.5367,-5.9669,-5.8901,-5.8168,-5.7836,-5.7766,-5.6922,-5.655,-5.6468,-5.6471,-5.65,-5.6484,-5.648,-5.6475,-5.6477,-5.6508,-5.6483,-5.6482,-5.6548,-5.6612,-5.661,-5.6616,-5.6616,-5.661,-5.6608,-5.6606,-5.6606,-5.6604,-5.6604,-5.6565,-5.6477,-5.6464,-5.6332,-5.6351,-5.6012,-5.5476,-5.5887,-5.5857,-5.5425,-5.5719,-5.5967,-5.6084,-5.605,-5.6107,-5.6146,-5.6202,-5.6209,-5.6238,-5.6265,-5.6285,-5.6291,-5.6258,-5.6231,-5.6187,-5.6141,-5.6084,-5.6007,-5.5943,-5.5885,-5.5756,-5.5401,-5.5102,-5.5033,-5.4723,-5.4571,-5.473,-5.5023,-5.5338,-5.5511,-5.5798,-5.6003,-5.6125,-5.6194,-5.6238,-5.6251,-5.6304,-5.6333,-5.6303,-5.6714,-5.703,-5.7048,-5.8234,-5.8932,-5.9324,-5.9897,-6.0776,-6.1129,-6.1526,-6.2175,-6.2968,-6.4058,-6.5097,-6.6174,-6.7731,-6.9351,-6.9893,-7.0396,-7.1084,-7.1794,-7.4331,-7.5625,-7.6561,-7.7764,-7.9173,-8.0591,-8.1553,-8.2548,-8.3523,-8.4003,-8.4037,-8.4372,-8.4631,-8.485,-8.5073,-8.5138,-8.5202,-6.091,-6.0685,-5.9915,-5.9199,-5.8581,-5.7715,-5.7006,-5.6459,-5.6515,-5.6546,-5.6488,-5.6491,-5.648,-5.6508,-5.6561,-5.6483,-5.6519,-5.6619,-5.6606,-5.6606,-5.6616,-5.6619,-5.6618,-5.6618,-5.6614,-5.6608,-5.6606,-5.6604,-5.6604,-5.6563,-5.6555,-5.65,-5.6485,-5.6425,-5.6246,-5.6212,-5.6334,-5.6108,-5.6242,-5.6278,-5.6226,-5.6223,-5.6194,-5.6187,-5.618,-5.6202,-5.6231,-5.6206,-5.6265,-5.6285,-5.6285,-5.6258,-5.6185,-5.6187,-5.6141,-5.6076,-5.6007,-5.5933,-5.5835,-5.5485,-5.5197,-5.5099,-5.4837,-5.4673,-5.472,-5.5078,-5.535,-5.5531,-5.5788,-5.6029,-5.6157,-5.6238,-5.6304,-5.6414,-5.6745,-5.7,-5.6946,-5.7033,-5.7394,-5.7881,-5.854,-5.9081,-5.914,-6.0423,-6.1148,-6.1544,-6.2207,-6.2909,-6.39,-6.4953,-6.5968,-6.6984,-6.8388,-6.9931,-7.0406,-7.1046,-7.2057,-7.323,-7.5671,-7.7607,-7.8541,-7.9686,-8.0983,-8.188,-8.2587,-8.3467,-8.3926,-8.4059,-8.39,-8.4462,-8.4774,-8.4632,-8.455,-8.4785,-8.4958,-6.1297,-6.1228,-6.042,-5.9866,-5.941,-5.8576,-5.7751,-5.7126,-5.7081,-5.6875,-5.6545,-5.648,-5.6507,-5.6522,-5.6874,-5.6949,-5.6705,-5.7006,-5.7192,-5.7196,-5.7205,-5.721,-5.7054,-5.6783,-5.6627,-5.6614,-5.6608,-5.6606,-5.6604,-5.6604,-5.656,-5.6509,-5.6497,-5.6482,-5.6496,-5.6472,-5.6446,-5.6373,-5.6381,-5.6302,-5.6253,-5.6216,-5.6149,-5.6133,-5.6141,-5.6172,-5.6209,-5.6231,-5.6258,-5.6285,-5.6291,-5.6278,-5.6206,-5.6216,-5.618,-5.6078,-5.6012,-5.5971,-5.5855,-5.5497,-5.5197,-5.5127,-5.4875,-5.4736,-5.4791,-5.513,-5.5413,-5.5554,-5.5778,-5.6046,-5.6211,-5.6251,-5.6388,-5.6752,-5.7087,-5.7532,-5.8004,-5.816,-5.8247,-5.8655,-5.9251,-5.9817,-6.0408,-6.1179,-6.2018,-6.262,-6.2979,-6.3734,-6.487,-6.5939,-6.6931,-6.8,-6.9327,-7.0343,-7.0843,-7.1809,-7.3214,-7.4941,-7.7264,-7.8902,-8.0119,-8.136,-8.266,-8.2892,-8.2875,-8.3142,-8.3505,-8.3615,-8.3475,-8.3502,-8.3585,-8.3731,-8.3899,-8.3974,-8.4171,-6.1422,-6.1236,-6.0575,-6.0268,-6.0055,-5.9405,-5.8647,-5.7953,-5.7925,-5.7512,-5.6829,-5.6694,-5.6833,-5.6873,-5.7417,-5.7368,-5.7278,-5.7194,-5.7426,-5.7975,-5.7521,-5.7563,-5.7444,-5.702,-5.6631,-5.6621,-5.6614,-5.6608,-5.6606,-5.6604,-5.6563,-5.6511,-5.6506,-5.6494,-5.651,-5.6492,-5.6472,-5.6398,-5.6402,-5.6331,-5.6284,-5.6238,-5.6149,-5.6046,-5.6046,-5.6125,-5.6172,-5.6209,-5.6206,-5.6278,-5.6291,-5.6278,-5.6213,-5.6199,-5.617,-5.6133,-5.6046,-5.6007,-5.5827,-5.5458,-5.5159,-5.5088,-5.4852,-5.4767,-5.4867,-5.5183,-5.5449,-5.5643,-5.5876,-5.6078,-5.6187,-5.6523,-5.6813,-5.7195,-5.7417,-5.8192,-5.9077,-5.9458,-5.9435,-5.9431,-5.9984,-6.0613,-6.1164,-6.182,-6.2749,-6.3619,-6.3939,-6.4482,-6.5581,-6.6719,-6.7597,-6.8489,-6.9648,-7.1137,-7.1751,-7.3353,-7.4686,-7.6402,-7.875,-7.9923,-8.1018,-8.1292,-8.2005,-8.2642,-8.2778,-8.2778,-8.2605,-8.2429,-8.2326,-8.2314,-8.2564,-8.2914,-8.3104,-8.3202,-8.3452,-6.1895,-6.1314,-6.1204,-6.0773,-6.0171,-6.0002,-5.9515,-5.8799,-5.8776,-5.8325,-5.7541,-5.7533,-5.7499,-5.7606,-5.7672,-5.8055,-5.8285,-5.7855,-5.7777,-5.8404,-5.783,-5.7365,-5.7716,-5.7016,-5.6665,-5.6623,-5.6618,-5.6614,-5.6606,-5.6604,-5.6604,-5.6563,-5.6514,-5.6503,-5.6488,-5.6475,-5.6484,-5.6416,-5.6417,-5.6342,-5.6296,-5.6245,-5.6141,-5.602,-5.6029,-5.6046,-5.6125,-5.6172,-5.6209,-5.6206,-5.6278,-5.6285,-5.6278,-5.6219,-5.6216,-5.6172,-5.6086,-5.6051,-5.5847,-5.5504,-5.5275,-5.5143,-5.4912,-5.4867,-5.5042,-5.5301,-5.5543,-5.5797,-5.5977,-5.618,-5.6223,-5.6815,-5.7278,-5.7644,-5.8355,-5.9143,-5.9468,-5.9894,-6.0223,-6.0217,-6.0833,-6.1446,-6.2026,-6.2566,-6.3343,-6.4099,-6.4511,-6.4787,-6.5413,-6.6704,-6.7918,-6.881,-6.9739,-7.1339,-7.276,-7.4752,-7.6458,-7.7856,-7.9622,-8.0503,-8.1144,-8.0655,-8.095,-8.1225,-8.144,-8.1345,-8.1209,-8.1147,-8.1381,-8.1496,-8.1824,-8.2112,-8.2112,-8.2149,-8.2944,-6.2419,-6.2043,-6.2076,-6.159,-6.0882,-6.0812,-6.0365,-5.9664,-5.9624,-5.8913,-5.8059,-5.7812,-5.7845,-5.795,-5.8328,-5.8948,-5.9222,-5.8558,-5.8675,-5.9263,-5.8568,-5.8064,-5.8261,-5.7249,-5.7015,-5.6976,-5.6858,-5.6619,-5.6608,-5.6612,-5.661,-5.6604,-5.656,-5.655,-5.6497,-5.6478,-5.6457,-5.6468,-5.6432,-5.6397,-5.6319,-5.6251,-5.6149,-5.6062,-5.602,-5.6037,-5.607,-5.6133,-5.618,-5.6192,-5.6219,-5.6272,-5.6278,-5.6272,-5.6245,-5.6187,-5.6157,-5.6076,-5.5895,-5.5566,-5.5237,-5.513,-5.4965,-5.4867,-5.5033,-5.5301,-5.5621,-5.5913,-5.6101,-5.641,-5.6859,-5.7359,-5.7831,-5.8479,-5.9253,-5.9711,-6.0022,-6.0592,-6.0933,-6.1096,-6.1344,-6.201,-6.2917,-6.3473,-6.4013,-6.454,-6.5029,-6.5298,-6.5475,-6.6842,-6.8325,-6.9136,-7.0115,-7.185,-7.353,-7.5514,-7.7474,-7.9055,-8.011,-8.0987,-8.0867,-8.019,-7.9592,-7.9411,-7.9548,-7.955,-7.9754,-7.9706,-8.0163,-8.0583,-8.0606,-8.0688,-8.0868,-8.1259,-8.2151,-6.2776,-6.2708,-6.258,-6.2106,-6.1465,-6.1412,-6.1058,-6.0544,-6.0538,-5.9586,-5.8137,-5.8125,-5.8155,-5.8263,-5.8799,-5.9573,-6.0432,-5.9456,-5.9417,-6.0237,-5.9462,-5.9078,-5.8884,-5.8107,-5.7521,-5.7906,-5.7331,-5.6858,-5.6885,-5.6694,-5.6614,-5.6608,-5.6604,-5.6555,-5.6494,-5.6485,-5.6503,-5.6476,-5.6446,-5.6417,-5.6353,-5.6258,-5.6164,-5.6117,-5.6037,-5.6029,-5.6054,-5.6109,-5.6157,-5.617,-5.6199,-5.6219,-5.6285,-5.6291,-5.6265,-5.6209,-5.6226,-5.6084,-5.5876,-5.5599,-5.5313,-5.5143,-5.4941,-5.4927,-5.5061,-5.535,-5.5717,-5.6029,-5.642,-5.6713,-5.7288,-5.8016,-5.8759,-5.9523,-6.0102,-6.055,-6.1031,-6.153,-6.1989,-6.2075,-6.1993,-6.2559,-6.3558,-6.4152,-6.467,-6.4991,-6.5496,-6.5795,-6.6178,-6.7516,-6.8778,-6.9483,-7.0609,-7.2416,-7.4155,-7.6023,-7.7856,-7.9508,-8.0195,-8.0839,-8.0271,-7.9497,-7.8808,-7.7883,-7.7354,-7.7412,-7.7762,-7.8284,-7.8674,-7.8964,-7.9131,-7.9453,-7.991,-8.0739,-8.1705,-6.2786,-6.2741,-6.2001,-6.1556,-6.1426,-6.1412,-6.1396,-6.1334,-6.1335,-6.0489,-5.8923,-5.8945,-5.8939,-5.8931,-5.8996,-6.0041,-6.0432,-5.9534,-5.9534,-6.09,-5.9966,-5.9575,-5.9966,-5.9302,-5.8642,-5.8681,-5.8071,-5.7755,-5.7395,-5.6889,-5.6616,-5.6608,-5.6682,-5.6558,-5.65,-5.6644,-5.6471,-5.6527,-5.6489,-5.6397,-5.6317,-5.6231,-5.6164,-5.6117,-5.6037,-5.6012,-5.6029,-5.6054,-5.6133,-5.6187,-5.6223,-5.6258,-5.6285,-5.6291,-5.6272,-5.6238,-5.6187,-5.6117,-5.5923,-5.5675,-5.5425,-5.5197,-5.5057,-5.5042,-5.5363,-5.5758,-5.6145,-5.6084,-5.6807,-5.7459,-5.8054,-5.9353,-6.0248,-6.0988,-6.1618,-6.2119,-6.2529,-6.2433,-6.2892,-6.3312,-6.3282,-6.3596,-6.4237,-6.4756,-6.5236,-6.5572,-6.5909,-6.63,-6.6865,-6.8112,-6.939,-7.0171,-7.1156,-7.2881,-7.4575,-7.6465,-7.7926,-7.9668,-7.9973,-8.0235,-7.9334,-7.8355,-7.7278,-7.6431,-7.5848,-7.5794,-7.6592,-7.7059,-7.7214,-7.7801,-7.8519,-7.8883,-7.9152,-8.0117,-8.1368,-6.2687,-6.3471,-6.2606,-6.1906,-6.1419,-6.1412,-6.1441,-6.15,-6.1534,-6.0921,-5.9903,-5.9336,-5.9174,-5.9086,-5.9115,-6.0085,-6.1017,-5.9924,-6.008,-6.1174,-6.051,-6.008,-6.008,-5.9573,-5.9102,-5.9146,-5.8726,-5.822,-5.7785,-5.7127,-5.6623,-5.6684,-5.6994,-5.6985,-5.6809,-5.7034,-5.717,-5.7217,-5.7099,-5.6819,-5.6452,-5.6251,-5.6211,-5.6149,-5.6084,-5.6059,-5.6051,-5.602,-5.6117,-5.6164,-5.6202,-5.6238,-5.6278,-5.6291,-5.6285,-5.6272,-5.6209,-5.6117,-5.5902,-5.5728,-5.5446,-5.5223,-5.5127,-5.5372,-5.5987,-5.6837,-5.7362,-5.7653,-5.7854,-5.8338,-5.9079,-6.022,-6.1142,-6.1939,-6.281,-6.2946,-6.3255,-6.3609,-6.3809,-6.4206,-6.4649,-6.4925,-6.5238,-6.5848,-6.6329,-6.665,-6.6987,-6.727,-6.7706,-6.841,-6.9747,-7.1014,-7.2071,-7.3336,-7.4981,-7.6723,-7.7758,-7.8999,-7.8895,-7.8859,-7.8101,-7.7122,-7.6179,-7.5372,-7.477,-7.4961,-7.5607,-7.6169,-7.6738,-7.7455,-7.8209,-7.8832,-7.9475,-8.0225,-8.1565,-6.2421,-6.3655,-6.2854,-6.2067,-6.1419,-6.1412,-6.146,-6.1525,-6.1576,-6.1044,-6.0066,-5.9258,-5.8822,-5.8815,-5.8889,-5.9626,-6.1217,-6.0475,-6.0863,-6.1095,-6.1134,-6.0783,-6.0666,-6.0078,-5.9883,-5.969,-5.9544,-5.9193,-5.8529,-5.7791,-5.7285,-5.6918,-5.7426,-5.7568,-5.7509,-5.7769,-5.8106,-5.8013,-5.7702,-5.7281,-5.6819,-5.6653,-5.6604,-5.6521,-5.6435,-5.6338,-5.6338,-5.6051,-5.6054,-5.6164,-5.6218,-5.6223,-5.6278,-5.6291,-5.6291,-5.6272,-5.6223,-5.6133,-5.595,-5.5738,-5.5381,-5.5135,-5.5327,-5.5777,-5.6629,-5.7863,-5.8621,-5.8506,-5.9129,-5.9775,-6.0632,-6.1158,-6.2234,-6.3,-6.3598,-6.3566,-6.3623,-6.4091,-6.4496,-6.4802,-6.5375,-6.6139,-6.6544,-6.7079,-6.7515,-6.7782,-6.805,-6.8279,-6.8738,-6.9196,-7.008,-7.1422,-7.2289,-7.3343,-7.4638,-7.6242,-7.7457,-7.8277,-7.8134,-7.765,-7.6933,-7.6297,-7.5542,-7.4713,-7.4087,-7.4561,-7.5436,-7.5888,-7.6339,-7.7279,-7.8232,-7.9274,-8.0057,-8.0858,-8.2114,-6.1977,-6.2812,-6.1982,-6.155,-6.1412,-6.1412,-6.149,-6.158,-6.1591,-6.0707,-5.9374,-5.8515,-5.8201,-5.8043,-5.8273,-5.897,-6.0446,-5.9587,-6.0206,-6.11,-6.1601,-6.1369,-6.1213,-6.1174,-6.1252,-6.1056,-6.0597,-6.0245,-5.9929,-5.9037,-5.8371,-5.7896,-5.8204,-5.8424,-5.8598,-5.878,-5.8831,-5.8666,-5.8237,-5.7854,-5.7585,-5.7444,-5.7402,-5.738,-5.7327,-5.7279,-5.724,-5.6463,-5.6054,-5.6211,-5.6218,-5.6255,-5.6278,-5.6291,-5.633,-5.6511,-5.6463,-5.6343,-5.6197,-5.5797,-5.5113,-5.4791,-5.5213,-5.6269,-5.7013,-5.7731,-5.8335,-5.9103,-6.0036,-6.0668,-6.1512,-6.2413,-6.3389,-6.3958,-6.4364,-6.4556,-6.4626,-6.4817,-6.5184,-6.5452,-6.5987,-6.6636,-6.7439,-6.7897,-6.8356,-6.8661,-6.9273,-6.954,-6.996,-7.0419,-7.0811,-7.1638,-7.235,-7.3173,-7.3972,-7.5332,-7.6776,-7.7414,-7.7468,-7.6781,-7.5941,-7.5357,-7.4923,-7.479,-7.4402,-7.4857,-7.5506,-7.6598,-7.7389,-7.7623,-7.8425,-7.9796,-8.1655,-8.3153,-8.4235,-6.2049,-6.1918,-6.1525,-6.1394,-6.1412,-6.1412,-6.1456,-6.1584,-6.1559,-6.067,-5.918,-5.8828,-5.8397,-5.8005,-5.7926,-5.847,-5.9479,-5.9322,-5.9631,-6.0057,-6.0561,-6.0833,-6.1026,-6.1293,-6.1408,-6.1134,-6.0944,-6.0475,-5.9534,-5.9812,-5.9812,-5.9456,-5.9332,-5.912,-5.9336,-5.9584,-5.9551,-5.9255,-5.9098,-5.8988,-5.842,-5.8344,-5.8295,-5.8287,-5.756,-5.7442,-5.724,-5.6463,-5.6225,-5.6195,-5.6218,-5.6308,-5.6395,-5.6408,-5.668,-5.7029,-5.7014,-5.6916,-5.6626,-5.6107,-5.5355,-5.5248,-5.605,-5.7177,-5.7639,-5.8902,-6.005,-6.0779,-6.118,-6.1743,-6.2924,-6.3509,-6.4062,-6.4672,-6.5047,-6.5322,-6.5452,-6.549,-6.5605,-6.5757,-6.6254,-6.6904,-6.7744,-6.8585,-6.9043,-6.954,-7.0228,-7.0839,-7.1145,-7.1472,-7.1842,-7.221,-7.2846,-7.3783,-7.4617,-7.5484,-7.6284,-7.6533,-7.6781,-7.6245,-7.5607,-7.4827,-7.4498,-7.449,-7.4864,-7.5357,-7.6279,-7.7777,-7.8427,-7.8511,-7.9393,-8.0715,-8.2771,-8.5224,-8.6194,-6.2274,-6.1713,-6.1398,-6.1344,-6.1412,-6.1412,-6.1456,-6.1584,-6.1595,-6.071,-5.9219,-5.8945,-5.832,-5.7694,-5.7538,-5.7966,-5.8549,-5.8704,-5.8897,-5.9324,-5.975,-6.0137,-6.0524,-6.087,-6.11,-6.09,-6.1174,-6.0937,-6.0234,-6.0583,-6.0659,-6.0732,-6.072,-6.0353,-6.0226,-6.0309,-6.0356,-6.0059,-5.9838,-5.9993,-5.9269,-5.9212,-5.917,-5.9163,-5.8645,-5.818,-5.7768,-5.7077,-5.6427,-5.6389,-5.6458,-5.6611,-5.677,-5.6952,-5.7379,-5.7677,-5.7843,-5.7707,-5.7151,-5.6598,-5.582,-5.5617,-5.7044,-5.7949,-5.8818,-6.014,-6.1327,-6.1857,-6.2278,-6.2989,-6.4149,-6.4306,-6.4572,-6.5083,-6.5215,-6.5413,-6.5605,-6.5681,-6.5834,-6.5987,-6.6827,-6.7859,-6.8547,-6.9502,-7.0228,-7.0724,-7.1336,-7.1833,-7.2024,-7.2389,-7.2737,-7.3105,-7.353,-7.4524,-7.5529,-7.5944,-7.6227,-7.6058,-7.6212,-7.6178,-7.557,-7.4857,-7.4439,-7.4539,-7.5047,-7.5753,-7.7007,-7.8474,-7.9019,-7.9259,-8.0811,-8.2814,-8.4901,-8.7193,-8.771,-6.2555,-6.2461,-6.1686,-6.1415,-6.149,-6.1419,-6.1501,-6.1591,-6.1569,-6.0753,-5.9336,-5.8594,-5.7773,-5.7148,-5.7265,-5.7734,-5.8162,-5.824,-5.8434,-5.8938,-5.9249,-5.9673,-6.0098,-6.0485,-6.0946,-6.1525,-6.1679,-6.1562,-6.1403,-6.159,-6.1624,-6.1729,-6.1751,-6.1537,-6.1513,-6.1556,-6.1505,-6.1301,-6.0594,-6.0287,-6.0132,-6.0105,-6.0092,-6.0,-5.9738,-5.9235,-5.8661,-5.7846,-5.7195,-5.6877,-5.7016,-5.7208,-5.7379,-5.7813,-5.8163,-5.8428,-5.8474,-5.8007,-5.7197,-5.684,-5.6549,-5.6268,-5.7601,-5.8806,-5.9559,-6.085,-6.2188,-6.2594,-6.3258,-6.388,-6.4397,-6.4664,-6.5013,-6.5236,-6.5329,-6.5413,-6.5605,-6.6025,-6.6178,-6.6483,-6.7897,-6.9234,-6.9769,-7.0457,-7.1298,-7.1947,-7.252,-7.2826,-7.2941,-7.3115,-7.3441,-7.3618,-7.3947,-7.4522,-7.5323,-7.5894,-7.6122,-7.5875,-7.578,-7.5893,-7.5908,-7.5591,-7.5206,-7.4927,-7.6063,-7.7588,-7.8355,-7.9199,-8.0697,-8.2499,-8.3688,-8.5522,-8.7559,-8.8775,-8.9064,-6.3321,-6.3313,-6.3025,-6.2593,-6.216,-6.1642,-6.1515,-6.1602,-6.1577,-6.1015,-6.0117,-5.9648,-5.9101,-5.8555,-5.8242,-5.8398,-5.8633,-5.871,-5.8905,-5.8397,-5.8903,-5.9211,-5.9675,-6.0254,-6.0872,-6.1488,-6.1718,-6.1713,-6.1627,-6.2125,-6.247,-6.2574,-6.2863,-6.2656,-6.2054,-6.1948,-6.2151,-6.1551,-6.1172,-6.0974,-6.0948,-6.0928,-6.0914,-6.0868,-6.0413,-5.9963,-5.9514,-5.8661,-5.8087,-5.7613,-5.7744,-5.756,-5.7515,-5.7755,-5.7606,-5.7839,-5.787,-5.7419,-5.7224,-5.7264,-5.754,-5.7416,-5.7963,-5.942,-6.0358,-6.1221,-6.2297,-6.3246,-6.3828,-6.4367,-6.472,-6.4927,-6.521,-6.5274,-6.5352,-6.5398,-6.5605,-6.6216,-6.6674,-6.7056,-6.8088,-6.9731,-7.0686,-7.1336,-7.2176,-7.2941,-7.3514,-7.359,-7.3667,-7.3743,-7.3955,-7.3959,-7.4191,-7.4595,-7.5092,-7.576,-7.616,-7.6083,-7.5966,-7.5959,-7.5987,-7.6186,-7.6476,-7.6448,-7.7998,-7.9522,-8.0698,-8.2123,-8.4441,-8.624,-8.6801,-8.723,-8.841,-8.9345,-8.9802,-6.369,-6.3651,-6.3389,-6.3042,-6.257,-6.2094,-6.1811,-6.1666,-6.164,-6.1211,-6.0508,-6.0351,-5.9922,-5.9336,-5.9219,-5.9219,-5.9219,-5.918,-5.9062,-5.8437,-5.8867,-5.9371,-5.9756,-6.014,-6.0874,-6.1488,-6.1752,-6.1785,-6.2245,-6.2698,-6.3035,-6.3444,-6.4133,-6.3691,-6.3049,-6.2756,-6.2535,-6.1968,-6.166,-6.1311,-6.133,-6.1349,-6.1335,-6.1218,-6.0893,-6.0405,-6.0041,-5.9522,-5.8932,-5.8496,-5.8143,-5.7787,-5.7534,-5.7507,-5.743,-5.7806,-5.7379,-5.7153,-5.7315,-5.7163,-5.7235,-5.7167,-5.8515,-5.9879,-6.1055,-6.1889,-6.2845,-6.3667,-6.4207,-6.454,-6.4883,-6.5123,-6.521,-6.529,-6.539,-6.5436,-6.6025,-6.6674,-6.7324,-6.7706,-6.847,-7.0075,-7.1489,-7.2291,-7.2979,-7.3743,-7.4431,-7.4393,-7.424,-7.4125,-7.4049,-7.3976,-7.4091,-7.4399,-7.4954,-7.5697,-7.6041,-7.6211,-7.6203,-7.6169,-7.6679,-7.7029,-7.7508,-7.8192,-7.9709,-8.135,-8.333,-8.5169,-8.6923,-8.8159,-8.8803,-8.9196,-8.9495,-8.9838,-9.0257,-6.3681,-6.3613,-6.2876,-6.261,-6.2588,-6.2579,-6.2266,-6.1621,-6.1678,-6.125,-6.0508,-6.0547,-6.0234,-5.9531,-5.9375,-5.9492,-5.957,-5.9531,-5.9375,-5.9297,-5.9414,-5.9805,-6.0071,-6.0379,-6.0956,-6.1449,-6.1863,-6.2323,-6.2903,-6.3417,-6.3739,-6.4306,-6.5085,-6.4842,-6.4247,-6.3647,-6.3236,-6.2786,-6.2133,-6.1823,-6.1719,-6.1465,-6.1419,-6.1342,-6.1211,-6.0847,-6.0529,-6.0126,-5.9279,-5.8711,-5.8344,-5.8137,-5.8117,-5.8402,-5.8635,-5.8411,-5.739,-5.7136,-5.7156,-5.6823,-5.7124,-5.7544,-5.9083,-6.0499,-6.1617,-6.2437,-6.3423,-6.3993,-6.4442,-6.4698,-6.4992,-6.5117,-6.5226,-6.5382,-6.5536,-6.5933,-6.656,-6.7209,-6.7897,-6.8547,-6.9311,-7.0533,-7.1718,-7.2635,-7.3323,-7.4316,-7.4813,-7.4584,-7.4354,-7.3896,-7.3819,-7.3667,-7.3802,-7.4087,-7.4698,-7.5518,-7.5893,-7.6042,-7.6449,-7.6584,-7.7169,-7.8052,-7.8875,-7.9895,-8.1385,-8.3193,-8.5532,-8.7292,-8.878,-8.9711,-9.0016,-9.005,-9.0024,-9.0181,-9.0508,-6.3478,-6.4493,-6.369,-6.3089,-6.2653,-6.2781,-6.2395,-6.1717,-6.168,-6.1484,-6.1328,-6.1328,-6.1133,-6.0976,-6.0976,-6.0976,-6.0976,-6.0898,-6.0508,-6.0312,-6.0117,-6.0234,-6.0345,-6.0536,-6.0995,-6.1644,-6.2251,-6.2704,-6.3194,-6.3822,-6.5046,-6.5933,-6.605,-6.5966,-6.5611,-6.505,-6.441,-6.3692,-6.2924,-6.2426,-6.205,-6.1765,-6.1596,-6.1426,-6.1419,-6.114,-6.1017,-6.0861,-6.013,-5.9614,-5.8985,-5.8503,-5.7725,-5.737,-5.7139,-5.7284,-5.6571,-5.6098,-5.6449,-5.6831,-5.7233,-5.7847,-5.9163,-6.0475,-6.1687,-6.2796,-6.381,-6.4197,-6.4253,-6.4339,-6.4584,-6.4824,-6.5155,-6.5541,-6.581,-6.6353,-6.6888,-6.7286,-6.7935,-6.8165,-6.9005,-7.0533,-7.1756,-7.2635,-7.3399,-7.4584,-7.5119,-7.4889,-7.4545,-7.4087,-7.3628,-7.3476,-7.3628,-7.3951,-7.4499,-7.5221,-7.5589,-7.5939,-7.6494,-7.7232,-7.8077,-7.906,-8.0241,-8.1977,-8.4036,-8.603,-8.8059,-8.9358,-8.9988,-9.0235,-9.052,-9.0517,-9.0551,-9.0763,-9.0937,-6.3013,-6.3874,-6.3428,-6.3021,-6.2767,-6.2896,-6.281,-6.2656,-6.2344,-6.2226,-6.2226,-6.2226,-6.2226,-6.2265,-6.2539,-6.2734,-6.2695,-6.2265,-6.1875,-6.1601,-6.1055,-6.0976,-6.0931,-6.0926,-6.127,-6.1915,-6.2518,-6.3088,-6.3729,-6.4982,-6.6244,-6.6517,-6.6712,-6.6712,-6.6473,-6.6034,-6.5678,-6.4922,-6.4076,-6.3262,-6.2659,-6.2225,-6.1895,-6.1472,-6.1426,-6.1394,-6.1342,-6.1232,-6.0521,-5.9847,-5.906,-5.8532,-5.7781,-5.7181,-5.6495,-5.6618,-5.6434,-5.6346,-5.674,-5.7056,-5.7497,-5.8195,-5.9393,-6.0507,-6.1476,-6.242,-6.3416,-6.4089,-6.3837,-6.3731,-6.4103,-6.4474,-6.5106,-6.5683,-6.6221,-6.6742,-6.7025,-6.7286,-6.7439,-6.7515,-6.8623,-7.0266,-7.145,-7.2406,-7.3493,-7.4754,-7.5383,-7.5268,-7.483,-7.4316,-7.3743,-7.3361,-7.3607,-7.3892,-7.4456,-7.5075,-7.5577,-7.6248,-7.7124,-7.7938,-7.8923,-8.0943,-8.2971,-8.5069,-8.716,-8.8634,-8.9648,-9.0127,-9.0643,-9.0929,-9.1232,-9.142,-9.1434,-9.1374,-9.1569,-6.2356,-6.2443,-6.2408,-6.2612,-6.2867,-6.3047,-6.3594,-6.4258,-6.3437,-6.3047,-6.2969,-6.2969,-6.289,-6.293,-6.3515,-6.3945,-6.375,-6.332,-6.3086,-6.3008,-6.2148,-6.1795,-6.175,-6.1746,-6.1735,-6.2027,-6.2746,-6.3737,-6.4696,-6.5723,-6.6517,-6.6712,-6.6712,-6.6712,-6.6668,-6.659,-6.6351,-6.6073,-6.5111,-6.422,-6.3339,-6.2827,-6.2393,-6.1712,-6.1486,-6.1383,-6.1207,-6.067,-5.984,-5.9314,-5.8877,-5.8509,-5.8098,-5.7546,-5.6846,-5.6377,-5.6357,-5.66,-5.6877,-5.7203,-5.7796,-5.8719,-5.9987,-6.0997,-6.1894,-6.2509,-6.3458,-6.3723,-6.3503,-6.3486,-6.3782,-6.4875,-6.5665,-6.626,-6.6837,-6.7223,-6.7461,-6.7439,-6.7133,-6.7477,-6.8623,-7.0266,-7.1909,-7.2941,-7.3892,-7.5077,-7.5285,-7.5226,-7.5128,-7.4559,-7.4045,-7.3471,-7.3756,-7.4095,-7.4468,-7.5085,-7.574,-7.6502,-7.7607,-7.9161,-8.0554,-8.3132,-8.6007,-8.7447,-8.8669,-8.9686,-9.0586,-9.0969,-9.141,-9.1908,-9.2212,-9.2418,-9.2414,-9.2296,-9.2261,-6.1814,-6.2345,-6.1856,-6.2065,-6.2828,-6.3623,-6.4492,-6.5195,-6.4375,-6.3633,-6.3125,-6.3047,-6.3086,-6.3359,-6.414,-6.4531,-6.4336,-6.4219,-6.4023,-6.3672,-6.3047,-6.2497,-6.2451,-6.1977,-6.2119,-6.28,-6.3592,-6.4579,-6.5723,-6.6444,-6.6712,-6.6712,-6.6712,-6.6712,-6.6712,-6.6668,-6.6551,-6.6629,-6.6029,-6.5306,-6.4705,-6.3414,-6.2585,-6.2147,-6.194,-6.146,-6.1136,-6.0637,-6.0203,-5.9877,-5.9249,-5.8898,-5.8637,-5.7968,-5.766,-5.7349,-5.6582,-5.6727,-5.7149,-5.7574,-5.822,-5.9166,-6.039,-6.1611,-6.2513,-6.3017,-6.3279,-6.3317,-6.3372,-6.3389,-6.3862,-6.5107,-6.6294,-6.6912,-6.7431,-6.7665,-6.7897,-6.7362,-6.6904,-6.7706,-6.8776,-7.0342,-7.2062,-7.3378,-7.4406,-7.4729,-7.4647,-7.4681,-7.4998,-7.4768,-7.4418,-7.3997,-7.415,-7.4468,-7.4763,-7.5363,-7.6171,-7.7209,-7.8376,-8.0161,-8.2285,-8.5117,-8.7868,-8.8728,-8.9756,-9.0526,-9.1181,-9.164,-9.21,-9.2753,-9.3116,-9.3246,-9.351,-9.3468,-9.3281,-6.1389,-6.1822,-6.1939,-6.2543,-6.35,-6.4487,-6.5351,-6.5898,-6.5234,-6.4609,-6.4101,-6.3789,-6.3789,-6.4219,-6.5078,-6.5351,-6.5273,-6.5039,-6.4922,-6.457,-6.3749,-6.3082,-6.2647,-6.2287,-6.2388,-6.3026,-6.4283,-6.5424,-6.6522,-6.6712,-6.6712,-6.6712,-6.6712,-6.6712,-6.6668,-6.6429,-6.639,-6.6668,-6.639,-6.6029,-6.5634,-6.4387,-6.3114,-6.2684,-6.201,-6.157,-6.1181,-6.0714,-6.0349,-6.0205,-5.9794,-5.9633,-5.9293,-5.8661,-5.8195,-5.7842,-5.7382,-5.6945,-5.7589,-5.824,-5.8905,-5.9944,-6.1224,-6.2635,-6.2933,-6.3345,-6.3434,-6.3489,-6.3469,-6.3486,-6.432,-6.5472,-6.683,-6.777,-6.7986,-6.8199,-6.7722,-6.7042,-6.682,-6.7133,-6.8432,-7.0037,-7.1756,-7.3399,-7.4236,-7.4533,-7.4375,-7.4041,-7.4373,-7.4858,-7.4549,-7.4615,-7.4823,-7.5009,-7.5357,-7.6018,-7.6832,-7.7946,-7.9392,-8.2615,-8.5488,-8.7635,-8.9572,-8.9988,-9.0406,-9.0949,-9.1564,-9.214,-9.2966,-9.3735,-9.3963,-9.4073,-9.43,-9.4509,-9.4283,-6.1164,-6.1303,-6.228,-6.3325,-6.4322,-6.5194,-6.6055,-6.664,-6.5976,-6.5664,-6.5586,-6.4805,-6.5039,-6.5664,-6.6445,-6.6719,-6.664,-6.6015,-6.582,-6.5351,-6.418,-6.3941,-6.3387,-6.2713,-6.3079,-6.3833,-6.5008,-6.584,-6.6673,-6.6712,-6.6712,-6.6712,-6.6712,-6.6712,-6.6429,-6.6029,-6.5829,-6.6268,-6.6229,-6.5951,-6.5533,-6.4992,-6.387,-6.2919,-6.2096,-6.1551,-6.1267,-6.0845,-6.0389,-6.0461,-6.045,-6.0205,-5.9787,-5.9154,-5.8557,-5.8073,-5.7609,-5.7682,-5.8375,-5.9145,-5.9981,-6.1037,-6.2372,-6.3088,-6.3295,-6.3613,-6.3666,-6.3754,-6.3734,-6.4168,-6.5002,-6.6081,-6.7478,-6.8493,-6.865,-6.8591,-6.7768,-6.7063,-6.7095,-6.7187,-6.8677,-7.0282,-7.1718,-7.3361,-7.3947,-7.4243,-7.4002,-7.3721,-7.3691,-7.4251,-7.4405,-7.5027,-7.5656,-7.5841,-7.6048,-7.6924,-7.7801,-7.9715,-8.1608,-8.5351,-8.8416,-8.9688,-9.049,-9.0656,-9.1135,-9.1561,-9.216,-9.2794,-9.3678,-9.4619,-9.4829,-9.4962,-9.5131,-9.5284,-9.5172,-6.1306,-6.1441,-6.2422,-6.338,-6.4262,-6.5191,-6.6094,-6.668,-6.6015,-6.5976,-6.625,-6.5781,-6.5508,-6.5664,-6.6523,-6.6875,-6.6836,-6.6562,-6.664,-6.6406,-6.5234,-6.5032,-6.4711,-6.3911,-6.4307,-6.5016,-6.5766,-6.6444,-6.6712,-6.6712,-6.6712,-6.6712,-6.6712,-6.6668,-6.6551,-6.6107,-6.5745,-6.6146,-6.5951,-6.5589,-6.5299,-6.4798,-6.4242,-6.3291,-6.2346,-6.1785,-6.1267,-6.0695,-6.0822,-6.1056,-6.1151,-6.0789,-6.0209,-5.9523,-5.8944,-5.85,-5.8,-5.8142,-5.882,-5.9303,-5.9978,-6.1225,-6.2315,-6.2918,-6.3389,-6.4162,-6.4273,-6.4398,-6.4585,-6.5116,-6.5988,-6.7238,-6.8505,-6.9192,-6.9535,-6.8969,-6.8248,-6.8065,-6.8059,-6.8855,-7.0031,-7.1352,-7.2559,-7.3607,-7.4078,-7.397,-7.3076,-7.287,-7.3259,-7.3764,-7.424,-7.534,-7.634,-7.6694,-7.6947,-7.8085,-7.9231,-8.1208,-8.3599,-8.6974,-8.9515,-9.0895,-9.1541,-9.1591,-9.1743,-9.2112,-9.2733,-9.3504,-9.4407,-9.5291,-9.5656,-9.5867,-9.5981,-9.5864,-9.5635]},{"header":{"parameterUnit":"m.s-1","parameterCategory":1,"la1":31.0,"la2":29.5877,"lo1":-88.7671,"lo2":-86.6584,"dy":0.0162,"dx":0.0185,"nx":115,"ny":88,"refTime":"2024-02-26T06:00:00:Z","depth":0,"parameterNumber":3,"parameterNumberName":"V-component_of_WINDS"},"data":[0.0,0.0,0.0,0.0,0.0,0.0,0.0,0.0,0.0,0.0,0.0,0.0,0.0,0.0,0.0,0.0,0.0,0.0,0.0,0.0,0.0,0.0,0.0,0.0,0.0,0.0,0.0,0.0,0.0,0.0,0.0,0.0,0.0,0.0,0.0,0.0,0.0,0.0,0.0,0.0,0.0,0.0,0.0,0.0,0.0,0.0,0.0,0.0,0.0,0.0,0.0,0.0,0.0,0.0,0.0,0.0,0.0,0.0,0.0,0.0,0.0,0.0,0.0,0.0,0.0,0.0,0.0,0.0,0.0,0.0,0.0,0.0,0.0,0.0,0.0,0.0,0.0,0.0,0.0,0.0,0.0,0.0,0.0,0.0,0.0,0.0,0.0,0.0,0.0,0.0,0.0,0.0,0.0,0.0,0.0,0.0,0.0,0.0,0.0,0.0,0.0,0.0,0.0,0.0,0.0,0.0,0.0,0.0,0.0,0.0,0.0,0.0,0.0,0.0,0.0,0.0,0.0,0.0,0.0,0.0,0.0,0.0,0.0,0.0,0.0,0.0,0.0,0.0,0.0,0.0,0.0,0.0,0.0,0.0,0.0,0.0,0.0,0.0,0.0,0.0,0.0,0.0,0.0,0.0,0.0,0.0,0.0,0.0,0.0,0.0,0.0,0.0,0.0,0.0,0.0,0.0,0.0,0.0,0.0,0.0,0.0,0.0,0.0,0.0,0.0,0.0,0.0,0.0,0.0,0.0,0.0,0.0,0.0,0.0,0.0,0.0,0.0,0.0,0.0,0.0,0.0,0.0,0.0,0.0,0.0,0.0,0.0,0.0,0.0,0.0,0.0,0.0,0.0,0.0,0.0,0.0,0.0,0.0,0.0,0.0,0.0,0.0,0.0,0.0,0.0,0.0,0.0,0.0,0.0,0.0,0.0,0.0,0.0,0.0,0.0,0.0,0.0,0.0,0.0,0.0,0.0,0.0,0.0,0.0,0.0,0.0,0.0,0.0,0.0,0.0,0.0,0.0,0.0,0.0,0.0,0.0,0.0,0.0,0.0,0.0,0.0,0.0,0.0,0.0,0.0,0.0,0.0,0.0,0.0,0.0,0.0,0.0,0.0,0.0,0.0,0.0,0.0,0.0,0.0,0.0,0.0,0.0,0.0,0.0,0.0,0.0,0.0,0.0,0.0,0.0,0.0,0.0,0.0,0.0,0.0,0.0,0.0,0.0,0.0,0.0,0.0,0.0,0.0,0.0,0.0,0.0,0.0,0.0,0.0,0.0,0.0,0.0,0.0,0.0,0.0,0.0,0.0,0.0,0.0,0.0,0.0,0.0,0.0,0.0,0.0,0.0,0.0,0.0,0.0,0.0,0.0,0.0,0.0,0.0,0.0,0.0,0.0,0.0,0.0,0.0,0.0,0.0,0.0,0.0,0.0,0.0,0.0,0.0,0.0,0.0,0.0,0.0,0.0,0.0,0.0,0.0,0.0,0.0,0.0,0.0,0.0,0.0,0.0,0.0,0.0,0.0,0.0,0.0,0.0,0.0,0.0,0.0,0.0,0.0,0.0,0.0,0.0,0.0,0.0,0.0,0.0,0.0,0.0,0.0,0.0,0.0,0.0,0.0,0.0,0.0,0.0,0.0,0.0,0.0,0.0,0.0,0.0,0.0,0.0,0.0,0.0,0.0,0.0,0.0,0.0,0.0,0.0,0.0,0.0,0.0,0.0,0.0,0.0,0.0,0.0,0.0,0.0,0.0,0.0,0.0,0.0,0.0,0.0,0.0,0.0,0.0,0.0,0.0,0.0,0.0,0.0,0.0,0.0,0.0,0.0,0.0,0.0,0.0,0.0,0.0,0.0,0.0,0.0,0.0,0.0,0.0,0.0,0.0,0.0,0.0,0.0,0.0,0.0,0.0,0.0,0.0,0.0,0.0,0.0,0.0,0.0,0.0,0.0,0.0,0.0,0.0,0.0,0.0,0.0,0.0,0.0,0.0,0.0,0.0,0.0,0.0,0.0,0.0,0.0,0.0,0.0,0.0,0.0,0.0,0.0,0.0,0.0,0.0,0.0,0.0,0.0,0.0,0.0,0.0,0.0,0.0,0.0,0.0,0.0,0.0,0.0,0.0,0.0,0.0,0.0,0.0,0.0,0.0,0.0,0.0,0.0,0.0,0.0,0.0,0.0,0.0,0.0,0.0,0.0,0.0,0.0,0.0,0.0,0.0,0.0,0.0,0.0,0.0,0.0,0.0,0.0,0.0,0.0,0.0,0.0,0.0,0.0,0.0,0.0,0.0,0.0,0.0,0.0,0.0,0.0,0.0,0.0,0.0,0.0,0.0,0.0,0.0,0.0,0.0,0.0,0.0,0.0,0.0,0.0,0.0,0.0,0.0,0.0,0.0,0.0,0.0,0.0,0.0,0.0,0.0,0.0,0.0,0.0,0.0,0.0,0.0,0.0,0.0,0.0,0.0,0.0,0.0,0.0,0.0,0.0,0.0,0.0,0.0,0.0,0.0,0.0,0.0,0.0,0.0,0.0,0.0,0.0,0.0,0.0,0.0,0.0,0.0,0.0,0.0,0.0,0.0,0.0,0.0,0.0,0.0,0.0,0.0,0.0,0.0,0.0,0.0,0.0,0.0,0.0,0.0,0.0,0.0,0.0,0.0,0.0,0.0,0.0,0.0,0.0,0.0,0.0,0.0,0.0,0.0,0.0,0.0,0.0,0.0,0.0,0.0,0.0,0.0,0.0,0.0,0.0,0.0,0.0,0.0,0.0,0.0,0.0,0.0,0.0,0.0,0.0,0.0,0.0,0.0,0.0,0.0,0.0,0.0,0.0,0.0,0.0,0.0,0.0,0.0,0.0,0.0,0.0,0.0,0.0,0.0,0.0,0.0,0.0,0.0,0.0,0.0,0.0,0.0,0.0,0.0,0.0,0.0,0.0,0.0,0.0,0.0,0.0,0.0,0.0,0.0,0.0,0.0,0.0,0.0,0.0,0.0,0.0,0.0,0.0,0.0,0.0,0.0,0.0,0.0,0.0,0.0,0.0,0.0,0.0,0.0,0.0,0.0,0.0,0.0,0.0,0.0,0.0,0.0,0.0,0.0,0.0,0.0,0.0,0.0,0.0,0.0,0.0,0.0,0.0,0.0,0.0,0.0,0.0,0.0,0.0,0.0,0.0,0.0,0.0,0.0,0.0,0.0,0.0,0.0,0.0,0.0,0.0,0.0,0.0,0.0,0.0,0.0,0.0,0.0,0.0,0.0,0.0,0.0,0.0,0.0,0.0,0.0,0.0,0.0,0.0,0.0,0.0,0.0,0.0,0.0,0.0,0.0,0.0,0.0,0.0,0.0,0.0,0.0,0.0,0.0,0.0,0.0,0.0,0.0,0.0,0.0,0.0,0.0,0.0,0.0,0.0,0.0,0.0,0.0,0.0,0.0,0.0,0.0,0.0,0.0,0.0,0.0,0.0,0.0,0.0,0.0,0.0,0.0,0.0,0.0,0.0,0.0,0.0,0.0,0.0,0.0,0.0,0.0,0.0,0.0,0.0,0.0,0.0,0.0,0.0,0.0,0.0,0.0,0.0,0.0,0.0,0.0,0.0,0.0,0.0,0.0,0.0,0.0,0.0,0.0,0.0,0.0,0.0,0.0,0.0,0.0,0.0,0.0,0.0,0.0,0.0,0.0,0.0,0.0,0.0,0.0,0.0,0.0,0.0,0.0,0.0,0.0,0.0,0.0,0.0,0.0,0.0,0.0,0.0,0.0,0.0,0.0,0.0,0.0,0.0,0.0,0.0,0.0,0.0,0.0,0.0,0.0,0.0,0.0,0.0,0.0,0.0,0.0,0.0,0.0,0.0,0.0,0.0,0.0,0.0,0.0,0.0,0.0,0.0,0.0,0.0,0.0,0.0,0.0,0.0,0.0,0.0,0.0,0.0,0.0,0.0,0.0,0.0,0.0,0.0,0.0,0.0,0.0,0.0,0.0,0.0,0.0,0.0,0.0,0.0,0.0,0.0,0.0,0.0,0.0,0.0,0.0,0.0,0.0,0.0,0.0,0.0,0.0,0.0,0.0,0.0,0.0,0.0,0.0,0.0,0.0,0.0,0.0,0.0,0.0,0.0,0.0,0.0,0.0,0.0,0.0,0.0,0.0,0.0,0.0,0.0,0.0,0.0,0.0,0.0,0.0,0.0,0.0,0.0,0.0,0.0,0.0,0.0,0.0,0.0,0.0,0.0,0.0,0.0,0.0,0.0,0.0,-1.895,0.0,0.0,0.0,0.0,0.0,0.0,0.0,0.0,0.0,0.0,0.0,0.0,0.0,0.0,0.0,0.0,0.0,0.0,0.0,0.0,0.0,0.0,0.0,0.0,0.0,0.0,0.0,0.0,0.0,0.0,0.0,0.0,0.0,0.0,0.0,0.0,0.0,0.0,0.0,0.0,0.0,0.0,0.0,0.0,0.0,0.0,0.0,0.0,0.0,0.0,0.0,0.0,0.0,0.0,0.0,0.0,0.0,0.0,0.0,0.0,0.0,0.0,0.0,0.0,0.0,0.0,0.0,0.0,0.0,0.0,0.0,0.0,0.0,0.0,0.0,0.0,0.0,0.0,0.0,0.0,0.0,0.0,0.0,0.0,0.0,0.0,0.0,0.0,0.0,0.0,0.0,0.0,0.0,0.0,0.0,0.0,0.0,0.0,0.0,0.0,0.0,0.0,0.0,0.0,0.0,0.0,0.0,0.0,0.0,0.0,-1.4386,-1.287,-1.3565,-1.5497,-1.8625,0.0,0.0,0.0,0.0,0.0,0.0,0.0,0.0,0.0,0.0,0.0,0.0,0.0,0.0,0.0,0.0,0.0,0.0,0.0,0.0,0.0,0.0,0.0,0.0,0.0,0.0,0.0,0.0,0.0,0.0,0.0,0.0,0.0,0.0,0.0,0.0,0.0,0.0,0.0,0.0,0.0,0.0,0.0,0.0,0.0,0.0,0.0,0.0,0.0,0.0,0.0,0.0,0.0,0.0,0.0,0.0,0.0,0.0,0.0,0.0,0.0,0.0,0.0,0.0,0.0,0.0,0.0,0.0,0.0,0.0,0.0,0.0,0.0,0.0,0.0,0.0,0.0,0.0,0.0,0.0,0.0,0.0,0.0,0.0,0.0,0.0,0.0,0.0,0.0,0.0,0.0,0.0,0.0,0.0,0.0,0.0,0.0,0.0,0.0,0.0,0.0,0.0,0.0,0.0,0.0,0.0,0.0,0.0,0.0,0.0,0.0,0.0,-1.3565,-1.5599,-1.8618,0.0,0.0,0.0,0.0,0.0,0.0,0.0,0.0,0.0,0.0,0.0,0.0,0.0,0.0,0.0,0.0,0.0,0.0,0.0,0.0,0.0,0.0,0.0,0.0,0.0,0.0,0.0,0.0,0.0,0.0,0.0,0.0,0.0,0.0,0.0,0.0,0.0,0.0,0.0,0.0,0.0,0.0,0.0,0.0,0.0,0.0,0.0,0.0,0.0,0.0,0.0,0.0,0.0,0.0,0.0,0.0,0.0,0.0,0.0,0.0,0.0,0.0,0.0,0.0,0.0,0.0,0.0,0.0,0.0,0.0,0.0,0.0,0.0,0.0,0.0,0.0,0.0,0.0,0.0,0.0,0.0,0.0,0.0,0.0,0.0,0.0,0.0,0.0,0.0,0.0,0.0,0.0,0.0,0.0,0.0,0.0,0.0,0.0,0.0,0.0,0.0,0.0,0.0,0.0,0.0,0.0,0.0,0.0,0.0,0.0,-1.2882,-1.2993,-1.342,0.0,-1.9521,0.0,0.0,0.0,0.0,0.0,0.0,0.0,0.0,0.0,0.0,0.0,0.0,0.0,0.0,0.0,0.0,0.0,0.0,0.0,0.0,0.0,0.0,0.0,0.0,0.0,0.0,0.0,0.0,0.0,0.0,0.0,0.0,0.0,0.0,0.0,0.0,0.0,0.0,0.0,0.0,0.0,0.0,0.0,0.0,0.0,0.0,0.0,0.0,0.0,0.0,0.0,0.0,0.0,0.0,0.0,0.0,0.0,0.0,0.0,0.0,0.0,0.0,0.0,0.0,0.0,0.0,0.0,0.0,0.0,0.0,0.0,0.0,0.0,0.0,0.0,0.0,0.0,0.0,0.0,0.0,0.0,0.0,0.0,0.0,0.0,0.0,0.0,0.0,0.0,0.0,0.0,0.0,0.0,0.0,0.0,0.0,0.0,0.0,0.0,0.0,0.0,0.0,0.0,0.0,0.0,0.0,0.0,0.0,0.0,0.0,-1.2621,-1.2842,-1.5336,-1.7628,0.0,0.0,0.0,0.0,0.0,0.0,0.0,0.0,0.0,0.0,0.0,0.0,0.0,0.0,0.0,0.0,0.0,0.0,0.0,0.0,0.0,0.0,0.0,0.0,0.0,0.0,0.0,0.0,0.0,0.0,0.0,0.0,0.0,0.0,0.0,0.0,0.0,0.0,0.0,0.0,0.0,0.0,0.0,0.0,0.0,0.0,0.0,0.0,0.0,0.0,0.0,0.0,0.0,0.0,0.0,0.0,0.0,0.0,0.0,0.0,0.0,0.0,0.0,0.0,0.0,0.0,0.0,0.0,0.0,0.0,0.0,0.0,0.0,0.0,0.0,0.0,0.0,0.0,0.0,0.0,0.0,0.0,0.0,0.0,0.0,0.0,0.0,0.0,0.0,0.0,0.0,0.0,0.0,0.0,0.0,0.0,0.0,0.0,0.0,0.0,0.0,0.0,0.0,0.0,0.0,0.0,0.0,0.0,0.0,0.0,-1.3255,-1.2493,-1.317,-1.6832,-1.9201,-1.9852,0.0,0.0,0.0,0.0,0.0,0.0,0.0,0.0,0.0,0.0,0.0,0.0,0.0,0.0,0.0,0.0,0.0,0.0,0.0,0.0,0.0,0.0,0.0,0.0,0.0,0.0,0.0,0.0,0.0,0.0,0.0,0.0,0.0,0.0,0.0,0.0,0.0,0.0,0.0,0.0,0.0,0.0,0.0,0.0,0.0,0.0,0.0,0.0,0.0,0.0,0.0,0.0,0.0,0.0,0.0,0.0,0.0,0.0,0.0,0.0,0.0,0.0,0.0,0.0,0.0,0.0,0.0,0.0,0.0,0.0,0.0,0.0,0.0,0.0,0.0,0.0,0.0,0.0,0.0,0.0,0.0,0.0,0.0,0.0,0.0,0.0,0.0,0.0,0.0,0.0,0.0,0.0,0.0,0.0,0.0,0.0,0.0,0.0,0.0,0.0,0.0,0.0,0.0,0.0,0.0,0.0,0.0,0.0,-1.3725,-1.249,-1.2412,-1.3749,-1.7214,-1.9268,0.0,0.0,0.0,0.0,0.0,0.0,0.0,0.0,0.0,0.0,0.0,0.0,0.0,0.0,0.0,0.0,0.0,0.0,0.0,0.0,0.0,0.0,0.0,0.0,0.0,0.0,0.0,0.0,0.0,0.0,0.0,0.0,0.0,0.0,0.0,0.0,0.0,0.0,0.0,0.0,0.0,0.0,0.0,0.0,0.0,0.0,0.0,0.0,0.0,0.0,0.0,0.0,0.0,0.0,0.0,0.0,0.0,0.0,0.0,0.0,0.0,0.0,0.0,0.0,0.0,0.0,0.0,0.0,0.0,0.0,0.0,0.0,0.0,0.0,0.0,0.0,0.0,0.0,0.0,0.0,0.0,0.0,0.0,0.0,0.0,0.0,0.0,0.0,0.0,0.0,0.0,0.0,0.0,0.0,0.0,0.0,0.0,0.0,0.0,0.0,0.0,0.0,0.0,0.0,0.0,0.0,0.0,0.0,0.0,-1.2713,-1.2372,-1.259,-1.3382,-1.6333,-1.8456,0.0,0.0,0.0,0.0,0.0,0.0,0.0,0.0,0.0,0.0,0.0,0.0,0.0,0.0,0.0,0.0,0.0,0.0,0.0,0.0,0.0,0.0,0.0,0.0,0.0,0.0,0.0,0.0,0.0,0.0,0.0,0.0,0.0,0.0,0.0,0.0,0.0,0.0,0.0,0.0,0.0,0.0,0.0,0.0,0.0,0.0,0.0,0.0,0.0,0.0,0.0,0.0,0.0,0.0,0.0,0.0,0.0,0.0,0.0,0.0,0.0,0.0,0.0,0.0,0.0,0.0,0.0,0.0,0.0,0.0,0.0,0.0,0.0,0.0,0.0,0.0,0.0,0.0,0.0,0.0,0.0,0.0,0.0,0.0,0.0,0.0,0.0,0.0,0.0,0.0,0.0,0.0,0.0,0.0,0.0,0.0,0.0,0.0,0.0,0.0,0.0,0.0,0.0,0.0,0.0,0.0,0.0,0.0,0.0,-1.1607,0.0,-1.2198,-1.3069,-1.5487,-1.7652,0.0,0.0,0.0,0.0,0.0,0.0,0.0,0.0,0.0,0.0,0.0,0.0,0.0,0.0,0.0,0.0,0.0,0.0,0.0,0.0,0.0,0.0,0.0,0.0,0.0,0.0,0.0,0.0,0.0,0.0,0.0,0.0,0.0,0.0,0.0,0.0,0.0,0.0,0.0,0.0,0.0,0.0,0.0,0.0,0.0,0.0,0.0,0.0,0.0,0.0,0.0,0.0,0.0,0.0,0.0,0.0,0.0,0.0,0.0,0.0,0.0,0.0,0.0,0.0,0.0,0.0,0.0,0.0,0.0,0.0,0.0,0.0,0.0,0.0,0.0,0.0,0.0,0.0,0.0,0.0,0.0,0.0,0.0,0.0,0.0,0.0,0.0,0.0,0.0,0.0,0.0,0.0,0.0,0.0,0.0,0.0,0.0,0.0,0.0,0.0,0.0,0.0,0.0,0.0,0.0,0.0,0.0,0.0,-1.3161,-1.0395,-1.037,-1.1155,-1.2753,-1.4884,-1.6936,0.0,0.0,0.0,0.0,0.0,0.0,0.0,0.0,0.0,0.0,0.0,0.0,0.0,0.0,0.0,0.0,0.0,0.0,0.0,0.0,0.0,0.0,0.0,0.0,0.0,0.0,0.0,0.0,0.0,0.0,0.0,0.0,0.0,0.0,0.0,0.0,0.0,0.0,0.0,0.0,0.0,0.0,0.0,0.0,0.0,0.0,0.0,0.0,0.0,0.0,0.0,0.0,0.0,0.0,0.0,0.0,0.0,0.0,0.0,0.0,0.0,0.0,0.0,0.0,0.0,0.0,0.0,0.0,0.0,0.0,0.0,0.0,0.0,0.0,0.0,0.0,0.0,0.0,0.0,0.0,0.0,0.0,0.0,0.0,0.0,0.0,0.0,0.0,0.0,0.0,0.0,0.0,0.0,0.0,0.0,0.0,0.0,0.0,0.0,0.0,0.0,0.0,0.0,0.0,0.0,0.0,0.0,0.0,0.0,-0.7655,-0.8523,-0.9532,-1.0634,-1.2902,-1.5282,0.0,0.0,0.0,0.0,0.0,0.0,0.0,0.0,0.0,0.0,0.0,0.0,0.0,0.0,0.0,0.0,0.0,0.0,0.0,0.0,0.0,0.0,0.0,0.0,0.0,0.0,0.0,0.0,0.0,0.0,0.0,0.0,0.0,0.0,0.0,0.0,0.0,0.0,0.0,0.0,0.0,0.0,0.0,0.0,0.0,0.0,0.0,0.0,0.0,0.0,0.0,0.0,0.0,0.0,0.0,0.0,0.0,0.0,0.0,0.0,0.0,0.0,0.0,0.0,0.0,0.0,0.0,0.0,0.0,0.0,0.0,0.0,0.0,0.0,0.0,0.0,0.0,0.0,0.0,0.0,0.0,0.0,0.0,0.0,0.0,0.0,0.0,0.0,0.0,0.0,0.0,0.0,0.0,0.0,0.0,0.0,0.0,0.0,0.0,0.0,0.0,0.0,0.0,0.0,0.0,0.0,0.0,0.0,0.0,-0.486,-0.6035,-0.7337,-0.8645,-1.0914,-1.345,-1.6356,0.0,0.0,0.0,0.0,0.0,0.0,0.0,0.0,0.0,0.0,0.0,0.0,0.0,0.0,0.0,0.0,0.0,0.0,0.0,0.0,0.0,0.0,0.0,0.0,0.0,0.0,0.0,0.0,0.0,0.0,0.0,0.0,0.0,0.0,0.0,0.0,0.0,0.0,0.0,0.0,0.0,0.0,0.0,0.0,0.0,0.0,0.0,0.0,0.0,0.0,0.0,0.0,0.0,0.0,0.0,0.0,0.0,0.0,0.0,0.0,0.0,0.0,0.0,0.0,0.0,0.0,0.0,0.0,0.0,0.0,0.0,0.0,0.0,0.0,0.0,0.0,0.0,0.0,0.0,0.0,0.0,0.0,0.0,0.0,0.0,0.0,0.0,0.0,0.0,0.0,0.0,0.0,0.0,0.0,0.0,0.0,0.0,0.0,0.0,0.0,0.0,0.0,0.0,0.0,0.0,0.0,0.0,0.0,-0.204,-0.3107,-0.4792,-0.6979,-0.904,-1.1622,0.0,0.0,0.0,0.0,0.0,0.0,0.0,0.0,0.0,0.0,0.0,0.0,0.0,0.0,0.0,0.0,0.0,0.0,0.0,0.0,0.0,0.0,0.0,0.0,0.0,0.0,0.0,0.0,0.0,0.0,0.0,0.0,0.0,0.0,0.0,0.0,0.0,0.0,0.0,0.0,0.0,0.0,0.0,0.0,0.0,0.0,0.0,0.0,0.0,0.0,0.0,0.0,0.0,0.0,0.0,0.0,0.0,0.0,0.0,0.0,0.0,0.0,0.0,0.0,0.0,0.0,0.0,0.0,0.0,0.0,0.0,0.0,0.0,0.0,0.0,0.0,0.0,0.0,0.0,0.0,0.0,0.0,0.0,0.0,0.0,0.0,0.0,0.0,0.0,0.0,0.0,0.0,0.0,0.0,0.0,0.0,0.0,0.0,0.0,0.0,0.0,0.0,0.0,0.0,0.0,0.0,0.0,0.0,0.0,-0.0922,-0.0474,-0.179,-0.4926,-0.7608,-1.0486,0.0,0.0,0.0,0.0,0.0,0.0,0.0,0.0,0.0,0.0,0.0,0.0,0.0,0.0,0.0,0.0,0.0,0.0,0.0,0.0,0.0,0.0,0.0,0.0,0.0,0.0,0.0,0.0,0.0,0.0,0.0,0.0,0.0,0.0,0.0,0.0,0.0,0.0,0.0,0.0,0.0,0.0,0.0,0.0,0.0,0.0,0.0,0.0,0.0,0.0,0.0,0.0,0.0,0.0,0.0,0.0,0.0,0.0,0.0,0.0,0.0,0.0,0.0,0.0,0.0,0.0,0.0,0.0,0.0,0.0,0.0,0.0,0.0,0.0,0.0,0.0,0.0,0.0,0.0,0.0,0.0,0.0,0.0,0.0,0.0,0.0,0.0,0.0,0.0,0.0,0.0,0.0,0.0,0.0,0.0,0.0,0.0,0.0,0.0,0.0,0.0,0.0,0.0,0.0,0.0,0.0,0.0,0.0,-0.2222,-0.0261,0.0611,-0.0208,-0.2841,-0.5951,-0.8905,0.0,0.0,0.0,0.0,0.0,0.0,0.0,0.0,0.0,0.0,0.0,0.0,0.0,0.0,0.0,0.0,0.0,0.0,0.0,0.0,0.0,0.0,0.0,0.0,0.0,0.0,0.0,0.0,0.0,0.0,0.0,0.0,0.0,0.0,0.0,0.0,0.0,0.0,0.0,0.0,0.0,0.0,0.0,0.0,0.0,0.0,0.0,0.0,0.0,0.0,0.0,0.0,0.0,0.0,0.0,0.0,0.0,0.0,0.0,0.0,0.0,0.0,0.0,0.0,0.0,0.0,0.0,0.0,0.0,0.0,0.0,0.0,0.0,0.0,0.0,0.0,0.0,0.0,0.0,0.0,0.0,0.0,0.0,0.0,0.0,0.0,0.0,0.0,0.0,0.0,0.0,0.0,0.0,0.0,0.0,0.0,0.0,0.0,0.0,0.0,0.0,0.0,0.0,0.0,0.0,0.0,0.0,0.0,-0.1789,0.0,0.075,0.0418,-0.1033,-0.4409,-0.7358,0.0,0.0,0.0,0.0,0.0,0.0,0.0,0.0,0.0,0.0,0.0,0.0,0.0,0.0,0.0,0.0,0.0,0.0,0.0,0.0,0.0,0.0,0.0,0.0,0.0,0.0,0.0,0.0,0.0,0.0,0.0,0.0,0.0,0.0,0.0,0.0,0.0,0.0,0.0,0.0,0.0,0.0,0.0,0.0,0.0,0.0,0.0,0.0,0.0,0.0,0.0,0.0,0.0,0.0,0.0,0.0,0.0,0.0,0.0,0.0,0.0,0.0,0.0,0.0,0.0,0.0,0.0,0.0,0.0,0.0,0.0,0.0,0.0,0.0,0.0,0.0,0.0,0.0,0.0,0.0,0.0,0.0,0.0,0.0,0.0,0.0,0.0,0.0,0.0,0.0,0.0,0.0,0.0,0.0,0.0,0.0,0.0,0.0,0.0,0.0,0.0,0.0,0.0,0.0,0.0,0.0,0.0,0.0,-0.139,0.0334,0.0819,0.0693,-0.0209,-0.3827,-0.67,0.0,0.0,0.0,0.0,0.0,0.0,0.0,0.0,0.0,0.0,0.0,0.0,0.0,0.0,0.0,0.0,0.0,0.0,0.0,0.0,0.0,0.0,0.0,0.0,0.0,0.0,0.0,0.0,0.0,0.0,0.0,0.0,0.0,0.0,0.0,0.0,0.0,0.0,0.0,0.0,0.0,0.0,0.0,0.0,0.0,0.0,0.0,0.0,-0.2696,0.0,0.0,0.0,0.0,0.0,0.0,0.0,0.0,0.0,0.0,0.0,0.0,0.0,0.0,0.0,0.0,0.0,0.0,0.0,0.0,0.0,0.0,0.0,0.0,0.0,0.0,0.0,0.0,0.0,0.0,0.0,0.0,0.0,0.0,0.0,0.0,0.0,0.0,0.0,0.0,0.0,0.0,0.0,0.0,0.0,0.0,0.0,0.0,0.0,0.0,0.0,0.0,0.0,0.0,0.0,0.0,0.0,0.0,0.0,-0.1189,0.0666,0.0816,0.0483,-0.0278,-0.3486,-0.6121,0.0,0.0,0.0,0.0,0.0,0.0,0.0,0.0,0.0,0.0,0.0,0.0,0.0,0.0,0.0,0.0,0.0,0.0,0.0,0.0,0.0,0.0,0.0,0.0,0.0,0.0,0.0,0.0,0.0,0.0,0.0,0.0,0.0,0.0,0.0,0.0,0.0,0.0,0.0,0.0,0.0,0.0,0.0,0.0,0.0,0.0,0.0,0.0,0.0,0.0,0.0,0.0,0.0,0.0,0.0,0.0,0.0,0.0,0.0,0.0,0.0,0.0,0.0,0.0,0.0,0.0,0.0,0.0,0.0,0.0,0.0,0.0,0.0,0.0,0.0,0.0,0.0,0.0,0.0,0.0,0.0,0.0,0.0,0.0,0.0,0.0,0.0,0.0,0.0,0.0,0.0,0.0,0.0,0.0,0.0,0.0,0.0,0.0,0.0,0.0,0.0,0.0,0.0,0.0,0.0,0.0,0.0,-0.295,-0.0984,0.0986,0.0741,0.0273,-0.0341,-0.2995,-0.5263,-0.6984,0.0,0.0,0.0,0.0,0.0,0.0,0.0,0.0,0.0,0.0,0.0,0.0,0.0,0.0,0.0,0.0,0.0,0.0,0.0,0.0,0.0,0.0,0.0,0.0,0.0,0.0,0.0,0.0,0.0,0.0,0.0,0.0,0.0,0.0,0.0,0.0,0.0,0.0,-0.3638,-0.1313,0.0,0.0,0.0,0.0,0.0,0.0,0.0,0.0,-0.1516,0.0,0.0,0.0,0.0,0.0,0.0,0.0,0.0,0.0,0.0,0.0,0.0,0.0,0.0,0.0,0.0,0.0,0.0,0.0,0.0,0.0,0.0,0.0,0.0,0.0,0.0,0.0,0.0,0.0,0.0,0.0,0.0,0.0,0.0,0.0,0.0,0.0,0.0,0.0,0.0,0.0,0.0,0.0,0.0,0.0,0.0,0.0,0.0,0.0,0.0,0.0,0.0,0.0,0.0,0.0,0.0,-0.4455,-0.2469,-0.0582,0.1359,0.1118,0.073,0.0332,-0.1854,-0.3858,-0.5725,0.0,0.0,0.0,0.0,0.0,0.0,0.0,0.0,0.0,0.0,0.0,0.0,0.0,0.0,0.0,0.0,0.0,0.0,0.0,0.0,0.0,0.0,0.0,0.0,0.0,0.0,0.0,0.0,0.0,0.0,0.0,0.0,0.0,0.0,0.0,0.0,0.0,0.0,0.0,0.0847,0.1499,0.0,0.0,0.0,0.0,0.0,0.0,0.0,0.0,-0.0705,0.0,0.0,0.0,0.0,0.0,0.0,0.0,0.0,0.0,0.0,0.0,0.0,0.0,0.0,0.0,0.0,0.0,0.0,0.0,0.0,0.0,0.0,0.0,0.0,0.0,0.0,0.0,0.0,0.0,0.0,0.0,0.0,0.0,0.0,0.0,0.0,0.0,0.0,0.0,0.0,0.0,0.0,0.0,0.0,0.0,0.0,0.0,0.0,0.0,0.0,0.0,0.0,0.0,0.0,0.0,-0.4583,-0.2788,-0.0906,0.1108,0.0926,0.0597,0.0198,-0.1447,-0.3439,0.0,0.0,0.0,0.0,0.0,0.0,0.0,0.0,0.0,0.0,0.0,0.0,0.0,0.0,0.0,0.0,0.0,0.0,0.0,0.0,0.0,0.0,0.0,0.0,0.0,0.0,0.0,0.0,0.0,0.0,0.0,0.0,0.0,0.0,0.0,0.0,0.0,0.0,0.0,0.0,0.1621,0.2206,0.2595,0.0,0.0,0.0,0.0,0.0,0.0,0.1341,0.0699,0.0,0.0,0.0,0.0,0.0,0.0,0.0,0.0,0.0,0.0,0.0,0.0,0.0,0.0,0.0,0.0,0.0,0.0,0.0,0.0,0.0,0.0,0.0,0.0,0.0,0.0,0.0,0.0,0.0,0.0,0.0,0.0,0.0,0.0,0.0,0.0,0.0,0.0,0.0,0.0,0.0,0.0,0.0,0.0,0.0,0.0,0.0,0.0,0.0,0.0,0.0,0.0,0.0,0.0,0.0,-0.4677,-0.323,-0.1295,0.0984,0.0796,0.0531,0.0262,-0.0917,-0.2764,0.0,0.0,0.0,0.0,0.0,0.0,0.0,0.0,0.0,0.0,0.0,0.0,0.0,0.0,0.0,0.0,0.0,0.0,0.0,0.0,0.0,0.0,0.0,0.0,0.0,0.0,0.0,0.0,0.0,0.0,0.0,0.0,0.0,0.0,0.0,0.0,0.0,0.0,0.0,0.0,0.0,0.2708,0.3467,0.3347,0.0,0.0,0.0,0.0,0.3827,0.3293,0.0,0.0,0.0,0.0,0.0,0.0,0.0,0.0,0.0,0.0,0.0,0.0,0.0,0.0,0.0,0.0,0.0,0.0,0.0,0.0,0.0,0.0,0.0,0.0,0.0,0.0,0.0,0.0,0.0,0.0,0.0,0.0,0.0,0.0,0.0,0.0,0.0,0.0,0.0,0.0,0.0,0.0,0.0,0.0,0.0,0.0,0.0,0.0,0.0,0.0,0.0,0.0,0.0,0.0,0.0,0.0,-0.4545,-0.3135,-0.1225,0.1293,0.11,0.1036,0.1293,0.0517,-0.1034,0.0,0.0,0.0,0.0,0.0,0.0,0.0,0.0,0.0,0.0,0.0,0.0,0.0,0.0,0.0,0.0,0.0,0.0,0.0,0.0,0.0,0.0,0.0,0.0,0.0,0.0,0.0,0.0,0.0,0.0,0.0,0.0,0.0,0.0,0.0,0.0,0.0,0.0,0.0,0.0,0.0,0.3139,0.3749,0.3831,0.4345,0.0,0.0,0.6268,0.7788,0.7128,0.0,0.0,0.0,0.0,0.0,0.0,0.0,0.0,0.0,0.0,0.0,0.0,0.0,0.0,0.0,0.0,0.0,0.0,0.0,0.0,0.0,0.0,0.0,0.0,0.0,0.0,0.0,0.0,0.0,0.0,0.0,0.0,0.0,0.0,0.0,0.0,0.0,0.0,0.0,0.0,0.0,0.0,0.0,0.0,0.0,0.0,0.0,0.0,0.0,0.0,0.0,0.0,0.0,0.0,0.0,-0.8202,-0.4774,-0.3447,-0.1476,0.1084,0.1231,0.1425,0.1785,0.1274,0.0,0.0,0.0,0.0,0.0,0.0,0.0,0.0,0.0,0.0,0.0,0.0,0.0,0.0,0.0,0.0,0.0,0.0,0.0,0.0,0.0,0.0,0.0,0.0,0.0,0.0,0.0,0.0,0.0,0.0,0.0,0.0,0.0,0.0,0.0,0.0,0.0,0.0,0.0,0.0,0.0,0.0,0.0,0.4482,0.466,0.0,0.0,0.0,0.6976,0.7865,0.0,0.0,0.0,0.0,0.0,0.0,0.0,0.0,0.0,0.0,0.0,0.0,0.0,0.0,0.0,0.0,0.0,0.0,0.0,0.0,0.0,0.0,0.0,0.0,0.0,0.0,0.0,0.0,0.0,0.0,0.0,0.0,0.0,0.0,0.0,0.0,0.0,0.0,0.0,0.0,0.0,0.0,0.0,0.0,0.0,0.0,0.0,0.0,0.0,0.0,0.0,0.0,0.0,0.0,0.0,0.0,0.0,-0.4837,-0.3626,-0.1724,0.0889,0.1356,0.1677,0.2083,0.1885,0.0,0.0,0.0,0.0,0.0,0.0,0.0,0.0,0.0,0.0,0.0,0.0,0.0,0.0,0.0,0.0,0.0,0.0,0.0,0.0,0.0,0.0,0.0,0.0,0.0,0.0,0.0,-0.7546,0.0,0.0,0.0,0.0,0.0,0.0,0.0,0.0,0.0,0.0,0.0,0.0,0.0,0.0,0.3814,0.4985,0.5339,0.5736,0.0,0.0,0.7898,0.8614,0.905,0.9138,0.0,0.0,0.0,0.0,0.0,0.0,0.0,0.0,0.0,0.0,0.0,0.0,0.0,0.0,0.0,0.0,0.0,0.0,0.0,0.0,0.0,0.0,0.0,0.0,0.0,0.0,0.0,0.0,0.0,0.0,0.0,0.0,0.0,0.0,0.0,0.0,0.0,0.0,0.0,0.0,0.0,0.0,0.0,0.0,0.0,0.0,0.0,0.0,0.0,0.0,0.0,0.0,0.0,0.0,0.0,-0.4524,-0.3464,-0.1714,0.09,0.1336,0.1769,0.246,0.2363,0.173,0.0,0.0,0.0,0.0,0.0,0.0,0.0,0.0,0.0,0.0,0.0,0.0,0.0,0.0,0.0,0.0,0.0,0.0,0.0,0.0,0.0,0.0,0.0,0.0,0.0,0.0,0.0,0.0,0.0,0.0,0.0,0.0,0.0,0.0,0.0,0.0,0.0,0.0,0.0,0.0,0.0,0.4218,0.4984,0.5808,0.6986,0.0,0.0,1.022,1.2123,1.2504,1.2165,1.072,0.0,0.0,0.0,0.0,0.0,0.0,0.0,0.0,0.0,0.0,0.0,0.0,0.0,0.0,0.0,0.0,0.0,0.0,0.0,0.0,0.0,0.0,0.0,0.0,0.0,0.0,0.0,0.0,0.0,0.0,0.0,0.0,0.0,0.0,0.0,0.0,0.0,0.0,0.0,0.0,0.0,0.0,0.0,0.0,0.0,0.0,0.0,0.0,0.0,0.0,0.0,0.0,0.0,-0.7434,-0.4462,-0.3165,-0.1433,0.0879,0.17,0.2314,0.2762,0.3049,0.2845,0.0,0.0,0.0,0.0,0.0,0.0,0.0,0.0,0.0,0.0,0.0,0.0,0.0,0.0,0.0,0.0,0.0,0.0,0.0,0.0,0.0,0.0,0.0,0.0,0.0,0.0,0.0,0.0,-0.409,-0.341,-0.2297,0.0,0.0,0.0,0.0,0.0,0.0,0.0,0.0,0.0,0.0,0.4555,0.5324,0.6587,0.0,0.0,0.9474,1.0394,1.1807,1.2008,1.196,1.196,1.1384,0.0,0.0,0.0,0.0,0.0,0.0,0.0,0.0,0.0,0.0,0.0,0.0,0.0,0.0,0.0,0.0,0.0,0.0,0.0,0.0,0.0,0.0,0.0,0.0,0.0,0.0,0.0,0.0,0.0,0.0,0.0,0.0,0.0,0.0,0.0,0.0,0.0,0.0,0.0,0.0,0.0,0.0,0.0,0.0,0.0,0.0,0.0,0.0,0.0,0.0,0.0,0.0,-0.6911,-0.4119,-0.2879,-0.1226,0.0926,0.1996,0.2599,0.2897,0.354,0.3623,0.0,0.0,0.0,0.0,0.0,0.0,0.0,0.0,0.0,0.0,0.0,0.0,0.0,0.0,0.0,0.0,0.0,0.0,0.0,0.0,0.0,0.0,0.0,0.0,0.0,0.0,0.0,0.0,-0.2578,-0.1641,-0.0193,0.0,0.0,0.0,0.0,0.0,0.0,0.0,0.0,0.0,0.0,0.4827,0.5494,0.7155,0.8474,0.9045,0.9971,1.0967,1.1967,1.2129,1.237,1.3046,0.0,0.0,0.0,0.0,0.0,0.0,0.0,0.0,0.0,0.0,0.0,0.0,0.0,0.0,0.0,0.0,0.0,0.0,0.0,0.0,0.0,0.0,0.0,0.0,0.0,0.0,0.0,-1.9716,0.0,0.0,-2.3396,0.0,0.0,0.0,0.0,0.0,0.0,0.0,0.0,0.0,0.0,0.0,0.0,0.0,0.0,0.0,0.0,0.0,0.0,0.0,0.0,0.0,0.0,-0.6297,-0.3446,-0.2608,-0.1213,0.0925,0.1974,0.2632,0.2891,0.3739,0.403,0.3564,0.0,0.0,0.0,0.0,0.0,0.0,0.0,0.0,0.0,0.0,0.0,0.0,0.0,0.0,0.0,0.0,0.0,0.0,0.0,0.0,0.0,0.0,0.0,0.0,0.0,0.0,-0.1612,-0.1507,-0.1125,0.0,0.0,0.0,0.0,0.0,0.0,0.0,0.0,0.0,0.0,0.4084,0.4996,0.5474,0.7419,0.9087,0.992,1.1158,1.233,1.3178,1.373,1.4129,0.0,0.0,0.0,0.0,0.0,0.0,0.0,0.0,0.0,0.0,0.0,0.0,0.0,0.0,0.0,0.0,0.0,0.0,0.0,0.0,0.0,0.0,0.0,0.0,0.0,0.0,0.0,-1.6787,-1.7427,0.0,0.0,0.0,0.0,0.0,0.0,0.0,0.0,0.0,0.0,0.0,-0.4171,-0.2769,0.0,0.0,0.0,0.0,0.0,0.0,0.0,0.0,0.0,0.0,0.0,0.0,-0.4885,-0.3028,-0.1493,-0.006,0.1215,0.2248,0.2761,0.2748,0.3661,0.4005,0.3784,0.0,0.0,0.0,0.0,0.0,0.0,0.0,0.0,0.0,0.0,0.0,0.0,0.0,0.0,0.0,0.0,0.0,0.0,0.0,0.0,0.0,0.0,0.0,0.0,0.0,-0.0971,0.0,0.0,0.0,0.0,0.0,0.0,0.0,0.0,0.0,0.0,0.0,0.3818,0.4021,0.4839,0.5769,0.6669,0.8533,1.0346,0.0,0.0,0.0,0.0,0.0,0.0,0.0,0.0,0.0,0.0,0.0,0.0,0.0,0.0,1.1464,0.9045,0.857,0.8397,0.7922,0.0,0.0,0.0,0.0,0.0,0.0,0.0,0.0,0.0,0.0,0.0,0.0,0.0,0.0,-1.355,0.0,-1.529,0.0,0.0,0.0,0.0,0.0,0.0,0.0,0.0,-0.4243,-0.2645,-0.2047,-0.0517,-0.0115,0.0,-0.1558,-0.3178,0.0,0.0,0.0,0.0,0.0,0.0,0.0,0.0,-0.351,-0.1892,-0.041,0.0823,0.1674,0.2572,0.2954,0.2706,0.3467,0.4036,0.4247,0.3959,0.3412,0.0,0.0,0.0,0.0,0.0,0.0,0.0,0.0,0.0,0.0,0.0,0.0,0.0,0.0,0.0,0.0,0.0,0.0,0.0,0.0,0.0,0.0,0.0,0.0,0.0,0.0,0.0,0.0,0.0,0.0,0.0,0.0,0.0,0.3956,0.4315,0.4657,0.488,0.5736,0.6648,0.7426,0.0,0.0,0.0,0.0,0.0,0.0,0.0,1.4742,1.5625,1.6118,1.6451,1.6597,1.6311,1.5821,1.492,0.0,0.0,1.1109,1.0681,1.0461,0.9846,0.9883,0.9823,0.9473,0.9292,0.9115,0.0,0.0,0.0,0.0,0.0,0.0,0.0,0.0,-0.8833,-0.9212,0.0,-1.1708,0.0,0.0,0.0,0.0,0.0,-0.8454,0.0,0.0,-0.1731,-0.0284,-0.0336,0.1399,0.1846,0.0951,0.0,-0.0511,-0.0784,-0.3684,0.0,0.0,0.0,0.0,0.0,0.0,-0.2177,-0.0229,0.0574,0.1389,0.2293,0.2941,0.3094,0.2758,0.3228,0.3911,0.4749,0.4237,0.3905,0.3965,0.2557,0.0,0.0,0.0,0.0,0.0,0.0,0.0,0.0,0.0,0.0,0.0,0.0,0.0,0.0,0.0,0.0,0.0,0.0,0.0,0.0,0.1019,0.0,0.0,0.0,0.0,0.0,0.0,0.0,0.0,0.0,0.0,0.4926,0.4991,0.5112,0.5578,0.0,0.0,0.0,0.0,1.2281,1.2588,1.3722,1.4723,1.4922,1.5615,1.6155,1.6312,0.0,0.0,1.7057,1.6697,1.6215,1.5402,1.4946,1.4463,1.3729,1.3172,1.2831,1.2408,1.2455,1.2508,1.2223,1.1903,1.2045,-0.8701,0.0,0.0,0.0,0.0,-0.9939,-0.8879,-0.76,-0.6886,-0.6777,-0.7285,-0.8187,0.0,0.0,0.0,0.0,0.0,0.0,-0.5848,-0.4671,-0.1401,0.0276,0.0494,0.2696,0.3499,0.3026,0.2527,0.2183,0.1806,0.0162,-0.1559,-0.3284,0.0,0.0,0.0,0.0,-0.0113,0.0621,0.1656,0.2305,0.2605,0.301,0.3157,0.2993,0.3095,0.3395,0.385,0.3844,0.4054,0.4508,0.3748,0.0,0.0,0.0,0.0,0.0,0.0,0.0,0.0,0.0,0.0,0.0,0.0,0.0,0.0,0.0,0.0,0.0,0.0,0.0,0.1331,0.1581,0.1711,0.0,0.0,0.0,0.0,0.0,0.0,0.0,0.0,0.0,0.5855,0.5974,0.6081,0.0,0.0,0.8437,0.9385,1.1007,1.2574,1.3788,1.4678,0.0,1.6242,1.666,1.6953,1.7114,1.7198,1.7139,1.6697,1.6346,1.5759,1.4937,1.4714,1.4555,1.414,1.4172,1.3929,1.3237,1.3183,1.3213,1.2532,1.2338,1.2345,-0.6219,-0.7593,-0.91,-0.9156,-0.832,-0.8098,-0.7331,-0.6111,-0.5533,-0.538,-0.559,-0.617,-0.6758,-0.7281,-0.7646,0.0,0.0,0.0,-0.4789,-0.3862,-0.1335,0.0221,0.1102,0.2741,0.3642,0.3877,0.3617,0.3308,0.3062,0.2359,0.1288,-0.0111,0.0,0.0,-0.095,0.0448,0.1394,0.1943,0.2765,0.3302,0.3416,0.3243,0.3169,0.3082,0.2848,0.3013,0.357,0.3644,0.4027,0.4679,0.4474,0.3948,0.0,0.0,0.0,0.0,0.0,0.0,0.0,0.0,0.0,0.0,0.0,-0.0062,0.0556,0.0,0.0,0.0,0.1719,0.192,0.225,0.2501,0.0,0.0,0.0,0.0,0.0,0.0,0.0,0.5056,0.5153,0.5415,0.6105,0.6771,0.7178,0.7348,0.8414,0.9676,1.0861,0.0,1.3243,1.4313,1.4801,1.5316,1.5994,1.6506,1.6909,1.7317,1.7095,1.6697,1.6129,1.575,1.5305,1.4588,1.4519,1.4514,1.4449,1.4522,1.4372,1.3582,1.3578,1.3538,1.2821,1.2617,1.2596,-0.5283,-0.5647,-0.7235,-0.7731,-0.7418,-0.7035,-0.6318,-0.5386,-0.477,-0.4694,-0.4986,-0.5272,-0.5656,-0.6026,-0.6085,0.0,-0.4971,-0.4401,-0.3689,-0.2688,-0.1453,-0.0112,0.1287,0.1928,0.2787,0.3926,0.36,0.3379,0.3322,0.3322,0.3197,0.299,0.1137,0.044,0.0893,0.1621,0.244,0.3499,0.3836,0.4148,0.448,0.3586,0.3138,0.3082,0.2561,0.2696,0.3556,0.3561,0.3848,0.4582,0.4799,0.4402,0.3379,0.0,0.0,0.0,0.0,0.0,0.0,0.0,0.0,0.0,0.0,0.0,0.0,0.0,0.0,0.0,0.2891,0.0,0.3517,0.3574,0.0,0.0,0.0,0.4616,0.4865,0.4991,0.5179,0.5421,0.0,0.0,0.5855,0.7322,0.8395,0.8578,0.9839,1.1083,1.213,1.3199,1.4081,1.4288,1.4326,1.4496,1.5071,1.5749,1.6442,1.6992,1.6769,1.6164,1.5551,1.5211,1.4832,1.4342,1.4318,1.4423,1.4616,1.4473,1.4237,1.3796,1.3852,1.3763,1.3175,1.2942,1.2888,-0.5398,-0.593,-0.6738,-0.6822,-0.6471,-0.6373,-0.6063,-0.5475,-0.4907,-0.4375,-0.3948,-0.4002,-0.4236,-0.4535,-0.4817,-0.4658,-0.4147,-0.3813,-0.3421,-0.2914,-0.1574,-0.0219,0.1006,0.1818,0.2932,0.4129,0.3683,0.3484,0.3578,0.3373,0.3321,0.3363,0.2889,0.2627,0.2529,0.2914,0.3345,0.3823,0.3947,0.4148,0.448,0.3586,0.3138,0.3082,0.2307,0.2258,0.2937,0.297,0.354,0.4739,0.4715,0.4719,0.4845,0.4613,0.0,0.0,0.0,0.0,0.0,0.0,0.0,0.0,0.0,0.2333,0.2487,0.0,0.3405,0.0,0.385,0.4079,0.4189,0.4331,0.0,0.0,0.5186,0.5475,0.5602,0.6101,0.6346,0.6158,0.6158,0.6096,0.5916,0.7322,0.8482,0.9068,1.0819,1.2201,1.2561,1.3385,1.4081,1.4279,1.4449,1.4769,1.5441,1.6128,1.6676,1.7018,1.6358,1.573,1.5452,1.4957,1.4499,1.4228,1.4032,1.4105,1.432,1.4206,1.402,1.3836,1.377,1.3725,1.3274,1.3037,1.3029,-0.5536,-0.5936,-0.6441,-0.6533,-0.6483,-0.661,-0.6413,-0.5969,-0.5356,-0.4683,-0.402,-0.3316,-0.3306,-0.3813,-0.3586,-0.3567,-0.376,-0.3592,-0.3371,-0.304,-0.2244,-0.099,0.0671,0.1156,0.2285,0.3931,0.3743,0.3657,0.3779,0.3779,0.3728,0.366,0.366,0.3567,0.3316,0.3482,0.3758,0.4144,0.4463,0.4634,0.4598,0.3877,0.3324,0.3047,0.2457,0.2363,0.2721,0.2915,0.3431,0.4309,0.4743,0.5127,0.5382,0.5447,0.5368,0.0,0.0,0.0,0.0,0.0,0.0,0.0,0.0,0.0,0.0,0.0,0.4724,0.4707,0.4764,0.4885,0.5049,0.5201,0.5422,0.5673,0.6029,0.6328,0.6463,0.6747,0.678,0.6469,0.6403,0.628,0.5978,0.7561,0.8897,0.9262,1.1287,1.2828,1.318,1.3768,1.4222,1.4358,1.4489,1.4883,1.5567,1.6088,1.6385,1.6363,1.5827,1.523,1.5049,1.4686,1.4326,1.4066,1.4058,1.409,1.4114,1.3923,1.3699,1.3805,1.3661,1.3478,1.3172,1.2963,1.2861,-0.5708,-0.585,-0.6241,-0.6591,-0.6832,-0.716,-0.699,-0.6574,-0.5965,-0.5283,-0.4462,-0.2874,-0.2632,-0.3362,-0.2464,-0.252,-0.3418,-0.3418,-0.3306,-0.3194,-0.3138,-0.1959,0.0112,0.0331,0.1423,0.333,0.3713,0.39,0.3953,0.4219,0.4206,0.3999,0.3947,0.3813,0.3642,0.3589,0.3918,0.4467,0.5083,0.5214,0.4862,0.4262,0.372,0.3179,0.2888,0.2817,0.2974,0.3212,0.3444,0.3839,0.4933,0.5633,0.5601,0.6304,0.6719,0.0,0.6544,0.0,0.0,0.0,0.0,0.0,0.0,0.0,0.0,0.5818,0.5966,0.5858,0.5685,0.5605,0.5855,0.5908,0.6115,0.6594,0.6771,0.6967,0.713,0.7023,0.6837,0.6464,0.6403,0.628,0.6039,0.7861,0.9323,0.939,1.1386,1.2961,1.3537,1.3904,1.4301,1.4508,1.4574,1.4884,1.5442,1.5765,1.5863,1.56,1.5355,1.4945,1.4597,1.4431,1.4218,1.3976,1.3983,1.4098,1.399,1.3569,1.3446,1.3647,1.3438,1.322,1.303,1.2922,1.2786,-0.5765,-0.585,-0.6241,-0.6403,-0.6526,-0.6818,-0.682,-0.6579,-0.6443,-0.5709,-0.4445,-0.2861,-0.2297,-0.2409,-0.1569,-0.1626,-0.2464,-0.2464,-0.2856,-0.3474,-0.325,-0.2464,-0.1343,-0.0167,0.1106,0.2348,0.3374,0.4025,0.4246,0.4354,0.4392,0.4401,0.4126,0.3968,0.3924,0.0,0.0,0.0,0.4943,0.5204,0.5138,0.4531,0.4231,0.4231,0.3642,0.0,0.3771,0.3876,0.405,0.4395,0.5467,0.0,0.0,0.0,0.0,0.0,0.0,0.0,0.0,0.0,0.0,0.0,0.9229,0.8391,0.6882,0.6817,0.6769,0.6307,0.6267,0.6096,0.5916,0.5851,0.6012,0.6429,0.6687,0.6858,0.6921,0.7194,0.7082,0.6464,0.6403,0.628,0.6162,0.7867,0.914,0.914,1.1111,1.2673,1.2802,1.3457,1.4003,1.432,1.4657,1.4959,1.5252,1.5611,1.5718,1.5472,1.5301,1.5102,1.4703,1.4212,1.3976,1.3943,1.3686,1.3453,1.3641,1.3405,1.3267,1.3487,1.3336,1.3166,1.3132,1.3112,1.3057,-0.5806,0.0,-0.608,-0.6219,0.0,-0.6591,-0.6538,-0.635,-0.635,-0.566,-0.4424,-0.2856,-0.2185,-0.2127,-0.1289,-0.1177,-0.1569,-0.1569,-0.2073,-0.2856,-0.2297,-0.1681,-0.1064,0.0224,0.1449,0.2598,0.3542,0.4095,0.4371,0.454,0.4668,0.4704,0.4372,0.4148,0.398,0.3804,0.3881,0.4317,0.4712,0.512,0.5388,0.4915,0.4721,0.48,0.4404,0.0,0.0,0.0,0.0,0.0,0.0,0.0,0.0,0.9161,0.0,1.0578,1.0333,1.0133,1.0044,1.0362,1.0395,0.9938,0.9996,0.9354,0.7806,0.7747,0.7625,0.7194,0.6832,0.6591,0.6407,0.6237,0.6228,0.6582,0.6911,0.7084,0.7133,0.7327,0.7138,0.6526,0.6403,0.6464,0.6648,0.7983,0.914,0.9572,1.1209,1.2492,1.2627,1.3243,1.3987,1.4508,1.477,1.4997,1.5139,1.5285,1.5339,1.5041,1.4999,1.4864,1.4536,1.417,1.3927,1.3793,1.3395,1.3127,1.3096,1.3061,1.3003,1.3146,1.318,1.3173,1.3173,1.3119,1.3078,-0.5908,-0.5916,-0.5916,-0.6039,-0.6215,-0.6202,-0.6026,-0.5856,0.0,0.0,0.0,-0.2912,-0.2185,-0.2127,-0.1121,-0.0729,-0.0897,-0.0729,-0.1121,-0.1905,-0.1234,-0.0728,-0.0448,0.0672,0.1791,0.28,0.3589,0.4092,0.4424,0.4763,0.4931,0.4875,0.4704,0.4369,0.4027,0.3793,0.3915,0.4293,0.4543,0.4921,0.5444,0.5218,0.5122,0.5157,0.507,0.5014,0.4835,0.5885,0.6477,0.6482,0.7727,0.8986,1.0029,1.0136,1.0532,1.1469,1.0762,1.0194,0.9985,1.0287,1.0303,0.9959,1.0069,0.97,0.8665,0.8549,0.8305,0.7933,0.7327,0.6903,0.6841,0.6526,0.6469,0.6775,0.7082,0.7199,0.7199,0.7199,0.6954,0.6464,0.6285,0.6587,0.725,0.8105,0.9086,1.024,1.1329,1.2206,1.2662,1.3367,1.4125,1.4697,1.4856,1.4941,1.5072,1.5076,1.4868,1.4658,1.4677,1.4642,1.427,1.4066,1.3892,1.3467,1.3209,1.2972,1.2783,1.2779,1.282,1.305,1.3253,1.3343,1.3445,1.339,1.3464,-0.6149,-0.5916,-0.5916,-0.5732,-0.554,-0.5464,-0.5223,-0.4836,-0.4768,-0.4613,-0.4424,-0.2856,-0.2185,-0.2127,-0.0504,-0.0224,-0.0841,-0.0112,-0.028,-0.1065,-0.0953,-0.0897,-0.0785,0.0393,0.1177,0.1679,0.297,0.3813,0.4092,0.4651,0.4931,0.4875,0.4875,0.454,0.4027,0.3634,0.3734,0.4219,0.4467,0.4734,0.5093,0.524,0.5383,0.5475,0.5595,0.569,0.5739,0.6212,0.6379,0.6221,0.7381,0.8615,0.9801,1.0539,1.1299,1.2181,1.2091,1.1891,1.1526,1.1819,1.1768,1.116,1.0591,0.9983,0.9214,0.8976,0.8549,0.7994,0.7388,0.678,0.6469,0.6223,0.6162,0.6469,0.6526,0.6526,0.6587,0.6587,0.6464,0.6039,0.5978,0.6403,0.725,0.7867,0.8903,1.0361,1.1368,1.189,1.3011,1.368,1.4281,1.4744,1.4866,1.4885,1.4815,1.4873,1.474,1.4371,1.4627,1.458,1.4014,1.3823,1.3571,1.3238,1.2951,1.2742,1.2718,1.284,1.3102,1.3475,1.3619,1.386,1.4303,1.4509,1.4619,-0.6219,-0.5916,-0.5732,-0.5544,-0.5349,-0.5103,-0.4812,-0.4589,-0.4346,-0.4201,-0.4148,-0.3304,-0.2688,-0.2127,-0.0896,-0.028,-0.0168,0.0729,0.0673,-0.0112,0.0336,0.028,-0.0056,0.1065,0.1794,0.2129,0.2912,0.3589,0.4036,0.4484,0.4763,0.4875,0.4763,0.4484,0.403,0.3611,0.362,0.4048,0.4167,0.4637,0.53,0.5516,0.5718,0.6032,0.6145,0.6231,0.6282,0.697,0.7304,0.7197,0.8307,0.9306,0.9959,1.0406,1.0954,1.161,1.1282,1.1037,1.11,1.1077,1.1062,1.1077,1.111,1.0846,1.0186,0.9822,0.9518,0.9207,0.8416,0.7805,0.75,0.6709,0.628,0.6653,0.653,0.6403,0.6403,0.6403,0.628,0.6039,0.6403,0.695,0.7561,0.8538,0.9572,1.0921,1.1776,1.2702,1.3608,1.3877,1.4104,1.4333,1.4433,1.4467,1.445,1.4497,1.4423,1.4178,1.4209,1.4155,1.3823,1.3634,1.3384,1.3154,1.2972,1.2754,1.2667,1.2968,1.3331,1.3481,1.3974,1.4356,1.4698,1.5294,1.5597,-0.6285,-0.5855,-0.5544,-0.5287,-0.5136,-0.472,-0.4448,-0.4364,-0.4082,-0.3939,-0.3868,-0.3701,-0.3194,-0.252,-0.1625,-0.0729,0.0168,0.1065,0.1177,0.0841,0.1458,0.1402,0.0841,0.1682,0.23,0.258,0.2861,0.3306,0.3813,0.4201,0.4536,0.4819,0.4704,0.4424,0.4148,0.3749,0.3714,0.3869,0.392,0.4398,0.536,0.5613,0.5903,0.6333,0.6485,0.6546,0.6627,0.7491,0.7893,0.7899,0.8777,0.9471,0.9794,0.9794,1.0069,1.0453,1.0107,0.9943,1.0322,1.0201,1.0299,1.0959,1.1458,1.1631,1.145,1.1148,1.0785,1.0361,0.9329,0.8538,0.8233,0.7194,0.653,0.6714,0.6591,0.6403,0.628,0.628,0.6219,0.6039,0.6644,0.7317,0.8111,0.9147,1.02,1.1301,1.2623,1.3608,1.3906,1.3891,1.3809,1.3765,1.3944,1.4218,1.422,1.419,1.4187,1.4027,1.3818,1.3644,1.3504,1.3282,1.3115,1.2972,1.2881,1.2825,1.2775,1.3042,1.3483,1.3829,1.434,1.4809,1.531,1.5988,1.6505,-0.6469,-0.5916,-0.5544,-0.5011,-0.4409,-0.4093,-0.39,-0.3799,-0.3728,-0.3694,-0.3645,-0.3589,-0.3701,-0.3645,-0.2576,-0.1569,-0.0729,0.0168,0.0953,0.157,0.1738,0.1738,0.1626,0.1794,0.1964,0.23,0.258,0.2917,0.325,0.3813,0.4316,0.4819,0.4875,0.4707,0.4418,0.4024,0.3881,0.3881,0.3856,0.4136,0.4782,0.5259,0.5645,0.5827,0.6223,0.6474,0.6643,0.7157,0.7342,0.7137,0.7584,0.8103,0.8595,0.865,0.8809,0.9092,0.944,0.9767,1.0068,0.9954,1.0347,1.1511,1.1511,1.1993,1.3204,1.3075,1.2294,1.0959,0.9323,0.8532,0.8294,0.7194,0.6464,0.6517,0.6464,0.628,0.6039,0.5916,0.5916,0.5916,0.6403,0.7011,0.8355,0.8909,0.9754,1.1918,1.3106,1.3879,1.3693,1.36,1.3451,1.3361,1.3704,1.4137,1.4164,1.4223,1.3982,1.3563,1.3522,1.3344,1.3052,1.2899,1.2844,1.2741,1.2622,1.2726,1.3106,1.3447,1.3785,1.4551,1.5051,1.5416,1.6321,1.6792,1.7049,-0.6703,-0.6101,-0.5425,-0.4706,-0.4099,-0.3883,-0.3816,-0.3679,-0.364,-0.3723,-0.3815,-0.3645,-0.3645,-0.3701,-0.2688,-0.2017,-0.1569,-0.0224,0.0617,0.1009,0.1514,0.1794,0.1794,0.1794,0.1964,0.2188,0.2524,0.2861,0.3194,0.3921,0.4484,0.4875,0.4931,0.4763,0.4477,0.412,0.3993,0.3938,0.4131,0.4388,0.4822,0.516,0.5575,0.6074,0.6329,0.6567,0.6797,0.7045,0.7094,0.7046,0.726,0.7487,0.7709,0.7709,0.782,0.8165,0.8817,0.9439,1.0066,1.0102,1.0604,1.1692,1.2174,1.2784,1.3624,1.3748,1.3377,1.2319,1.0598,0.9472,0.9226,0.7768,0.663,0.6584,0.649,0.628,0.5916,0.5916,0.5916,0.5978,0.7016,0.7922,0.8665,0.9883,1.1356,1.2843,1.3753,1.3951,1.3808,1.3664,1.3453,1.3358,1.3617,1.3811,1.3838,1.3945,1.3815,1.346,1.3164,1.2924,1.2741,1.26,1.2557,1.251,1.2671,1.2888,1.3319,1.3771,1.4214,1.5027,1.579,1.6221,1.6701,1.7073,1.7486,-0.6802,-0.6289,-0.5302,-0.4536,-0.388,-0.3837,-0.3774,-0.3703,-0.3657,-0.3731,-0.3871,-0.3717,-0.3613,-0.3554,-0.2865,-0.2464,-0.2017,-0.0616,0.0168,0.0505,0.1346,0.1794,0.1794,0.1794,0.1908,0.2132,0.2412,0.2748,0.3138,0.3921,0.448,0.4763,0.4875,0.4819,0.4592,0.4372,0.4204,0.4148,0.4369,0.4648,0.4864,0.5036,0.541,0.6056,0.6349,0.6577,0.6877,0.6991,0.7067,0.7035,0.7199,0.7187,0.721,0.721,0.741,0.7832,0.8551,0.9275,0.9951,1.0123,1.0725,1.1933,1.2724,1.3384,1.4083,1.4321,1.4055,1.3231,1.1475,1.0215,0.9874,0.8142,0.6906,0.67,0.6589,0.6403,0.5978,0.5916,0.5916,0.6162,0.7439,0.8775,0.9348,1.1133,1.2888,1.3465,1.377,1.3911,1.3726,1.3535,1.3361,1.3396,1.3413,1.3456,1.3623,1.3657,1.3603,1.3269,1.2934,1.2656,1.2533,1.2409,1.2398,1.2517,1.2776,1.3274,1.3712,1.4199,1.47,1.5338,1.6068,1.6609,1.6893,1.7291,1.7607,-0.6802,-0.6285,-0.5302,-0.4502,-0.3881,-0.3873,-0.3872,-0.3758,-0.3813,-0.375,-0.3658,-0.3646,-0.3673,-0.3668,-0.3506,-0.3029,-0.2185,-0.1234,-0.0393,0.0393,0.1347,0.1795,0.1794,0.1794,0.1853,0.1968,0.2193,0.2582,0.3138,0.3703,0.4204,0.448,0.4763,0.4875,0.4819,0.4819,0.4707,0.448,0.4536,0.4648,0.4875,0.4923,0.5163,0.5667,0.6047,0.6378,0.6587,0.703,0.7263,0.7204,0.7258,0.7274,0.7232,0.7221,0.7601,0.8396,0.8908,0.9347,0.9774,0.9876,1.0664,1.2294,1.2724,1.3504,1.5056,1.4837,1.4153,1.3278,1.1455,1.0158,0.9769,0.8108,0.6911,0.676,0.6775,0.6587,0.5978,0.5916,0.6039,0.6403,0.75,0.8964,1.0861,1.237,1.3091,1.3356,1.3436,1.3473,1.3424,1.312,1.3094,1.3202,1.321,1.3082,1.3657,1.3523,1.3174,1.299,1.272,1.2377,1.225,1.2176,1.2325,1.2544,1.3028,1.349,1.4169,1.4789,1.533,1.5865,1.6108,1.6584,1.7023,1.7242,1.7559,-0.6549,-0.5425,-0.5056,-0.4506,-0.3946,-0.391,-0.3845,-0.3768,-0.3786,-0.3665,-0.3608,-0.3651,-0.3679,-0.3679,-0.3698,-0.3509,-0.302,-0.1651,-0.0736,-0.0281,0.1077,0.1938,0.2112,0.2189,0.2302,0.2451,0.2506,0.2774,0.3145,0.374,0.4079,0.4263,0.4707,0.4819,0.4704,0.4819,0.4875,0.4763,0.4763,0.4875,0.5214,0.5214,0.533,0.5518,0.5833,0.6195,0.6599,0.6689,0.6884,0.716,0.7043,0.709,0.7285,0.7573,0.7979,0.8555,0.8978,0.9367,0.9734,1.0004,1.0846,1.2475,1.2904,1.3624,1.4857,1.4754,1.4192,1.3358,1.1454,1.0162,0.9783,0.839,0.716,0.7075,0.6953,0.6714,0.6285,0.6039,0.6039,0.6587,0.8111,1.0112,1.149,1.2961,1.3598,1.3358,1.3404,1.3483,1.3367,1.3195,1.3076,1.3243,1.3197,1.3138,1.3421,1.3182,1.2904,1.2798,1.2598,1.2545,1.2412,1.2223,1.2372,1.2585,1.3049,1.3721,1.4376,1.5171,1.5817,1.6281,1.6519,1.6771,1.7201,1.7437,1.7729,-0.6402,-0.5309,-0.4995,-0.4564,-0.4069,-0.3968,-0.3856,-0.3852,-0.3733,-0.3684,-0.3659,-0.3689,-0.3717,-0.3802,-0.3801,-0.3796,-0.3561,-0.1915,-0.0978,-0.0514,0.098,0.1855,0.2148,0.2346,0.246,0.2665,0.2764,0.2853,0.3002,0.3545,0.3885,0.4073,0.4578,0.4743,0.4739,0.4942,0.5043,0.5043,0.5098,0.5166,0.5418,0.5422,0.5463,0.5529,0.5663,0.5973,0.6483,0.6555,0.6732,0.7069,0.707,0.7112,0.7347,0.7915,0.8372,0.87,0.9168,0.9533,0.9802,1.0308,1.1209,1.2535,1.3255,1.3973,1.4917,1.4685,1.4192,1.3231,1.1624,1.0265,0.9703,0.8503,0.7459,0.7135,0.6958,0.6714,0.628,0.6039,0.6346,0.7317,0.8836,1.0536,1.1957,1.2908,1.3278,1.3152,1.3216,1.322,1.321,1.3128,1.3108,1.3327,1.2974,1.2928,1.2993,1.2741,1.2648,1.254,1.2495,1.2483,1.2475,1.2347,1.235,1.264,1.3133,1.3895,1.4754,1.5557,1.61,1.66,1.6795,1.699,1.7348,1.7656,1.7867,-0.6539,-0.5794,-0.5179,-0.4687,-0.4253,-0.4066,-0.3913,-0.3787,-0.3793,-0.3819,-0.3808,-0.3824,-0.3796,-0.3853,-0.3902,-0.3846,-0.343,-0.2077,-0.1,-0.0117,0.0941,0.165,0.2005,0.2308,0.2426,0.2474,0.2669,0.2762,0.2704,0.3109,0.3566,0.402,0.4404,0.4679,0.4933,0.5137,0.5326,0.5382,0.5326,0.5418,0.5492,0.5496,0.5545,0.5572,0.5639,0.5814,0.612,0.6589,0.6871,0.6978,0.728,0.746,0.7593,0.8225,0.8653,0.8803,0.9379,0.9748,0.9876,1.0725,1.1631,1.2655,1.3614,1.4391,1.4808,1.4748,1.4073,1.2808,1.1547,1.04,0.9425,0.8471,0.7591,0.6895,0.6906,0.6653,0.6162,0.5978,0.6648,0.8288,0.9505,1.0475,1.1732,1.2534,1.2792,1.2817,1.2786,1.2823,1.2865,1.2889,1.3019,1.3134,1.2928,1.2685,1.2509,1.2301,1.2306,1.2304,1.2282,1.2258,1.2381,1.2386,1.2451,1.2678,1.3516,1.4297,1.5487,1.6216,1.6418,1.6787,1.6982,1.721,1.7502,1.7778,1.7892,-0.6589,-0.5859,-0.5421,-0.4684,-0.3881,-0.4069,-0.3852,-0.3317,-0.3657,-0.3869,-0.3841,-0.3872,-0.3902,-0.3869,-0.3924,-0.3446,-0.2571,-0.2009,-0.1382,-0.0473,0.0774,0.1676,0.2159,0.242,0.242,0.2515,0.2977,0.2895,0.2635,0.2982,0.3371,0.3564,0.3981,0.4349,0.4694,0.4942,0.5158,0.5382,0.5382,0.5422,0.55,0.5508,0.5582,0.572,0.5737,0.5825,0.5948,0.6073,0.63,0.6652,0.6828,0.7169,0.7665,0.8414,0.8848,0.8914,0.9431,0.9822,0.9943,1.0725,1.1752,1.2655,1.3614,1.4282,1.4699,1.465,1.3923,1.2535,1.139,1.0429,0.9396,0.8482,0.7789,0.7514,0.7123,0.6841,0.6591,0.6959,0.7683,0.8714,0.999,1.1134,1.1914,1.2451,1.2719,1.2736,1.2789,1.2823,1.28,1.2929,1.3092,1.3251,1.2828,1.2555,1.2611,1.2443,1.2275,1.225,1.2271,1.2285,1.2408,1.2431,1.2494,1.2954,1.3796,1.4803,1.5937,1.6584,1.6763,1.7006,1.733,1.7567,1.7705,1.7867,1.809,-0.6802,-0.6228,-0.5605,-0.4868,-0.4066,-0.4315,-0.3988,-0.3403,-0.3688,-0.385,-0.3845,-0.385,-0.3935,-0.3836,-0.3566,-0.296,-0.2157,-0.1603,-0.0915,-0.03,0.0666,0.1521,0.2068,0.2394,0.2457,0.2494,0.2841,0.2761,0.2379,0.285,0.319,0.3333,0.3821,0.4252,0.4569,0.485,0.5184,0.5382,0.5463,0.552,0.5594,0.561,0.568,0.5806,0.5831,0.5859,0.5908,0.5859,0.6047,0.6423,0.6765,0.716,0.7653,0.8265,0.8793,0.8976,0.9342,0.964,0.9883,1.1088,1.2053,1.2775,1.3913,1.4639,1.459,1.4351,1.3435,1.2354,1.0967,1.0004,0.9275,0.8482,0.7933,0.7689,0.7199,0.6841,0.6719,0.7261,0.7989,0.8848,1.0046,1.1172,1.1934,1.2366,1.2741,1.2627,1.2757,1.2888,1.2808,1.2978,1.3165,1.3247,1.2935,1.2802,1.2889,1.2645,1.2313,1.2285,1.225,1.2388,1.2546,1.2474,1.2417,1.32,1.4066,1.4929,1.6057,1.6575,1.6933,1.7306,1.7755,1.8043,1.8242,1.8383,1.8499,-0.7003,-0.6799,-0.5863,-0.519,-0.4758,-0.4567,-0.4192,-0.3815,-0.3894,-0.3897,-0.3924,-0.3891,-0.3897,-0.3692,-0.3022,-0.2529,-0.2157,-0.0863,0.0,0.043,0.0924,0.1355,0.1725,0.2281,0.2464,0.2459,0.2492,0.2416,0.2354,0.2708,0.3073,0.3362,0.3823,0.435,0.4578,0.4995,0.5242,0.5422,0.5536,0.5667,0.5813,0.5825,0.5871,0.5965,0.5965,0.597,0.5912,0.5908,0.6031,0.6399,0.694,0.7245,0.7505,0.8,0.8488,0.8793,0.9159,0.9457,1.0058,1.1511,1.2595,1.2775,1.4341,1.5304,1.465,1.3854,1.3015,1.1993,1.0422,0.9275,0.897,0.836,0.775,0.7388,0.7021,0.6591,0.6101,0.6888,0.7983,0.8799,0.9869,1.1039,1.1945,1.2277,1.2457,1.2604,1.2677,1.2702,1.2856,1.3043,1.3197,1.312,1.3026,1.2917,1.2941,1.2674,1.2394,1.2422,1.2553,1.2783,1.2951,1.2872,1.2956,1.3762,1.4498,1.5283,1.5996,1.6649,1.7378,1.7892,1.8307,1.8583,1.8736,1.877,1.8642,-0.715,-0.7058,-0.6168,-0.5265,-0.4443,-0.4586,-0.4133,-0.3391,-0.3751,-0.3871,-0.3884,-0.3935,-0.3871,-0.3764,-0.2899,-0.2281,-0.1541,-0.0493,0.0308,0.0864,0.1235,0.1544,0.1853,0.2282,0.2344,0.2221,0.2333,0.2329,0.2146,0.2426,0.2716,0.3011,0.3465,0.3849,0.4294,0.4653,0.4991,0.5265,0.5514,0.581,0.6129,0.6142,0.6185,0.6272,0.628,0.6162,0.5916,0.5916,0.6039,0.6403,0.6526,0.6893,0.7322,0.7816,0.8183,0.8549,0.9037,0.9335,0.9822,1.145,1.2595,1.2835,1.4461,1.5294,1.465,1.3734,1.2586,1.139,1.0004,0.8909,0.8116,0.7689,0.7261,0.6771,0.6591,0.6407,0.6342,0.7378,0.8593,0.8976,1.0512,1.165,1.2105,1.2385,1.2564,1.271,1.2775,1.2824,1.3003,1.3146,1.3279,1.3255,1.3199,1.3067,1.2914,1.2637,1.2524,1.2551,1.2866,1.3305,1.3533,1.3843,1.4102,1.4641,1.5287,1.6056,1.6536,1.7015,1.7739,1.8406,1.8632,1.8886,1.8904,1.8837,1.8642,-0.725,-0.7134,-0.6341,-0.5234,-0.4216,-0.4345,-0.3884,-0.3207,-0.3332,-0.3702,-0.3825,-0.3889,-0.3702,-0.3209,-0.2281,-0.1418,-0.0616,0.037,0.1049,0.1358,0.1483,0.1668,0.1977,0.2222,0.216,0.2038,0.2222,0.216,0.2096,0.2323,0.2619,0.298,0.3259,0.3712,0.4225,0.4429,0.484,0.5182,0.5435,0.5726,0.6073,0.6259,0.6341,0.646,0.6469,0.6469,0.6162,0.5978,0.5978,0.6162,0.6342,0.6648,0.7143,0.7505,0.7877,0.8372,0.8854,0.9159,0.97,1.139,1.2595,1.3015,1.4401,1.4937,1.4401,1.3315,1.1796,1.0906,0.9579,0.8421,0.7627,0.7138,0.6832,0.6464,0.628,0.628,0.6464,0.7977,0.8977,0.9828,1.1021,1.2288,1.241,1.2564,1.2743,1.2889,1.2938,1.3043,1.3189,1.3287,1.3372,1.33,1.3147,1.3013,1.2842,1.2609,1.2838,1.2951,1.3916,1.4258,1.4533,1.4841,1.4959,1.5436,1.6117,1.6661,1.6939,1.7278,1.801,1.8583,1.8877,1.9239,1.9343,1.9209,1.9023,-0.7326,-0.7167,-0.637,-0.5378,-0.4356,-0.4105,-0.383,-0.3268,-0.3207,-0.3394,-0.364,-0.3702,-0.3145,-0.2281,-0.1295,-0.037,0.0493,0.1296,0.1791,0.1853,0.1668,0.1668,0.1853,0.1915,0.1977,0.1977,0.2038,0.2038,0.2037,0.2281,0.2589,0.2891,0.3262,0.3671,0.4062,0.4337,0.4703,0.5154,0.5365,0.5636,0.6018,0.6324,0.6517,0.6521,0.6714,0.6653,0.6407,0.6162,0.5978,0.5916,0.6223,0.6469,0.6837,0.7204,0.7633,0.8183,0.861,0.8976,0.9518,1.1209,1.2595,1.2895,1.4152,1.4878,1.4282,1.2766,1.1322,1.0853,0.9025,0.7933,0.7327,0.6775,0.6407,0.6285,0.6166,0.6605,0.7475,0.8476,0.948,1.0509,1.1782,1.2459,1.2677,1.28,1.2988,1.3203,1.3218,1.3358,1.3384,1.3324,1.3318,1.3313,1.3089,1.2932,1.2796,1.265,1.3014,1.3468,1.4954,1.5644,1.575,1.591,1.5838,1.6122,1.6685,1.6888,1.6993,1.7568,1.8342,1.8995,1.9441,1.9882,2.013,1.9851,1.9573,-0.7479,-0.7384,-0.6562,-0.5896,-0.5383,-0.4986,-0.4549,-0.401,-0.3766,-0.3273,-0.2899,-0.2837,-0.2219,-0.1295,-0.037,0.0308,0.0678,0.1544,0.1977,0.1977,0.1668,0.1544,0.1606,0.1606,0.173,0.1915,0.1977,0.2038,0.2038,0.2099,0.2284,0.2652,0.296,0.3328,0.3687,0.4177,0.4619,0.4971,0.523,0.5667,0.6158,0.653,0.6775,0.6837,0.6898,0.6714,0.6469,0.6342,0.6162,0.5978,0.5978,0.6223,0.6526,0.6837,0.7204,0.7694,0.8183,0.8671,0.9281,1.0785,1.2174,1.2784,1.3863,1.465,1.4471,1.2526,1.1261,1.0543,0.9086,0.775,0.7082,0.6407,0.6166,0.6241,0.6779,0.7567,0.8511,0.8969,0.9669,1.0728,1.1844,1.2693,1.2976,1.3326,1.3486,1.3503,1.3578,1.3659,1.351,1.3436,1.3346,1.3248,1.2984,1.2803,1.2811,1.3007,1.3762,1.4483,1.5998,1.7027,1.7143,1.721,1.7121,1.7031,1.7084,1.7266,1.7361,1.7867,1.86,1.9306,1.9864,2.0123,2.0299,2.0159,2.0103,-0.7526,-0.745,-0.6617,-0.5896,-0.5328,-0.4996,-0.4545,-0.3995,-0.3491,-0.2981,-0.2531,-0.2219,-0.1356,-0.0308,0.0248,0.0683,0.1237,0.1679,0.1997,0.1872,0.156,0.1373,0.1369,0.1239,0.1236,0.173,0.1915,0.1977,0.2038,0.2038,0.216,0.2467,0.2714,0.3022,0.3455,0.3825,0.4195,0.4622,0.4995,0.5421,0.5912,0.6591,0.7143,0.7266,0.7204,0.6959,0.6653,0.6469,0.6223,0.5978,0.5916,0.6039,0.6342,0.6591,0.6898,0.7383,0.7872,0.8427,0.9159,1.0725,1.2174,1.2664,1.3873,1.4411,1.4043,1.2475,1.1148,1.0422,0.9147,0.7627,0.6964,0.6285,0.6113,0.6717,0.7199,0.8278,0.9576,1.0059,1.0467,1.1468,1.2459,1.2988,1.3392,1.3703,1.3891,1.3883,1.389,1.3911,1.3641,1.349,1.3313,1.3141,1.2849,1.272,1.2811,1.339,1.4563,1.5673,1.7129,1.8035,1.8497,1.8503,1.842,1.8092,1.7616,1.7672,1.7845,1.8441,1.8889,1.947,1.9971,2.0199,2.0336,2.0354,2.0208,-0.7474,-0.7383,-0.6634,-0.5803,-0.5122,-0.4936,-0.4616,-0.3925,-0.3099,-0.2762,-0.2295,-0.167,-0.0558,0.0434,0.0752,0.1314,0.175,0.1935,0.2005,0.1961,0.1443,0.1319,0.1379,0.112,0.105,0.1483,0.173,0.1915,0.1977,0.2038,0.2099,0.2406,0.2529,0.2775,0.3209,0.3517,0.3825,0.4315,0.4749,0.5114,0.5605,0.6407,0.7143,0.7627,0.7627,0.7327,0.6959,0.6653,0.6342,0.6039,0.5916,0.6039,0.628,0.6403,0.6648,0.7266,0.7627,0.8183,0.9092,1.0717,1.2165,1.2655,1.3803,1.4291,1.3744,1.2234,1.0967,0.9937,0.8787,0.7383,0.6837,0.6315,0.6536,0.7276,0.7687,0.8892,1.0483,1.1221,1.1755,1.2362,1.2955,1.3368,1.377,1.4059,1.4199,1.425,1.4248,1.4148,1.3865,1.3574,1.3369,1.308,1.283,1.2944,1.3056,1.4258,1.5365,1.6501,1.8,1.8819,1.9451,1.9142,1.8838,1.8321,1.8067,1.8067,1.8124,1.8557,1.9007,1.9572,2.0203,2.0577,2.0624,2.0552,2.0517,-0.7463,-0.7054,-0.6635,-0.6253,-0.5993,-0.5711,-0.5469,-0.5144,-0.3917,-0.2929,-0.2072,-0.0816,0.0314,0.1131,0.1636,0.1901,0.2035,0.202,0.2018,0.1976,0.1577,0.144,0.1448,0.1306,0.1298,0.1421,0.1606,0.173,0.1977,0.2038,0.2038,0.2099,0.2344,0.259,0.2899,0.3145,0.364,0.4069,0.4564,0.4991,0.5483,0.6346,0.7204,0.7811,0.775,0.7627,0.7327,0.6959,0.6653,0.6342,0.6039,0.5978,0.6039,0.6219,0.6591,0.6959,0.7322,0.7877,0.897,1.0475,1.1623,1.2414,1.3564,1.3744,1.3024,1.1692,1.0482,0.9275,0.8116,0.6898,0.653,0.616,0.6589,0.7461,0.8591,0.9632,1.0955,1.1846,1.2389,1.28,1.3278,1.3763,1.4035,1.4301,1.4406,1.4431,1.4376,1.4215,1.3904,1.3647,1.3356,1.3064,1.2768,1.3141,1.3403,1.5039,1.6426,1.7349,1.8565,1.942,1.9762,1.9457,1.9061,1.8566,1.8148,1.8034,1.8283,1.8734,1.9444,2.013,2.0591,2.1044,2.1044,2.1054,2.1258,-0.5873,-0.6111,-0.5772,-0.593,-0.6332,-0.6257,-0.6012,-0.5548,-0.4104,-0.2894,-0.1774,-0.0315,0.0883,0.1454,0.1909,0.2059,0.2068,0.2045,0.2049,0.2005,0.1725,0.1584,0.1526,0.1374,0.1369,0.1368,0.1365,0.1544,0.1915,0.1791,0.1853,0.2038,0.216,0.2407,0.2714,0.3083,0.3453,0.3887,0.4379,0.481,0.5237,0.6285,0.7143,0.7505,0.7811,0.7689,0.7444,0.7266,0.6898,0.6464,0.6219,0.6101,0.6039,0.6101,0.6346,0.6837,0.7082,0.7694,0.8915,1.0361,1.1615,1.2475,1.3513,1.3744,1.2895,1.1692,1.0058,0.8543,0.751,0.6614,0.6478,0.6219,0.6909,0.8284,0.9186,1.026,1.1599,1.2534,1.2813,1.2986,1.3319,1.3747,1.4165,1.4363,1.4632,1.4604,1.4566,1.4252,1.3992,1.3751,1.3513,1.3439,1.3312,1.3804,1.4376,1.5793,1.7087,1.807,1.9048,1.9911,2.0069,1.9715,1.92,1.8608,1.8365,1.8183,1.8688,1.9228,1.9987,2.0559,2.094,2.1243,2.1479,2.1678,2.182,-0.439,-0.5279,-0.4925,-0.5434,-0.6392,-0.6522,-0.6148,-0.5363,-0.3902,-0.2732,-0.1776,-0.0063,0.1015,0.1462,0.1861,0.208,0.211,0.2076,0.2075,0.2104,0.1882,0.1676,0.1606,0.1458,0.1443,0.1643,0.1188,0.1365,0.18,0.167,0.173,0.1915,0.2038,0.2284,0.2775,0.296,0.3332,0.3764,0.4195,0.4564,0.5302,0.6223,0.7021,0.7388,0.7689,0.775,0.7566,0.7449,0.7082,0.6648,0.6403,0.6219,0.5978,0.5916,0.6162,0.6653,0.6841,0.7633,0.8787,1.0179,1.1442,1.2414,1.3444,1.3504,1.2775,1.1261,0.9511,0.775,0.6865,0.6712,0.6844,0.6674,0.7671,0.9228,1.0058,1.0677,1.214,1.3009,1.3106,1.3265,1.346,1.3797,1.4163,1.4369,1.4559,1.4557,1.4445,1.4361,1.4066,1.3966,1.3837,1.39,1.4045,1.4569,1.5424,1.6593,1.7706,1.8539,1.9531,2.0343,2.02,1.9913,1.9284,1.8788,1.8482,1.8406,1.9118,1.9609,1.9981,2.0422,2.1018,2.1475,2.188,2.2107,2.2275,-0.4253,-0.4869,-0.4812,-0.5453,-0.6388,-0.6522,-0.5912,-0.4827,-0.3684,-0.2641,-0.1607,-0.0129,0.0836,0.1286,0.1802,0.2097,0.211,0.2079,0.2079,0.2127,0.2029,0.2015,0.2029,0.2006,0.1856,0.1857,0.133,0.1449,0.1754,0.1676,0.1668,0.1915,0.2041,0.2222,0.2652,0.2907,0.3207,0.3581,0.4136,0.481,0.5671,0.6469,0.7021,0.7388,0.7689,0.7872,0.775,0.7566,0.7266,0.6837,0.653,0.6223,0.5978,0.5916,0.6101,0.6407,0.6837,0.7388,0.8482,0.9754,1.1088,1.2174,1.2964,1.3024,1.2147,1.0397,0.8579,0.7633,0.6912,0.7055,0.7643,0.7946,0.9139,1.0206,1.1142,1.1864,1.3006,1.3271,1.3368,1.3457,1.3595,1.3808,1.4168,1.4356,1.4537,1.4462,1.4386,1.4244,1.4213,1.4167,1.4354,1.4436,1.4881,1.5408,1.6448,1.7653,1.8439,1.9218,1.994,2.0657,2.024,1.9809,1.9447,1.8968,1.856,1.8284,1.8476,1.9034,1.97,2.0393,2.1039,2.1784,2.2417,2.2595,2.247,-0.3285,-0.3952,-0.4584,-0.5484,-0.6455,-0.6522,-0.5848,-0.4705,-0.3629,-0.2593,-0.1503,-0.0129,0.0839,0.1354,0.1742,0.1967,0.2131,0.2093,0.2098,0.2136,0.2113,0.2098,0.2098,0.208,0.2128,0.2001,0.1666,0.1588,0.1766,0.1558,0.1421,0.1979,0.2053,0.2301,0.2729,0.2927,0.3309,0.3813,0.4368,0.4909,0.5498,0.6285,0.6964,0.7143,0.7633,0.7816,0.7877,0.7811,0.7388,0.7021,0.6714,0.6407,0.6039,0.5916,0.5978,0.6101,0.6653,0.7388,0.8355,0.9451,1.0778,1.2053,1.2664,1.2466,1.1264,0.9448,0.7807,0.7079,0.736,0.7875,0.85,0.9067,1.0232,1.134,1.1996,1.2521,1.3157,1.3375,1.3563,1.3574,1.3742,1.3948,1.4164,1.4297,1.4477,1.4471,1.4391,1.4375,1.4391,1.4463,1.4746,1.5175,1.5648,1.6258,1.7483,1.8597,1.9297,1.9971,2.022,2.067,2.0016,1.9586,1.917,1.8531,1.7865,1.7737,1.789,1.8727,1.9667,2.0482,2.1139,2.1677,2.2134,2.206,2.2046,-0.3135,-0.3475,-0.4395,-0.543,-0.6455,-0.6522,-0.5647,-0.437,-0.3564,-0.2465,-0.118,0.0,0.0834,0.1219,0.1414,0.1626,0.2004,0.198,0.2059,0.2133,0.2135,0.2123,0.2119,0.2164,0.2157,0.2084,0.1754,0.1744,0.1724,0.1576,0.15,0.1988,0.2005,0.2388,0.2825,0.3091,0.3363,0.4184,0.4668,0.5011,0.5346,0.6205,0.6637,0.7002,0.7367,0.7793,0.7793,0.7877,0.7566,0.7021,0.6903,0.653,0.6039,0.5916,0.5916,0.6101,0.653,0.7266,0.8299,0.939,1.0702,1.1908,1.2837,1.2621,1.0623,0.8712,0.7522,0.7184,0.785,0.86,0.9468,1.0372,1.1464,1.2246,1.265,1.3005,1.3306,1.355,1.3709,1.3774,1.3896,1.4058,1.422,1.4335,1.4351,1.4408,1.4464,1.4513,1.4611,1.4708,1.5056,1.5507,1.6109,1.6764,1.7747,1.8921,1.9852,2.0426,2.0662,2.0353,1.9538,1.9023,1.866,1.7937,1.7189,1.7043,1.707,1.8394,1.9654,2.0076,2.0597,2.1241,2.1638,2.1666,2.181,-0.4606,-0.3842,-0.4538,-0.552,-0.6522,-0.6522,-0.5312,-0.3497,-0.3295,-0.2054,-0.0324,0.0255,0.0508,0.0696,0.0954,0.1287,0.1649,0.1625,0.1839,0.2,0.2218,0.2143,0.2138,0.2136,0.2139,0.2132,0.1851,0.1841,0.1962,0.1739,0.1783,0.1959,0.2096,0.2487,0.2943,0.3209,0.3663,0.436,0.4839,0.5189,0.5545,0.6164,0.654,0.6728,0.7166,0.7541,0.7536,0.7747,0.7566,0.6964,0.6903,0.6596,0.6039,0.5916,0.5921,0.6064,0.6496,0.7168,0.796,0.9275,1.0651,1.1834,1.281,1.2926,1.0695,1.0244,0.9239,0.8044,0.8705,0.9745,1.0846,1.1991,1.2897,1.3231,1.3388,1.3428,1.3663,1.3703,1.3855,1.3912,1.4026,1.4164,1.4335,1.4432,1.4529,1.4594,1.4724,1.4781,1.4871,1.4968,1.5375,1.58,1.6371,1.6977,1.7674,1.8695,1.9677,2.0021,2.0125,1.95,1.8671,1.8266,1.7728,1.7095,1.6324,1.6253,1.6394,1.7596,1.8669,1.9354,2.0009,2.0637,2.1403,2.1698,2.1883,-0.5633,-0.4873,-0.5789,-0.6317,-0.6522,-0.6522,-0.5242,-0.343,-0.3159,-0.1986,0.0,0.0128,0.0319,0.0506,0.0632,0.0893,0.1233,0.1294,0.1431,0.1573,0.1718,0.1792,0.1865,0.2073,0.2144,0.2135,0.1995,0.198,0.2079,0.1958,0.1958,0.2076,0.2266,0.2646,0.3045,0.3514,0.4034,0.4338,0.4846,0.5226,0.5432,0.6197,0.6642,0.6705,0.7195,0.7499,0.7536,0.7747,0.7465,0.7087,0.6903,0.6478,0.6052,0.5929,0.5957,0.5994,0.6496,0.6988,0.7707,0.9075,1.0635,1.2122,1.3005,1.2807,1.0748,1.0121,0.9645,0.9287,0.9758,1.0887,1.2231,1.3282,1.4056,1.419,1.4123,1.3959,1.3912,1.392,1.3945,1.3977,1.4083,1.4221,1.4399,1.4578,1.4676,1.4781,1.4927,1.5057,1.5122,1.5273,1.5598,1.5926,1.6483,1.7289,1.8,1.8733,1.9551,1.9526,1.95,1.8745,1.789,1.6932,1.6431,1.5918,1.5657,1.5589,1.5953,1.6798,1.7836,1.8849,1.9519,2.0031,2.0829,2.1644,2.1791,-0.6545,-0.5874,-0.6656,-0.6786,-0.6522,-0.6522,-0.5242,-0.343,-0.3228,-0.1987,0.0,0.0,0.0127,0.0315,0.0377,0.0569,0.083,0.0897,0.1028,0.1165,0.1369,0.1509,0.1651,0.186,0.2,0.2127,0.2136,0.2195,0.2169,0.2248,0.2317,0.2453,0.2717,0.3031,0.3222,0.3821,0.4287,0.4595,0.4906,0.5381,0.5577,0.6158,0.6546,0.661,0.7006,0.7272,0.7413,0.7578,0.7429,0.7111,0.687,0.6575,0.6217,0.5986,0.6031,0.6189,0.6463,0.6958,0.7905,0.9218,1.1103,1.2968,1.3039,1.2384,1.1034,1.0064,0.9576,0.9728,1.0771,1.2101,1.327,1.4036,1.4463,1.4503,1.4085,1.3904,1.3945,1.3961,1.3993,1.4026,1.4205,1.4424,1.457,1.4773,1.4927,1.5033,1.5163,1.5268,1.5309,1.5469,1.571,1.604,1.6469,1.7377,1.822,1.8496,1.8653,1.8523,1.8385,1.8025,1.7186,1.6253,1.5399,1.4911,1.4758,1.4811,1.5318,1.6144,1.7337,1.8572,1.9308,2.0169,2.0677,2.1336,2.1361,-0.7542,-0.6634,-0.6892,-0.6862,-0.6531,-0.6455,-0.5178,-0.3295,-0.2957,-0.1856,0.0,0.0,0.0,0.0,0.0,0.0252,0.0444,0.0508,0.0637,0.09,0.1034,0.1302,0.1508,0.165,0.1929,0.2148,0.2221,0.2217,0.2278,0.2487,0.2623,0.2898,0.3236,0.3562,0.3291,0.39,0.4638,0.5228,0.5235,0.5606,0.5989,0.6251,0.6382,0.6505,0.674,0.7011,0.7203,0.7423,0.7276,0.6984,0.6811,0.6518,0.6031,0.6013,0.6049,0.6141,0.6792,0.7701,0.8931,1.0342,1.202,1.3444,1.3232,1.2299,1.1106,1.0319,1.0128,1.0545,1.151,1.2634,1.3615,1.441,1.4636,1.4537,1.411,1.3904,1.3945,1.4034,1.4066,1.4131,1.4432,1.4716,1.483,1.4976,1.5155,1.5293,1.5415,1.548,1.5504,1.5624,1.5778,1.6068,1.6394,1.6863,1.7563,1.7696,1.7749,1.7604,1.7321,1.6999,1.6568,1.5809,1.4959,1.4141,1.4441,1.4994,1.5142,1.5305,1.7153,1.8952,1.9706,2.0433,2.0819,2.1108,2.1074,-0.8336,-0.7774,-0.7878,-0.7547,-0.6876,-0.58,-0.4504,-0.3094,-0.1747,0.0,0.0,0.0,0.0,0.0,0.0,0.0,0.0,0.0192,0.0321,0.0382,0.0643,0.0969,0.1237,0.1512,0.1793,0.208,0.2223,0.2357,0.2556,0.278,0.2932,0.3211,0.3638,0.3832,0.4067,0.4468,0.4891,0.5047,0.5352,0.5804,0.607,0.6269,0.6402,0.6465,0.6683,0.6832,0.6978,0.7203,0.7068,0.6755,0.6643,0.6177,0.5855,0.5816,0.5737,0.6143,0.6913,0.8774,1.0412,1.1846,1.2428,1.2992,1.3049,1.2224,1.0643,1.114,1.1335,1.1793,1.2696,1.3755,1.4868,1.484,1.483,1.4546,1.4189,1.3975,1.3945,1.4075,1.4172,1.4253,1.4473,1.4822,1.5025,1.5163,1.5342,1.5504,1.5626,1.5642,1.5658,1.5675,1.5804,1.5974,1.6193,1.6537,1.682,1.7056,1.7059,1.7042,1.6668,1.6146,1.5632,1.5241,1.4779,1.4083,1.472,1.5278,1.5778,1.6428,1.7949,1.9415,1.994,2.0339,2.0614,2.073,2.0836,-0.8809,-0.8521,-0.8416,-0.7741,-0.6714,-0.5569,-0.4187,-0.2558,0.0,0.0,0.0,0.0,0.0,0.0,0.0,0.0,0.0,0.0,0.0,0.0,0.0193,0.0648,0.1043,0.1378,0.1727,0.208,0.2359,0.2495,0.2718,0.308,0.3372,0.3742,0.3993,0.4175,0.4409,0.4664,0.499,0.5217,0.5598,0.5971,0.6176,0.638,0.6514,0.6502,0.6602,0.6749,0.6841,0.6913,0.691,0.66,0.6239,0.5883,0.5667,0.5537,0.553,0.6076,0.7681,0.9692,1.1596,1.2869,1.3082,1.2674,1.2906,1.2319,1.1178,1.161,1.2429,1.3098,1.3941,1.4604,1.5203,1.5035,1.483,1.4474,1.4198,1.3984,1.4034,1.4172,1.431,1.4391,1.4554,1.4895,1.5195,1.5366,1.5512,1.5675,1.5821,1.5813,1.578,1.5756,1.574,1.5893,1.5917,1.6154,1.636,1.6435,1.651,1.646,1.5937,1.5324,1.5165,1.4799,1.4365,1.4316,1.5133,1.5905,1.6764,1.7715,1.8674,1.9242,1.9586,1.9979,2.0251,2.0328,2.0423,-0.8879,-0.8799,-0.8417,-0.741,-0.6164,-0.5406,-0.3808,-0.1546,-0.0471,0.0,0.0,0.0,0.0,0.0,0.0,0.0,0.0,0.0,0.0,0.0,0.0,0.0,0.0917,0.1186,0.1596,0.2079,0.2498,0.2721,0.2884,0.3532,0.4038,0.4356,0.4409,0.4534,0.4633,0.48,0.5046,0.5286,0.5573,0.5953,0.6215,0.6392,0.6455,0.6447,0.6569,0.6664,0.6696,0.6784,0.6623,0.643,0.6197,0.5918,0.5724,0.5623,0.5646,0.6655,0.8705,1.0461,1.254,1.3642,1.3385,1.2955,1.3234,1.279,1.2396,1.2278,1.312,1.3821,1.4508,1.4788,1.5079,1.4884,1.4759,1.442,1.408,1.409,1.4148,1.4286,1.4432,1.457,1.4732,1.4992,1.5244,1.5439,1.5585,1.5796,1.5902,1.5853,1.5804,1.5707,1.5691,1.5658,1.5771,1.5748,1.5878,1.5966,1.5699,1.5557,1.512,1.4627,1.4477,1.4642,1.4708,1.4988,1.5727,1.6454,1.7305,1.8058,1.8769,1.9273,1.9339,1.9552,1.9855,1.9683,1.9651,-0.8921,-0.8992,-0.8809,-0.7677,-0.5895,-0.3702,-0.1838,-0.0471,0.0,0.0,0.0,0.0,0.0,0.0,0.0,0.0,0.0,0.0,0.0,0.0,0.0,0.0,0.0856,0.1123,0.1597,0.2085,0.2582,0.2943,0.3312,0.3973,0.4406,0.461,0.4619,0.4685,0.4732,0.4905,0.5069,0.5222,0.5505,0.5805,0.6043,0.6151,0.627,0.6388,0.6455,0.6494,0.6548,0.6531,0.6386,0.6068,0.568,0.5376,0.5304,0.5335,0.5691,0.8625,0.9848,1.0904,1.3357,1.4104,1.3939,1.3555,1.3931,1.3269,1.2831,1.3062,1.3927,1.4526,1.4982,1.5298,1.5282,1.5115,1.4893,1.4605,1.4289,1.4179,1.4294,1.4302,1.444,1.4489,1.4667,1.4992,1.5252,1.5439,1.5601,1.5853,1.5967,1.5918,1.5845,1.5748,1.565,1.5618,1.565,1.5635,1.5496,1.5475,1.5036,1.4675,1.4264,1.414,1.4295,1.4564,1.5053,1.5749,1.6621,1.721,1.7816,1.8485,1.8717,1.8872,1.9034,1.924,1.9454,1.9396,1.9329,-0.8856,-0.8906,-0.8421,-0.6902,-0.4527,-0.2059,-0.0548,0.0,0.0,0.0,0.0,0.0,0.0,0.0,0.0,0.0,0.0,0.0,0.0,0.0,0.0,0.0,0.0864,0.1196,0.1538,0.2162,0.273,0.3099,0.3549,0.4188,0.4632,0.4651,0.4665,0.4665,0.4721,0.4835,0.4881,0.5038,0.5324,0.5674,0.5827,0.5855,0.6028,0.6325,0.6388,0.6317,0.6447,0.6368,0.6027,0.5697,0.5297,0.5057,0.5119,0.5254,0.6562,0.9094,0.9951,1.1656,1.3819,1.449,1.4336,1.4442,1.4808,1.4526,1.4334,1.4411,1.4787,1.5165,1.5547,1.5816,1.5612,1.5405,1.5106,1.4863,1.4605,1.4415,1.44,1.4302,1.4335,1.4351,1.4586,1.4935,1.5187,1.539,1.5538,1.5804,1.5851,1.5827,1.582,1.5796,1.5675,1.5593,1.5562,1.5538,1.5318,1.5018,1.4691,1.4304,1.3859,1.3743,1.4005,1.4911,1.5753,1.6632,1.7535,1.7932,1.8239,1.8234,1.8441,1.8603,1.8873,1.912,1.9435,1.9526,1.9359,-0.8764,-0.8706,-0.7455,-0.5478,-0.2814,0.0,0.0,0.0,0.0,0.0,0.0,0.0,0.0,0.0,0.0,0.0,0.0,0.0,0.0,0.0,0.0,0.0472,0.0943,0.1213,0.1684,0.2302,0.2877,0.341,0.3745,0.4236,0.4651,0.4665,0.4665,0.4665,0.4735,0.4729,0.4785,0.4838,0.5124,0.5477,0.5681,0.5704,0.5733,0.6282,0.6191,0.6046,0.6231,0.6109,0.5762,0.5515,0.5151,0.4862,0.5083,0.5541,0.7232,0.8866,0.9937,1.1966,1.3918,1.486,1.5216,1.5391,1.5793,1.5633,1.5432,1.5224,1.5455,1.5519,1.576,1.5829,1.5607,1.5575,1.5462,1.5145,1.4894,1.4595,1.4416,1.4335,1.427,1.4343,1.4586,1.4935,1.5285,1.5504,1.5538,1.5787,1.5745,1.5647,1.5541,1.5593,1.557,1.5449,1.5425,1.5328,1.5066,1.4765,1.4465,1.4006,1.3597,1.378,1.4204,1.5314,1.6718,1.7493,1.8342,1.8247,1.8327,1.8405,1.839,1.849,1.8761,1.9118,1.9327,1.9513,1.9295,-0.8687,-0.8554,-0.6024,-0.4476,-0.3568,-0.1111,0.0,0.0,0.0,0.0,0.0,0.0,0.0,0.0,0.0,0.0,0.0,0.0,0.0,0.0,0.0,0.0545,0.109,0.1352,0.1898,0.2536,0.3194,0.3738,0.4236,0.4573,0.4665,0.4665,0.4665,0.4665,0.4665,0.4735,0.4727,0.4732,0.4907,0.514,0.5305,0.5269,0.5338,0.5847,0.5964,0.6053,0.6156,0.6039,0.5664,0.537,0.4923,0.4894,0.5195,0.5645,0.7335,0.9468,1.0232,1.2122,1.4117,1.5292,1.56,1.5992,1.6252,1.6221,1.6167,1.5931,1.5851,1.586,1.58,1.5731,1.5775,1.5781,1.5687,1.5448,1.5103,1.4769,1.4432,1.4318,1.4221,1.4391,1.4619,1.4952,1.5317,1.5513,1.5561,1.5544,1.5357,1.5194,1.5003,1.4957,1.531,1.5223,1.5255,1.5066,1.4786,1.4564,1.4289,1.4049,1.3732,1.3954,1.4509,1.5968,1.7378,1.8254,1.8874,1.8623,1.8344,1.8436,1.8529,1.845,1.8628,1.8971,1.9237,1.9441,1.919,-0.8628,-0.8345,-0.5555,-0.3757,-0.2634,-0.0774,0.0,0.0,0.0,0.0,0.0,0.0,0.0,0.0,0.0,0.0,0.0,0.0,0.0,0.0,0.0348,0.0688,0.1093,0.1495,0.2042,0.2752,0.3439,0.4002,0.4579,0.4665,0.4665,0.4665,0.4665,0.4665,0.4735,0.4791,0.4788,0.4735,0.4788,0.4907,0.4949,0.4855,0.5106,0.5553,0.563,0.5725,0.5689,0.5646,0.5346,0.5201,0.4968,0.5021,0.5318,0.5778,0.7468,0.9355,1.0635,1.1845,1.4292,1.5674,1.6059,1.6553,1.6907,1.693,1.6569,1.6382,1.6037,1.5977,1.5898,1.5829,1.6037,1.6097,1.5967,1.5724,1.5306,1.4885,1.4317,1.3945,1.4051,1.427,1.4546,1.4887,1.5252,1.5601,1.561,1.5333,1.5132,1.4812,1.4541,1.4297,1.466,1.4927,1.4883,1.475,1.4392,1.4261,1.4153,1.3919,1.382,1.466,1.5459,1.6737,1.802,1.8717,1.901,1.8504,1.8421,1.8328,1.8176,1.7902,1.8371,1.8819,1.9078,1.9228,1.8968,-0.8256,-0.7799,-0.5243,-0.3042,-0.1333,-0.0356,0.0,0.0,0.0,0.0,0.0,0.0,0.0,0.0,0.0,0.0,0.0,0.0,0.0,0.0,0.0,0.0767,0.1176,0.1642,0.2409,0.3066,0.3763,0.4243,0.4662,0.4665,0.4665,0.4665,0.4665,0.4665,0.4791,0.4907,0.4964,0.4852,0.4849,0.4901,0.4726,0.4616,0.4957,0.509,0.5092,0.5047,0.5158,0.5056,0.4885,0.4958,0.5089,0.5201,0.5494,0.5956,0.7709,0.9393,1.0482,1.2326,1.469,1.5917,1.6564,1.7142,1.7444,1.7348,1.7034,1.6748,1.6391,1.6044,1.5965,1.5999,1.6207,1.6399,1.6278,1.5892,1.5377,1.4736,1.4096,1.3644,1.3879,1.4204,1.4519,1.4859,1.5244,1.5593,1.5465,1.5189,1.4804,1.4413,1.4157,1.3929,1.3958,1.4244,1.4278,1.4142,1.4095,1.4084,1.4069,1.4235,1.4298,1.5338,1.6387,1.7434,1.841,1.896,1.8956,1.8628,1.8227,1.8037,1.7785,1.7643,1.8004,1.8351,1.8707,1.8737,1.8499,-0.6782,-0.5848,-0.3818,-0.2698,-0.2104,-0.0711,0.0,0.0,0.0,0.0,0.0,0.0,0.0,0.0,0.0,0.0,0.0,0.0,0.0,0.0,0.0,0.0922,0.1412,0.2092,0.2948,0.3621,0.4166,0.4573,0.4665,0.4665,0.4665,0.4665,0.4665,0.4735,0.4727,0.4913,0.503,0.4915,0.4901,0.5018,0.4709,0.4602,0.4704,0.4842,0.4907,0.5066,0.5158,0.4977,0.4854,0.4872,0.5148,0.5252,0.5599,0.619,0.776,0.92,1.0292,1.2226,1.4189,1.5475,1.6282,1.7339,1.7501,1.7523,1.7282,1.7117,1.6697,1.6206,1.6103,1.6235,1.6453,1.6764,1.6684,1.5815,1.5177,1.4267,1.3498,1.3616,1.3847,1.4243,1.4726,1.5085,1.5423,1.5562,1.5408,1.4965,1.4453,1.4082,1.3495,1.3339,1.3341,1.3624,1.3804,1.4041,1.4175,1.4032,1.406,1.4319,1.4929,1.6022,1.7096,1.7977,1.8728,1.9259,1.9292,1.9055,1.8551,1.807,1.7924,1.7876,1.7837,1.7984,1.8222,1.8417,1.8157]}]]